<?xml version="1.0" encoding="UTF-8"?>
<gpx version="1.1" creator="2bulu-scraper" xmlns="http://www.topografix.com/GPX/1/1">
  <metadata><name>峨眉山徒步</name><desc>source: 2bulu.com trackId=72134613; exported 2026-09-01T15:54:35.325Z</desc>
    <bounds minlat="29.5348979" minlon="103.3314214" maxlat="29.5742115" maxlon="103.4414652"/>
    <link href="https://www.2bulu.com/track/t-Bb6K0oIdNCXp%252FR2KBg5Tzw%253D%253D.htm"><text>2bulu 源页面</text></link>
  </metadata>
  <wpt lat="29.5696518" lon="103.4409828"><ele>490</ele><name>
        </name></wpt>
  <wpt lat="29.5692553" lon="103.4409225"><ele>487</ele><name>
        </name></wpt>
  <wpt lat="29.5653926" lon="103.4315728"><ele>568</ele><name>检票口
        </name></wpt>
  <wpt lat="29.5650602" lon="103.4295267"><ele>591</ele><name>
        </name></wpt>
  <wpt lat="29.5648786" lon="103.4268419"><ele>608</ele><name>爬坡，台阶开始
        </name></wpt>
  <wpt lat="29.5653549" lon="103.4211947"><ele>791</ele><name>
        </name></wpt>
  <wpt lat="29.5704884" lon="103.4157714"><ele>884</ele><name>
        </name></wpt>
  <wpt lat="29.5690675" lon="103.4148916"><ele>885</ele><name>右转
        </name></wpt>
  <wpt lat="29.567587" lon="103.4084434"><ele>782</ele><name>左转
        </name></wpt>
  <wpt lat="29.5666934" lon="103.4084367"><ele>777</ele><name>
        </name></wpt>
  <wpt lat="29.571939" lon="103.4010158"><ele>738</ele><name>检票口，开始登山
        </name></wpt>
  <wpt lat="29.5715686" lon="103.3985241"><ele>808</ele><name>
        </name></wpt>
  <wpt lat="29.5727383" lon="103.3943601"><ele>689</ele><name>
        </name></wpt>
  <wpt lat="29.5741831" lon="103.3923525"><ele>668</ele><name>
        </name></wpt>
  <wpt lat="29.5741865" lon="103.3921614"><ele>643</ele><name>游虐线
        </name></wpt>
  <wpt lat="29.5741099" lon="103.3921039"><ele>651</ele><name>
        </name></wpt>
  <wpt lat="29.5734701" lon="103.3918325"><ele>656</ele><name>
        </name></wpt>
  <wpt lat="29.5713009" lon="103.3916612"><ele>662</ele><name>
        </name></wpt>
  <wpt lat="29.570108" lon="103.3910072"><ele>686</ele><name>
        </name></wpt>
  <wpt lat="29.5692793" lon="103.3909464"><ele>669</ele><name>
        </name></wpt>
  <wpt lat="29.5688783" lon="103.3912306"><ele>678</ele><name>
        </name></wpt>
  <wpt lat="29.5660406" lon="103.3897415"><ele>698</ele><name>
        </name></wpt>
  <wpt lat="29.564712" lon="103.3889976"><ele>707</ele><name>
        </name></wpt>
  <wpt lat="29.5629249" lon="103.3892013"><ele>731</ele><name>
        </name></wpt>
  <wpt lat="29.5625569" lon="103.3894393"><ele>728</ele><name>
        </name></wpt>
  <wpt lat="29.5623938" lon="103.3893711"><ele>731</ele><name>
        </name></wpt>
  <wpt lat="29.5581598" lon="103.3872799"><ele>775</ele><name>
        </name></wpt>
  <wpt lat="29.5568539" lon="103.38604"><ele>792</ele><name>
        </name></wpt>
  <wpt lat="29.5565318" lon="103.3861207"><ele>792</ele><name>红牛
        </name></wpt>
  <wpt lat="29.5550666" lon="103.3841477"><ele>960</ele><name>
        </name></wpt>
  <wpt lat="29.5550003" lon="103.3840625"><ele>964</ele><name>
        </name></wpt>
  <wpt lat="29.5550557" lon="103.3836538"><ele>972</ele><name>
        </name></wpt>
  <wpt lat="29.5505817" lon="103.372571"><ele>1228</ele><name>
        </name></wpt>
  <wpt lat="29.550363" lon="103.3704469"><ele>1199</ele><name>瀑布
        </name></wpt>
  <wpt lat="29.5497653" lon="103.3683551"><ele>1280</ele><name>
        </name></wpt>
  <wpt lat="29.5497326" lon="103.3665914"><ele>1424</ele><name>
        </name></wpt>
  <wpt lat="29.549361" lon="103.3663538"><ele>1456</ele><name>
        </name></wpt>
  <wpt lat="29.5499585" lon="103.359222"><ele>1652</ele><name>
        </name></wpt>
  <wpt lat="29.5503214" lon="103.3569865"><ele>1695</ele><name>
        </name></wpt>
  <wpt lat="29.5499213" lon="103.3569274"><ele>1698</ele><name>右转
        </name></wpt>
  <wpt lat="29.5500644" lon="103.3563121"><ele>1699</ele><name>
        </name></wpt>
  <wpt lat="29.5504356" lon="103.3556877"><ele>1688</ele><name>猴子
        </name></wpt>
  <wpt lat="29.5504356" lon="103.3556877"><ele>1688</ele><name>
        </name></wpt>
  <wpt lat="29.5519153" lon="103.3539477"><ele>1639</ele><name>
        </name></wpt>
  <wpt lat="29.5518697" lon="103.3538864"><ele>1640</ele><name>仙峰石
        </name></wpt>
  <wpt lat="29.552203" lon="103.3524747"><ele>1599</ele><name>
        </name></wpt>
  <wpt lat="29.5596407" lon="103.3504874"><ele>1529</ele><name>
        </name></wpt>
  <wpt lat="29.5605597" lon="103.3515888"><ele>1657</ele><name>遇仙寺
        </name></wpt>
  <wpt lat="29.5606509" lon="103.3516598"><ele>1661</ele><name>
        </name></wpt>
  <wpt lat="29.5607113" lon="103.351456"><ele>1668</ele><name>
        </name></wpt>
  <wpt lat="29.5628461" lon="103.3506734"><ele>1802</ele><name>交叉口
        </name></wpt>
  <wpt lat="29.5614829" lon="103.3453081"><ele>1782</ele><name>
        </name></wpt>
  <wpt lat="29.5614546" lon="103.345368"><ele>1782</ele><name>
        </name></wpt>
  <wpt lat="29.5588477" lon="103.3443596"><ele>2028</ele><name>
        </name></wpt>
  <wpt lat="29.5588477" lon="103.3443596"><ele>2028</ele><name>
        </name></wpt>
  <wpt lat="29.5575655" lon="103.3437614"><ele>2046</ele><name>
        </name></wpt>
  <wpt lat="29.5573609" lon="103.343693"><ele>2043</ele><name>
        </name></wpt>
  <wpt lat="29.5493429" lon="103.3417721"><ele>2247</ele><name>
        </name></wpt>
  <wpt lat="29.5478414" lon="103.3412036"><ele>2294</ele><name>
        </name></wpt>
  <wpt lat="29.546285" lon="103.3379782"><ele>2419</ele><name>20公里
        </name></wpt>
  <wpt lat="29.5463486" lon="103.3378945"><ele>2417</ele><name>
        </name></wpt>
  <wpt lat="29.5424534" lon="103.3322655"><ele>2395</ele><name>
        </name></wpt>
  <wpt lat="29.5421134" lon="103.3314991"><ele>2382</ele><name>
        </name></wpt>
  <wpt lat="29.5350968" lon="103.3329564"><ele>2494</ele><name>
        </name></wpt>
  <wpt lat="29.534947" lon="103.3330341"><ele>2494</ele><name>
        </name></wpt>
  <trk><name>峨眉山徒步</name>
      <trkseg>
        <trkpt lat="29.5714575" lon="103.4412388"><ele>494.64</ele><time>2025-09-18T14:12:09.000Z</time></trkpt>
        <trkpt lat="29.5714341" lon="103.4411405"><ele>494.64</ele><time>2025-09-18T14:12:16.000Z</time></trkpt>
        <trkpt lat="29.5713821" lon="103.4410502"><ele>495.29</ele><time>2025-09-18T14:12:26.000Z</time></trkpt>
        <trkpt lat="29.5714059" lon="103.4410941"><ele>496.82</ele><time>2025-09-18T14:12:36.000Z</time></trkpt>
        <trkpt lat="29.5714693" lon="103.4411882"><ele>498.19</ele><time>2025-09-18T14:12:46.000Z</time></trkpt>
        <trkpt lat="29.57143" lon="103.4412551"><ele>499.26</ele><time>2025-09-18T14:12:56.000Z</time></trkpt>
        <trkpt lat="29.5713343" lon="103.441294"><ele>499.29</ele><time>2025-09-18T14:13:04.000Z</time></trkpt>
        <trkpt lat="29.5712309" lon="103.4413383"><ele>499.43</ele><time>2025-09-18T14:13:12.000Z</time></trkpt>
        <trkpt lat="29.5711211" lon="103.4413788"><ele>500.02</ele><time>2025-09-18T14:13:20.000Z</time></trkpt>
        <trkpt lat="29.5710058" lon="103.4414016"><ele>500.05</ele><time>2025-09-18T14:13:28.000Z</time></trkpt>
        <trkpt lat="29.5709045" lon="103.44141"><ele>500.08</ele><time>2025-09-18T14:13:34.000Z</time></trkpt>
        <trkpt lat="29.57081" lon="103.4414209"><ele>500.34</ele><time>2025-09-18T14:13:42.000Z</time></trkpt>
        <trkpt lat="29.5707099" lon="103.4414449"><ele>499.64</ele><time>2025-09-18T14:13:52.000Z</time></trkpt>
        <trkpt lat="29.5706098" lon="103.4414652"><ele>500.06</ele><time>2025-09-18T14:14:00.000Z</time></trkpt>
        <trkpt lat="29.5705048" lon="103.4414535"><ele>499.67</ele><time>2025-09-18T14:14:08.000Z</time></trkpt>
        <trkpt lat="29.5704073" lon="103.4413967"><ele>499.48</ele><time>2025-09-18T14:14:16.000Z</time></trkpt>
        <trkpt lat="29.5703105" lon="103.4413301"><ele>497.91</ele><time>2025-09-18T14:14:24.000Z</time></trkpt>
        <trkpt lat="29.5702158" lon="103.4412605"><ele>496.35</ele><time>2025-09-18T14:14:32.000Z</time></trkpt>
        <trkpt lat="29.5701328" lon="103.4411734"><ele>494.97</ele><time>2025-09-18T14:14:40.000Z</time></trkpt>
        <trkpt lat="29.5700521" lon="103.4411061"><ele>494.08</ele><time>2025-09-18T14:14:48.000Z</time></trkpt>
        <trkpt lat="29.5699523" lon="103.4410667"><ele>493.85</ele><time>2025-09-18T14:14:54.000Z</time></trkpt>
        <trkpt lat="29.5698534" lon="103.4410462"><ele>493.75</ele><time>2025-09-18T14:15:00.000Z</time></trkpt>
        <trkpt lat="29.5697586" lon="103.4410132"><ele>493.58</ele><time>2025-09-18T14:15:08.000Z</time></trkpt>
        <trkpt lat="29.5696518" lon="103.4409828"><ele>492.76</ele><time>2025-09-18T14:15:16.000Z</time></trkpt>
        <trkpt lat="29.5695466" lon="103.4409615"><ele>491.59</ele><time>2025-09-18T14:15:24.000Z</time></trkpt>
        <trkpt lat="29.5694354" lon="103.4409529"><ele>490.73</ele><time>2025-09-18T14:15:33.000Z</time></trkpt>
        <trkpt lat="29.5693326" lon="103.44094"><ele>490.03</ele><time>2025-09-18T14:15:41.000Z</time></trkpt>
        <trkpt lat="29.5692553" lon="103.4409225"><ele>489</ele><time>2025-09-18T14:15:49.000Z</time></trkpt>
        <trkpt lat="29.5691775" lon="103.4409532"><ele>488.18</ele><time>2025-09-18T14:16:11.000Z</time></trkpt>
        <trkpt lat="29.5690896" lon="103.4409604"><ele>487.97</ele><time>2025-09-18T14:17:29.000Z</time></trkpt>
        <trkpt lat="29.5690528" lon="103.4408475"><ele>487.97</ele><time>2025-09-18T14:17:39.000Z</time></trkpt>
        <trkpt lat="29.5690323" lon="103.4407383"><ele>488.24</ele><time>2025-09-18T14:17:47.000Z</time></trkpt>
        <trkpt lat="29.5690158" lon="103.4406282"><ele>488.95</ele><time>2025-09-18T14:17:55.000Z</time></trkpt>
        <trkpt lat="29.5690025" lon="103.4405114"><ele>489.2</ele><time>2025-09-18T14:18:03.000Z</time></trkpt>
        <trkpt lat="29.5689991" lon="103.4403958"><ele>489.6</ele><time>2025-09-18T14:18:11.000Z</time></trkpt>
        <trkpt lat="29.5689875" lon="103.4402857"><ele>490.41</ele><time>2025-09-18T14:18:19.000Z</time></trkpt>
        <trkpt lat="29.568944" lon="103.4401923"><ele>491.82</ele><time>2025-09-18T14:18:27.000Z</time></trkpt>
        <trkpt lat="29.5688811" lon="103.4401045"><ele>492.83</ele><time>2025-09-18T14:18:35.000Z</time></trkpt>
        <trkpt lat="29.568808" lon="103.440009"><ele>493.95</ele><time>2025-09-18T14:18:43.000Z</time></trkpt>
        <trkpt lat="29.5687362" lon="103.4399119"><ele>494.62</ele><time>2025-09-18T14:18:51.000Z</time></trkpt>
        <trkpt lat="29.5686619" lon="103.4398245"><ele>494.66</ele><time>2025-09-18T14:18:59.000Z</time></trkpt>
        <trkpt lat="29.5685954" lon="103.4397369"><ele>495.2</ele><time>2025-09-18T14:19:07.000Z</time></trkpt>
        <trkpt lat="29.5685337" lon="103.4396516"><ele>496.69</ele><time>2025-09-18T14:19:15.000Z</time></trkpt>
        <trkpt lat="29.5684738" lon="103.4395708"><ele>498.11</ele><time>2025-09-18T14:19:23.000Z</time></trkpt>
        <trkpt lat="29.5684035" lon="103.4394799"><ele>499.81</ele><time>2025-09-18T14:19:31.000Z</time></trkpt>
        <trkpt lat="29.5683277" lon="103.4393883"><ele>500.72</ele><time>2025-09-18T14:19:39.000Z</time></trkpt>
        <trkpt lat="29.5682454" lon="103.4393121"><ele>500.97</ele><time>2025-09-18T14:19:47.000Z</time></trkpt>
        <trkpt lat="29.5681596" lon="103.4392321"><ele>501.07</ele><time>2025-09-18T14:19:55.000Z</time></trkpt>
        <trkpt lat="29.568087" lon="103.439152"><ele>501.44</ele><time>2025-09-18T14:20:01.000Z</time></trkpt>
        <trkpt lat="29.5680198" lon="103.4390537"><ele>502.33</ele><time>2025-09-18T14:20:09.000Z</time></trkpt>
        <trkpt lat="29.5679399" lon="103.4389613"><ele>503.2</ele><time>2025-09-18T14:20:17.000Z</time></trkpt>
        <trkpt lat="29.5678626" lon="103.438868"><ele>503.85</ele><time>2025-09-18T14:20:25.000Z</time></trkpt>
        <trkpt lat="29.5677867" lon="103.4387755"><ele>505.81</ele><time>2025-09-18T14:20:33.000Z</time></trkpt>
        <trkpt lat="29.5677172" lon="103.4386824"><ele>506.68</ele><time>2025-09-18T14:20:41.000Z</time></trkpt>
        <trkpt lat="29.5676516" lon="103.4385877"><ele>506.57</ele><time>2025-09-18T14:20:49.000Z</time></trkpt>
        <trkpt lat="29.5675824" lon="103.4384884"><ele>506.27</ele><time>2025-09-18T14:20:57.000Z</time></trkpt>
        <trkpt lat="29.5675052" lon="103.4384039"><ele>505.83</ele><time>2025-09-18T14:21:05.000Z</time></trkpt>
        <trkpt lat="29.5674358" lon="103.4383134"><ele>506.23</ele><time>2025-09-18T14:21:13.000Z</time></trkpt>
        <trkpt lat="29.5673782" lon="103.4382086"><ele>506.93</ele><time>2025-09-18T14:21:21.000Z</time></trkpt>
        <trkpt lat="29.567314" lon="103.4381068"><ele>507.22</ele><time>2025-09-18T14:21:29.000Z</time></trkpt>
        <trkpt lat="29.567253" lon="103.4380068"><ele>508.15</ele><time>2025-09-18T14:21:37.000Z</time></trkpt>
        <trkpt lat="29.567197" lon="103.4378999"><ele>509.76</ele><time>2025-09-18T14:21:45.000Z</time></trkpt>
        <trkpt lat="29.5671285" lon="103.4377979"><ele>510.3</ele><time>2025-09-18T14:21:53.000Z</time></trkpt>
        <trkpt lat="29.5670684" lon="103.4376951"><ele>512.43</ele><time>2025-09-18T14:22:01.000Z</time></trkpt>
        <trkpt lat="29.5670027" lon="103.4375921"><ele>513.97</ele><time>2025-09-18T14:22:09.000Z</time></trkpt>
        <trkpt lat="29.5669465" lon="103.43749"><ele>515.27</ele><time>2025-09-18T14:22:17.000Z</time></trkpt>
        <trkpt lat="29.5668887" lon="103.4373938"><ele>516.98</ele><time>2025-09-18T14:22:25.000Z</time></trkpt>
        <trkpt lat="29.5668367" lon="103.437291"><ele>518.51</ele><time>2025-09-18T14:22:33.000Z</time></trkpt>
        <trkpt lat="29.5667817" lon="103.4371862"><ele>519.05</ele><time>2025-09-18T14:22:41.000Z</time></trkpt>
        <trkpt lat="29.5667202" lon="103.4370855"><ele>518.82</ele><time>2025-09-18T14:22:49.000Z</time></trkpt>
        <trkpt lat="29.5666601" lon="103.4369811"><ele>518.75</ele><time>2025-09-18T14:22:57.000Z</time></trkpt>
        <trkpt lat="29.5665982" lon="103.436878"><ele>519.23</ele><time>2025-09-18T14:23:05.000Z</time></trkpt>
        <trkpt lat="29.5665318" lon="103.436783"><ele>519.96</ele><time>2025-09-18T14:23:13.000Z</time></trkpt>
        <trkpt lat="29.5664713" lon="103.4366841"><ele>520.89</ele><time>2025-09-18T14:23:21.000Z</time></trkpt>
        <trkpt lat="29.566415" lon="103.4365839"><ele>521.9</ele><time>2025-09-18T14:23:29.000Z</time></trkpt>
        <trkpt lat="29.5663693" lon="103.436472"><ele>523.19</ele><time>2025-09-18T14:23:37.000Z</time></trkpt>
        <trkpt lat="29.5663206" lon="103.4363617"><ele>523.6</ele><time>2025-09-18T14:23:45.000Z</time></trkpt>
        <trkpt lat="29.5662892" lon="103.4362449"><ele>523.67</ele><time>2025-09-18T14:23:53.000Z</time></trkpt>
        <trkpt lat="29.5662628" lon="103.4361241"><ele>523.84</ele><time>2025-09-18T14:24:01.000Z</time></trkpt>
        <trkpt lat="29.5662232" lon="103.4360107"><ele>523.17</ele><time>2025-09-18T14:24:09.000Z</time></trkpt>
        <trkpt lat="29.5661794" lon="103.4358918"><ele>523.73</ele><time>2025-09-18T14:24:17.000Z</time></trkpt>
        <trkpt lat="29.5661469" lon="103.4357747"><ele>524.35</ele><time>2025-09-18T14:24:25.000Z</time></trkpt>
        <trkpt lat="29.5661535" lon="103.4357244"><ele>524.43</ele><time>2025-09-18T14:24:29.000Z</time></trkpt>
        <trkpt lat="29.5661221" lon="103.4356427"><ele>524.75</ele><time>2025-09-18T14:24:41.000Z</time></trkpt>
        <trkpt lat="29.5660891" lon="103.43554"><ele>526.04</ele><time>2025-09-18T14:24:49.000Z</time></trkpt>
        <trkpt lat="29.5660489" lon="103.4354315"><ele>525.08</ele><time>2025-09-18T14:24:57.000Z</time></trkpt>
        <trkpt lat="29.5660597" lon="103.4354145"><ele>525.91</ele><time>2025-09-18T14:25:07.000Z</time></trkpt>
        <trkpt lat="29.5659801" lon="103.4354308"><ele>525.84</ele><time>2025-09-18T14:26:55.000Z</time></trkpt>
        <trkpt lat="29.5659677" lon="103.435325"><ele>529.07</ele><time>2025-09-18T14:27:13.000Z</time></trkpt>
        <trkpt lat="29.5659463" lon="103.4352146"><ele>528.48</ele><time>2025-09-18T14:27:23.000Z</time></trkpt>
        <trkpt lat="29.5659027" lon="103.4351056"><ele>527.18</ele><time>2025-09-18T14:27:33.000Z</time></trkpt>
        <trkpt lat="29.5658332" lon="103.4350209"><ele>528.05</ele><time>2025-09-18T14:27:41.000Z</time></trkpt>
        <trkpt lat="29.5657495" lon="103.4349371"><ele>529.48</ele><time>2025-09-18T14:27:49.000Z</time></trkpt>
        <trkpt lat="29.5656566" lon="103.434862"><ele>531.13</ele><time>2025-09-18T14:27:57.000Z</time></trkpt>
        <trkpt lat="29.5655733" lon="103.4347758"><ele>532.78</ele><time>2025-09-18T14:28:05.000Z</time></trkpt>
        <trkpt lat="29.5655276" lon="103.4346578"><ele>533.17</ele><time>2025-09-18T14:28:13.000Z</time></trkpt>
        <trkpt lat="29.5655373" lon="103.4345282"><ele>532.73</ele><time>2025-09-18T14:28:21.000Z</time></trkpt>
        <trkpt lat="29.5655807" lon="103.4344049"><ele>531.66</ele><time>2025-09-18T14:28:29.000Z</time></trkpt>
        <trkpt lat="29.5656491" lon="103.4343059"><ele>533.12</ele><time>2025-09-18T14:28:39.000Z</time></trkpt>
        <trkpt lat="29.5657146" lon="103.4342091"><ele>537</ele><time>2025-09-18T14:28:49.000Z</time></trkpt>
        <trkpt lat="29.5657298" lon="103.4341006"><ele>540.24</ele><time>2025-09-18T14:28:57.000Z</time></trkpt>
        <trkpt lat="29.5657072" lon="103.4339955"><ele>542.59</ele><time>2025-09-18T14:29:05.000Z</time></trkpt>
        <trkpt lat="29.565683" lon="103.4338795"><ele>545.38</ele><time>2025-09-18T14:29:15.000Z</time></trkpt>
        <trkpt lat="29.5656855" lon="103.4337589"><ele>548.65</ele><time>2025-09-18T14:29:25.000Z</time></trkpt>
        <trkpt lat="29.5657136" lon="103.4336374"><ele>550.06</ele><time>2025-09-18T14:29:33.000Z</time></trkpt>
        <trkpt lat="29.5657284" lon="103.4335168"><ele>550.96</ele><time>2025-09-18T14:29:41.000Z</time></trkpt>
        <trkpt lat="29.5657292" lon="103.4334012"><ele>550.51</ele><time>2025-09-18T14:29:49.000Z</time></trkpt>
        <trkpt lat="29.5657107" lon="103.4332885"><ele>550.28</ele><time>2025-09-18T14:29:57.000Z</time></trkpt>
        <trkpt lat="29.5657012" lon="103.4331699"><ele>550.34</ele><time>2025-09-18T14:30:05.000Z</time></trkpt>
        <trkpt lat="29.5657082" lon="103.4330546"><ele>551.41</ele><time>2025-09-18T14:30:13.000Z</time></trkpt>
        <trkpt lat="29.5656813" lon="103.4329455"><ele>552.74</ele><time>2025-09-18T14:30:21.000Z</time></trkpt>
        <trkpt lat="29.5656365" lon="103.4328521"><ele>553.59</ele><time>2025-09-18T14:30:27.000Z</time></trkpt>
        <trkpt lat="29.5655866" lon="103.4327559"><ele>554.18</ele><time>2025-09-18T14:30:35.000Z</time></trkpt>
        <trkpt lat="29.5655428" lon="103.4326471"><ele>554.56</ele><time>2025-09-18T14:30:43.000Z</time></trkpt>
        <trkpt lat="29.5655049" lon="103.432538"><ele>554.7</ele><time>2025-09-18T14:30:51.000Z</time></trkpt>
        <trkpt lat="29.5654766" lon="103.4324349"><ele>556.36</ele><time>2025-09-18T14:30:59.000Z</time></trkpt>
        <trkpt lat="29.5654442" lon="103.4323371"><ele>556.81</ele><time>2025-09-18T14:31:07.000Z</time></trkpt>
        <trkpt lat="29.5653904" lon="103.4322282"><ele>556.51</ele><time>2025-09-18T14:31:15.000Z</time></trkpt>
        <trkpt lat="29.5653455" lon="103.4321155"><ele>558.04</ele><time>2025-09-18T14:31:23.000Z</time></trkpt>
        <trkpt lat="29.5652906" lon="103.4320215"><ele>558.39</ele><time>2025-09-18T14:31:31.000Z</time></trkpt>
        <trkpt lat="29.5652742" lon="103.4319164"><ele>558.93</ele><time>2025-09-18T14:31:39.000Z</time></trkpt>
        <trkpt lat="29.5653065" lon="103.4317987"><ele>560.08</ele><time>2025-09-18T14:31:47.000Z</time></trkpt>
        <trkpt lat="29.5653587" lon="103.4316872"><ele>561</ele><time>2025-09-18T14:31:55.000Z</time></trkpt>
        <trkpt lat="29.5653926" lon="103.4315728"><ele>563.05</ele><time>2025-09-18T14:32:05.000Z</time></trkpt>
        <trkpt lat="29.565429" lon="103.4314609"><ele>565.37</ele><time>2025-09-18T14:32:15.000Z</time></trkpt>
        <trkpt lat="29.5654427" lon="103.4313431"><ele>567.51</ele><time>2025-09-18T14:32:25.000Z</time></trkpt>
        <trkpt lat="29.5654678" lon="103.4312276"><ele>569.76</ele><time>2025-09-18T14:32:35.000Z</time></trkpt>
        <trkpt lat="29.5655072" lon="103.4311116"><ele>570.72</ele><time>2025-09-18T14:32:45.000Z</time></trkpt>
        <trkpt lat="29.5655005" lon="103.4310014"><ele>571.22</ele><time>2025-09-18T14:32:53.000Z</time></trkpt>
        <trkpt lat="29.5654344" lon="103.4309043"><ele>571.64</ele><time>2025-09-18T14:33:03.000Z</time></trkpt>
        <trkpt lat="29.5653656" lon="103.430799"><ele>574.05</ele><time>2025-09-18T14:33:13.000Z</time></trkpt>
        <trkpt lat="29.5653445" lon="103.4306775"><ele>573.58</ele><time>2025-09-18T14:33:21.000Z</time></trkpt>
        <trkpt lat="29.565319" lon="103.4305623"><ele>575.39</ele><time>2025-09-18T14:33:29.000Z</time></trkpt>
        <trkpt lat="29.5652958" lon="103.4304468"><ele>576.37</ele><time>2025-09-18T14:33:37.000Z</time></trkpt>
        <trkpt lat="29.5652862" lon="103.4303205"><ele>577.1</ele><time>2025-09-18T14:33:45.000Z</time></trkpt>
        <trkpt lat="29.5652789" lon="103.4301973"><ele>577.82</ele><time>2025-09-18T14:33:53.000Z</time></trkpt>
        <trkpt lat="29.5652731" lon="103.4300787"><ele>579.1</ele><time>2025-09-18T14:34:01.000Z</time></trkpt>
        <trkpt lat="29.5652467" lon="103.4299596"><ele>579.76</ele><time>2025-09-18T14:34:09.000Z</time></trkpt>
        <trkpt lat="29.5652053" lon="103.4298423"><ele>580.57</ele><time>2025-09-18T14:34:17.000Z</time></trkpt>
        <trkpt lat="29.5651569" lon="103.4297324"><ele>581.28</ele><time>2025-09-18T14:34:25.000Z</time></trkpt>
        <trkpt lat="29.5651118" lon="103.4296232"><ele>582.34</ele><time>2025-09-18T14:34:33.000Z</time></trkpt>
        <trkpt lat="29.5650602" lon="103.4295267"><ele>583.99</ele><time>2025-09-18T14:34:41.000Z</time></trkpt>
        <trkpt lat="29.5650173" lon="103.4294728"><ele>587.17</ele><time>2025-09-18T14:34:50.000Z</time></trkpt>
        <trkpt lat="29.5649609" lon="103.4293897"><ele>589.15</ele><time>2025-09-18T14:35:02.000Z</time></trkpt>
        <trkpt lat="29.5649354" lon="103.4292801"><ele>589.29</ele><time>2025-09-18T14:35:10.000Z</time></trkpt>
        <trkpt lat="29.5649295" lon="103.429168"><ele>588.2</ele><time>2025-09-18T14:35:18.000Z</time></trkpt>
        <trkpt lat="29.5649121" lon="103.4290553"><ele>587.52</ele><time>2025-09-18T14:35:26.000Z</time></trkpt>
        <trkpt lat="29.5648763" lon="103.4289485"><ele>586.59</ele><time>2025-09-18T14:35:32.000Z</time></trkpt>
        <trkpt lat="29.5648393" lon="103.4288259"><ele>586.31</ele><time>2025-09-18T14:35:40.000Z</time></trkpt>
        <trkpt lat="29.5648217" lon="103.4287077"><ele>585.88</ele><time>2025-09-18T14:35:48.000Z</time></trkpt>
        <trkpt lat="29.564823" lon="103.4285845"><ele>586.48</ele><time>2025-09-18T14:35:56.000Z</time></trkpt>
        <trkpt lat="29.5648335" lon="103.4284642"><ele>587.72</ele><time>2025-09-18T14:36:04.000Z</time></trkpt>
        <trkpt lat="29.5649041" lon="103.4283735"><ele>588.76</ele><time>2025-09-18T14:36:12.000Z</time></trkpt>
        <trkpt lat="29.5650025" lon="103.4283162"><ele>589.54</ele><time>2025-09-18T14:36:20.000Z</time></trkpt>
        <trkpt lat="29.5651017" lon="103.4282621"><ele>590.45</ele><time>2025-09-18T14:36:28.000Z</time></trkpt>
        <trkpt lat="29.5652001" lon="103.4282132"><ele>591</ele><time>2025-09-18T14:36:36.000Z</time></trkpt>
        <trkpt lat="29.5652941" lon="103.4281609"><ele>592.07</ele><time>2025-09-18T14:36:44.000Z</time></trkpt>
        <trkpt lat="29.5653706" lon="103.4280819"><ele>594.56</ele><time>2025-09-18T14:36:52.000Z</time></trkpt>
        <trkpt lat="29.565433" lon="103.4279894"><ele>595.66</ele><time>2025-09-18T14:37:00.000Z</time></trkpt>
        <trkpt lat="29.5654611" lon="103.4278846"><ele>596.44</ele><time>2025-09-18T14:37:08.000Z</time></trkpt>
        <trkpt lat="29.5654481" lon="103.4277791"><ele>597.58</ele><time>2025-09-18T14:37:16.000Z</time></trkpt>
        <trkpt lat="29.5654448" lon="103.4276579"><ele>598.35</ele><time>2025-09-18T14:37:24.000Z</time></trkpt>
        <trkpt lat="29.5654112" lon="103.427544"><ele>599.06</ele><time>2025-09-18T14:37:32.000Z</time></trkpt>
        <trkpt lat="29.5653775" lon="103.4274343"><ele>599.5</ele><time>2025-09-18T14:37:40.000Z</time></trkpt>
        <trkpt lat="29.5653486" lon="103.4273205"><ele>599.64</ele><time>2025-09-18T14:37:48.000Z</time></trkpt>
        <trkpt lat="29.5653104" lon="103.4272137"><ele>601.3</ele><time>2025-09-18T14:37:56.000Z</time></trkpt>
        <trkpt lat="29.5652497" lon="103.4271311"><ele>603.74</ele><time>2025-09-18T14:38:04.000Z</time></trkpt>
        <trkpt lat="29.5651722" lon="103.4270666"><ele>603.37</ele><time>2025-09-18T14:38:12.000Z</time></trkpt>
        <trkpt lat="29.5650818" lon="103.4270082"><ele>602.77</ele><time>2025-09-18T14:38:20.000Z</time></trkpt>
        <trkpt lat="29.5649824" lon="103.4269628"><ele>601.46</ele><time>2025-09-18T14:38:28.000Z</time></trkpt>
        <trkpt lat="29.5649164" lon="103.4269322"><ele>602.4</ele><time>2025-09-18T14:38:38.000Z</time></trkpt>
        <trkpt lat="29.5648786" lon="103.4268419"><ele>603.82</ele><time>2025-09-18T14:38:50.000Z</time></trkpt>
        <trkpt lat="29.5648972" lon="103.4267317"><ele>605.68</ele><time>2025-09-18T14:39:00.000Z</time></trkpt>
        <trkpt lat="29.5649281" lon="103.4266231"><ele>607.25</ele><time>2025-09-18T14:39:34.000Z</time></trkpt>
        <trkpt lat="29.5649731" lon="103.4265204"><ele>609.04</ele><time>2025-09-18T14:39:54.000Z</time></trkpt>
        <trkpt lat="29.5650011" lon="103.426413"><ele>612.54</ele><time>2025-09-18T14:40:22.000Z</time></trkpt>
        <trkpt lat="29.5650212" lon="103.426308"><ele>617.33</ele><time>2025-09-18T14:40:42.000Z</time></trkpt>
        <trkpt lat="29.5650554" lon="103.4262114"><ele>621.33</ele><time>2025-09-18T14:41:02.000Z</time></trkpt>
        <trkpt lat="29.565071" lon="103.4261051"><ele>625.88</ele><time>2025-09-18T14:41:30.000Z</time></trkpt>
        <trkpt lat="29.5650897" lon="103.4259997"><ele>629.38</ele><time>2025-09-18T14:41:50.000Z</time></trkpt>
        <trkpt lat="29.5651405" lon="103.4259151"><ele>633.29</ele><time>2025-09-18T14:42:12.000Z</time></trkpt>
        <trkpt lat="29.5651575" lon="103.4258172"><ele>637.33</ele><time>2025-09-18T14:42:42.000Z</time></trkpt>
        <trkpt lat="29.5652034" lon="103.4257215"><ele>641.68</ele><time>2025-09-18T14:43:42.000Z</time></trkpt>
        <trkpt lat="29.5651616" lon="103.4256297"><ele>648.3</ele><time>2025-09-18T14:43:54.000Z</time></trkpt>
        <trkpt lat="29.5651026" lon="103.4255429"><ele>649.88</ele><time>2025-09-18T14:44:02.000Z</time></trkpt>
        <trkpt lat="29.5650295" lon="103.4254571"><ele>650.94</ele><time>2025-09-18T14:44:12.000Z</time></trkpt>
        <trkpt lat="29.5649528" lon="103.4253606"><ele>651.96</ele><time>2025-09-18T14:44:22.000Z</time></trkpt>
        <trkpt lat="29.5648651" lon="103.4252754"><ele>649.3</ele><time>2025-09-18T14:44:32.000Z</time></trkpt>
        <trkpt lat="29.5648073" lon="103.4251856"><ele>647.39</ele><time>2025-09-18T14:44:42.000Z</time></trkpt>
        <trkpt lat="29.5647546" lon="103.4251005"><ele>647.92</ele><time>2025-09-18T14:44:56.000Z</time></trkpt>
        <trkpt lat="29.5647409" lon="103.4249985"><ele>649.62</ele><time>2025-09-18T14:45:10.000Z</time></trkpt>
        <trkpt lat="29.5646918" lon="103.4249081"><ele>650.21</ele><time>2025-09-18T14:45:20.000Z</time></trkpt>
        <trkpt lat="29.5646542" lon="103.424812"><ele>652.34</ele><time>2025-09-18T14:45:32.000Z</time></trkpt>
        <trkpt lat="29.5646368" lon="103.4247013"><ele>653.52</ele><time>2025-09-18T14:45:44.000Z</time></trkpt>
        <trkpt lat="29.5646173" lon="103.4245903"><ele>656.54</ele><time>2025-09-18T14:45:58.000Z</time></trkpt>
        <trkpt lat="29.5646005" lon="103.4244712"><ele>659.59</ele><time>2025-09-18T14:46:10.000Z</time></trkpt>
        <trkpt lat="29.5645858" lon="103.4243571"><ele>661.57</ele><time>2025-09-18T14:46:18.000Z</time></trkpt>
        <trkpt lat="29.5645645" lon="103.4242436"><ele>662.9</ele><time>2025-09-18T14:46:36.000Z</time></trkpt>
        <trkpt lat="29.5645262" lon="103.4241473"><ele>665.88</ele><time>2025-09-18T14:47:06.000Z</time></trkpt>
        <trkpt lat="29.5644913" lon="103.4240507"><ele>670.61</ele><time>2025-09-18T14:47:22.000Z</time></trkpt>
        <trkpt lat="29.5644455" lon="103.4239584"><ele>672.9</ele><time>2025-09-18T14:47:38.000Z</time></trkpt>
        <trkpt lat="29.5643727" lon="103.4238929"><ele>675.32</ele><time>2025-09-18T14:47:48.000Z</time></trkpt>
        <trkpt lat="29.5643421" lon="103.4237907"><ele>675.74</ele><time>2025-09-18T14:48:02.000Z</time></trkpt>
        <trkpt lat="29.5643189" lon="103.4236846"><ele>677.99</ele><time>2025-09-18T14:48:16.000Z</time></trkpt>
        <trkpt lat="29.5643412" lon="103.423572"><ele>681.23</ele><time>2025-09-18T14:48:30.000Z</time></trkpt>
        <trkpt lat="29.5643781" lon="103.4234638"><ele>688.03</ele><time>2025-09-18T14:48:42.000Z</time></trkpt>
        <trkpt lat="29.5644253" lon="103.4233584"><ele>691.03</ele><time>2025-09-18T14:48:56.000Z</time></trkpt>
        <trkpt lat="29.5644774" lon="103.4232609"><ele>693.67</ele><time>2025-09-18T14:49:12.000Z</time></trkpt>
        <trkpt lat="29.5644544" lon="103.4231628"><ele>697.42</ele><time>2025-09-18T14:49:28.000Z</time></trkpt>
        <trkpt lat="29.5644541" lon="103.4230555"><ele>702.13</ele><time>2025-09-18T14:49:48.000Z</time></trkpt>
        <trkpt lat="29.5644265" lon="103.4229543"><ele>707.37</ele><time>2025-09-18T14:50:02.000Z</time></trkpt>
        <trkpt lat="29.5644254" lon="103.4228508"><ele>709.95</ele><time>2025-09-18T14:50:16.000Z</time></trkpt>
        <trkpt lat="29.5644177" lon="103.4227412"><ele>711.55</ele><time>2025-09-18T14:50:34.000Z</time></trkpt>
        <trkpt lat="29.5643853" lon="103.4226325"><ele>715.39</ele><time>2025-09-18T14:50:46.000Z</time></trkpt>
        <trkpt lat="29.5644075" lon="103.422532"><ele>717.15</ele><time>2025-09-18T14:50:58.000Z</time></trkpt>
        <trkpt lat="29.5643889" lon="103.4224289"><ele>718.42</ele><time>2025-09-18T14:51:22.000Z</time></trkpt>
        <trkpt lat="29.5644031" lon="103.422328"><ele>719.76</ele><time>2025-09-18T14:51:42.000Z</time></trkpt>
        <trkpt lat="29.5643812" lon="103.4222326"><ele>721.33</ele><time>2025-09-18T14:51:58.000Z</time></trkpt>
        <trkpt lat="29.5643752" lon="103.4221231"><ele>723.6</ele><time>2025-09-18T14:52:12.000Z</time></trkpt>
        <trkpt lat="29.5643445" lon="103.4220199"><ele>725.41</ele><time>2025-09-18T14:52:36.000Z</time></trkpt>
        <trkpt lat="29.5643188" lon="103.4219131"><ele>729.9</ele><time>2025-09-18T14:52:56.000Z</time></trkpt>
        <trkpt lat="29.5643331" lon="103.4218087"><ele>731.68</ele><time>2025-09-18T14:53:12.000Z</time></trkpt>
        <trkpt lat="29.5643373" lon="103.4216996"><ele>735.48</ele><time>2025-09-18T14:53:46.000Z</time></trkpt>
        <trkpt lat="29.5643063" lon="103.4215953"><ele>739.91</ele><time>2025-09-18T14:54:10.000Z</time></trkpt>
        <trkpt lat="29.5642883" lon="103.4214827"><ele>746.17</ele><time>2025-09-18T14:54:30.000Z</time></trkpt>
        <trkpt lat="29.5642488" lon="103.4213853"><ele>751.67</ele><time>2025-09-18T14:54:44.000Z</time></trkpt>
        <trkpt lat="29.564294" lon="103.4212947"><ele>753.65</ele><time>2025-09-18T14:54:56.000Z</time></trkpt>
        <trkpt lat="29.5643913" lon="103.4212577"><ele>754.66</ele><time>2025-09-18T14:55:06.000Z</time></trkpt>
        <trkpt lat="29.5644731" lon="103.4211976"><ele>754.71</ele><time>2025-09-18T14:55:18.000Z</time></trkpt>
        <trkpt lat="29.5645759" lon="103.4211684"><ele>755.76</ele><time>2025-09-18T14:55:30.000Z</time></trkpt>
        <trkpt lat="29.564643" lon="103.4210899"><ele>758.54</ele><time>2025-09-18T14:55:46.000Z</time></trkpt>
        <trkpt lat="29.5647166" lon="103.4211116"><ele>763.17</ele><time>2025-09-18T14:55:58.000Z</time></trkpt>
        <trkpt lat="29.5647863" lon="103.4211801"><ele>765.36</ele><time>2025-09-18T14:56:08.000Z</time></trkpt>
        <trkpt lat="29.5648571" lon="103.4212703"><ele>767.41</ele><time>2025-09-18T14:56:22.000Z</time></trkpt>
        <trkpt lat="29.5649224" lon="103.4213632"><ele>768.66</ele><time>2025-09-18T14:56:38.000Z</time></trkpt>
        <trkpt lat="29.5649993" lon="103.4213531"><ele>770.84</ele><time>2025-09-18T14:56:54.000Z</time></trkpt>
        <trkpt lat="29.5650888" lon="103.4213241"><ele>771.35</ele><time>2025-09-18T14:57:22.000Z</time></trkpt>
        <trkpt lat="29.5651797" lon="103.4212758"><ele>774.21</ele><time>2025-09-18T14:57:42.000Z</time></trkpt>
        <trkpt lat="29.5652631" lon="103.4212127"><ele>777.56</ele><time>2025-09-18T14:58:04.000Z</time></trkpt>
        <trkpt lat="29.5653549" lon="103.4211947"><ele>781.35</ele><time>2025-09-18T14:58:22.000Z</time></trkpt>
        <trkpt lat="29.5654295" lon="103.4211367"><ele>785.5</ele><time>2025-09-18T15:02:40.000Z</time></trkpt>
        <trkpt lat="29.5655071" lon="103.4210838"><ele>787.85</ele><time>2025-09-18T15:02:48.000Z</time></trkpt>
        <trkpt lat="29.5655995" lon="103.4210388"><ele>788.32</ele><time>2025-09-18T15:02:58.000Z</time></trkpt>
        <trkpt lat="29.5656994" lon="103.4210223"><ele>788.17</ele><time>2025-09-18T15:03:06.000Z</time></trkpt>
        <trkpt lat="29.5657975" lon="103.421024"><ele>787.67</ele><time>2025-09-18T15:03:14.000Z</time></trkpt>
        <trkpt lat="29.5658869" lon="103.4210573"><ele>787.57</ele><time>2025-09-18T15:03:22.000Z</time></trkpt>
        <trkpt lat="29.5659798" lon="103.4210885"><ele>787.66</ele><time>2025-09-18T15:03:32.000Z</time></trkpt>
        <trkpt lat="29.5660772" lon="103.4211148"><ele>787.96</ele><time>2025-09-18T15:03:48.000Z</time></trkpt>
        <trkpt lat="29.56617" lon="103.4211054"><ele>791.99</ele><time>2025-09-18T15:04:00.000Z</time></trkpt>
        <trkpt lat="29.5662205" lon="103.4210264"><ele>796.11</ele><time>2025-09-18T15:04:12.000Z</time></trkpt>
        <trkpt lat="29.5662518" lon="103.4209092"><ele>799.98</ele><time>2025-09-18T15:04:22.000Z</time></trkpt>
        <trkpt lat="29.5662793" lon="103.4207878"><ele>801.19</ele><time>2025-09-18T15:04:32.000Z</time></trkpt>
        <trkpt lat="29.5663042" lon="103.4206776"><ele>801.41</ele><time>2025-09-18T15:04:40.000Z</time></trkpt>
        <trkpt lat="29.5663309" lon="103.4205505"><ele>801.21</ele><time>2025-09-18T15:04:48.000Z</time></trkpt>
        <trkpt lat="29.5663679" lon="103.4204442"><ele>802.17</ele><time>2025-09-18T15:04:56.000Z</time></trkpt>
        <trkpt lat="29.5664222" lon="103.4203579"><ele>802.99</ele><time>2025-09-18T15:05:04.000Z</time></trkpt>
        <trkpt lat="29.5664837" lon="103.4202577"><ele>802.45</ele><time>2025-09-18T15:05:12.000Z</time></trkpt>
        <trkpt lat="29.5665414" lon="103.4201616"><ele>801.63</ele><time>2025-09-18T15:05:20.000Z</time></trkpt>
        <trkpt lat="29.5666044" lon="103.420078"><ele>801.06</ele><time>2025-09-18T15:05:28.000Z</time></trkpt>
        <trkpt lat="29.5666356" lon="103.419973"><ele>801.56</ele><time>2025-09-18T15:05:36.000Z</time></trkpt>
        <trkpt lat="29.5666735" lon="103.4198656"><ele>803.69</ele><time>2025-09-18T15:05:46.000Z</time></trkpt>
        <trkpt lat="29.5667536" lon="103.4198475"><ele>805.09</ele><time>2025-09-18T15:05:56.000Z</time></trkpt>
        <trkpt lat="29.5668508" lon="103.4198636"><ele>806.52</ele><time>2025-09-18T15:06:16.000Z</time></trkpt>
        <trkpt lat="29.5669271" lon="103.4199416"><ele>808.67</ele><time>2025-09-18T15:06:34.000Z</time></trkpt>
        <trkpt lat="29.5670035" lon="103.4200349"><ele>809.71</ele><time>2025-09-18T15:07:04.000Z</time></trkpt>
        <trkpt lat="29.567016" lon="103.4201446"><ele>812.52</ele><time>2025-09-18T15:07:16.000Z</time></trkpt>
        <trkpt lat="29.5670279" lon="103.4202607"><ele>815.03</ele><time>2025-09-18T15:07:26.000Z</time></trkpt>
        <trkpt lat="29.5670787" lon="103.4203558"><ele>816.33</ele><time>2025-09-18T15:07:42.000Z</time></trkpt>
        <trkpt lat="29.5671371" lon="103.4204497"><ele>818.01</ele><time>2025-09-18T15:07:56.000Z</time></trkpt>
        <trkpt lat="29.5672273" lon="103.4204921"><ele>820.12</ele><time>2025-09-18T15:08:10.000Z</time></trkpt>
        <trkpt lat="29.5673253" lon="103.4204945"><ele>821.04</ele><time>2025-09-18T15:08:28.000Z</time></trkpt>
        <trkpt lat="29.5674204" lon="103.4204789"><ele>822.32</ele><time>2025-09-18T15:08:46.000Z</time></trkpt>
        <trkpt lat="29.5674998" lon="103.4204113"><ele>824.49</ele><time>2025-09-18T15:09:08.000Z</time></trkpt>
        <trkpt lat="29.567584" lon="103.4203381"><ele>828.65</ele><time>2025-09-18T15:09:32.000Z</time></trkpt>
        <trkpt lat="29.5676785" lon="103.4203049"><ele>834.86</ele><time>2025-09-18T15:09:48.000Z</time></trkpt>
        <trkpt lat="29.5677621" lon="103.4202548"><ele>838.11</ele><time>2025-09-18T15:10:04.000Z</time></trkpt>
        <trkpt lat="29.567827" lon="103.4201781"><ele>842.06</ele><time>2025-09-18T15:10:20.000Z</time></trkpt>
        <trkpt lat="29.5679049" lon="103.4201224"><ele>846.39</ele><time>2025-09-18T15:10:34.000Z</time></trkpt>
        <trkpt lat="29.5679945" lon="103.4200847"><ele>850.16</ele><time>2025-09-18T15:11:00.000Z</time></trkpt>
        <trkpt lat="29.5680897" lon="103.4200674"><ele>854.53</ele><time>2025-09-18T15:11:22.000Z</time></trkpt>
        <trkpt lat="29.5681839" lon="103.4200528"><ele>858.7</ele><time>2025-09-18T15:11:42.000Z</time></trkpt>
        <trkpt lat="29.5682822" lon="103.4200438"><ele>862.61</ele><time>2025-09-18T15:12:02.000Z</time></trkpt>
        <trkpt lat="29.5683751" lon="103.420033"><ele>864.68</ele><time>2025-09-18T15:12:20.000Z</time></trkpt>
        <trkpt lat="29.5684656" lon="103.4200234"><ele>867.76</ele><time>2025-09-18T15:12:44.000Z</time></trkpt>
        <trkpt lat="29.5685577" lon="103.4200162"><ele>872.64</ele><time>2025-09-18T15:13:06.000Z</time></trkpt>
        <trkpt lat="29.5686531" lon="103.4200018"><ele>876.7</ele><time>2025-09-18T15:13:26.000Z</time></trkpt>
        <trkpt lat="29.5687509" lon="103.4199934"><ele>881.96</ele><time>2025-09-18T15:13:44.000Z</time></trkpt>
        <trkpt lat="29.5688325" lon="103.4199385"><ele>884.54</ele><time>2025-09-18T15:13:54.000Z</time></trkpt>
        <trkpt lat="29.5689317" lon="103.4198929"><ele>887.13</ele><time>2025-09-18T15:14:10.000Z</time></trkpt>
        <trkpt lat="29.569023" lon="103.4198553"><ele>888.17</ele><time>2025-09-18T15:14:18.000Z</time></trkpt>
        <trkpt lat="29.5691227" lon="103.4198266"><ele>889.83</ele><time>2025-09-18T15:14:26.000Z</time></trkpt>
        <trkpt lat="29.5692131" lon="103.4197823"><ele>890.92</ele><time>2025-09-18T15:14:34.000Z</time></trkpt>
        <trkpt lat="29.5693007" lon="103.4197132"><ele>891.03</ele><time>2025-09-18T15:14:46.000Z</time></trkpt>
        <trkpt lat="29.5693865" lon="103.4196547"><ele>890.88</ele><time>2025-09-18T15:14:58.000Z</time></trkpt>
        <trkpt lat="29.5694739" lon="103.4196012"><ele>891</ele><time>2025-09-18T15:15:06.000Z</time></trkpt>
        <trkpt lat="29.5695555" lon="103.4195339"><ele>889.96</ele><time>2025-09-18T15:15:14.000Z</time></trkpt>
        <trkpt lat="29.5696141" lon="103.4194517"><ele>889.16</ele><time>2025-09-18T15:15:22.000Z</time></trkpt>
        <trkpt lat="29.5696681" lon="103.419363"><ele>888.84</ele><time>2025-09-18T15:15:30.000Z</time></trkpt>
        <trkpt lat="29.5697188" lon="103.4192689"><ele>888.27</ele><time>2025-09-18T15:15:38.000Z</time></trkpt>
        <trkpt lat="29.5697551" lon="103.4191707"><ele>886.72</ele><time>2025-09-18T15:15:46.000Z</time></trkpt>
        <trkpt lat="29.5697425" lon="103.4190655"><ele>886.55</ele><time>2025-09-18T15:15:54.000Z</time></trkpt>
        <trkpt lat="29.5697341" lon="103.4189499"><ele>886.48</ele><time>2025-09-18T15:16:02.000Z</time></trkpt>
        <trkpt lat="29.5697346" lon="103.4188263"><ele>885.63</ele><time>2025-09-18T15:16:12.000Z</time></trkpt>
        <trkpt lat="29.5697536" lon="103.4187092"><ele>884.51</ele><time>2025-09-18T15:16:20.000Z</time></trkpt>
        <trkpt lat="29.569782" lon="103.4186055"><ele>884.81</ele><time>2025-09-18T15:16:28.000Z</time></trkpt>
        <trkpt lat="29.5697969" lon="103.4184817"><ele>885.15</ele><time>2025-09-18T15:16:36.000Z</time></trkpt>
        <trkpt lat="29.5697973" lon="103.4183559"><ele>884.74</ele><time>2025-09-18T15:16:46.000Z</time></trkpt>
        <trkpt lat="29.5697771" lon="103.4182368"><ele>883.9</ele><time>2025-09-18T15:16:56.000Z</time></trkpt>
        <trkpt lat="29.5697844" lon="103.4181142"><ele>883.41</ele><time>2025-09-18T15:17:06.000Z</time></trkpt>
        <trkpt lat="29.5698456" lon="103.4180128"><ele>883.32</ele><time>2025-09-18T15:17:14.000Z</time></trkpt>
        <trkpt lat="29.5699082" lon="103.4179088"><ele>882.99</ele><time>2025-09-18T15:17:22.000Z</time></trkpt>
        <trkpt lat="29.5699512" lon="103.417803"><ele>882.13</ele><time>2025-09-18T15:17:30.000Z</time></trkpt>
        <trkpt lat="29.5699821" lon="103.4176945"><ele>880.55</ele><time>2025-09-18T15:17:38.000Z</time></trkpt>
        <trkpt lat="29.5699822" lon="103.4175702"><ele>879.58</ele><time>2025-09-18T15:17:48.000Z</time></trkpt>
        <trkpt lat="29.5699627" lon="103.4174533"><ele>878.8</ele><time>2025-09-18T15:17:56.000Z</time></trkpt>
        <trkpt lat="29.5699719" lon="103.417336"><ele>878.57</ele><time>2025-09-18T15:18:04.000Z</time></trkpt>
        <trkpt lat="29.5699891" lon="103.4172223"><ele>879.7</ele><time>2025-09-18T15:18:12.000Z</time></trkpt>
        <trkpt lat="29.5700122" lon="103.4171091"><ele>877.97</ele><time>2025-09-18T15:18:20.000Z</time></trkpt>
        <trkpt lat="29.5700899" lon="103.4170232"><ele>876.14</ele><time>2025-09-18T15:18:28.000Z</time></trkpt>
        <trkpt lat="29.5701825" lon="103.4169877"><ele>874.89</ele><time>2025-09-18T15:18:34.000Z</time></trkpt>
        <trkpt lat="29.5702882" lon="103.4169806"><ele>874.71</ele><time>2025-09-18T15:18:42.000Z</time></trkpt>
        <trkpt lat="29.5703386" lon="103.4168974"><ele>874.59</ele><time>2025-09-18T15:18:54.000Z</time></trkpt>
        <trkpt lat="29.5703242" lon="103.4167877"><ele>874.1</ele><time>2025-09-18T15:19:04.000Z</time></trkpt>
        <trkpt lat="29.5703302" lon="103.4166615"><ele>873.94</ele><time>2025-09-18T15:19:12.000Z</time></trkpt>
        <trkpt lat="29.5703406" lon="103.4165433"><ele>875.13</ele><time>2025-09-18T15:19:22.000Z</time></trkpt>
        <trkpt lat="29.5703416" lon="103.4164276"><ele>877.38</ele><time>2025-09-18T15:19:30.000Z</time></trkpt>
        <trkpt lat="29.5703971" lon="103.4163211"><ele>877.62</ele><time>2025-09-18T15:19:42.000Z</time></trkpt>
        <trkpt lat="29.5704569" lon="103.4162228"><ele>878.47</ele><time>2025-09-18T15:19:50.000Z</time></trkpt>
        <trkpt lat="29.5705173" lon="103.4161294"><ele>879.11</ele><time>2025-09-18T15:19:58.000Z</time></trkpt>
        <trkpt lat="29.5705946" lon="103.4160558"><ele>878.07</ele><time>2025-09-18T15:20:08.000Z</time></trkpt>
        <trkpt lat="29.5706864" lon="103.4160357"><ele>877.39</ele><time>2025-09-18T15:20:22.000Z</time></trkpt>
        <trkpt lat="29.570739" lon="103.4159639"><ele>877.84</ele><time>2025-09-18T15:20:42.000Z</time></trkpt>
        <trkpt lat="29.5706799" lon="103.4158902"><ele>880.61</ele><time>2025-09-18T15:20:54.000Z</time></trkpt>
        <trkpt lat="29.5705916" lon="103.4158109"><ele>881.98</ele><time>2025-09-18T15:21:02.000Z</time></trkpt>
        <trkpt lat="29.5704884" lon="103.4157714"><ele>882.78</ele><time>2025-09-18T15:21:10.000Z</time></trkpt>
        <trkpt lat="29.5704032" lon="103.4156886"><ele>883.3</ele><time>2025-09-18T15:21:24.000Z</time></trkpt>
        <trkpt lat="29.5703239" lon="103.4156179"><ele>882.69</ele><time>2025-09-18T15:21:32.000Z</time></trkpt>
        <trkpt lat="29.5702401" lon="103.4155628"><ele>881.99</ele><time>2025-09-18T15:21:40.000Z</time></trkpt>
        <trkpt lat="29.5701357" lon="103.4155496"><ele>881.57</ele><time>2025-09-18T15:21:52.000Z</time></trkpt>
        <trkpt lat="29.57004" lon="103.415512"><ele>883.24</ele><time>2025-09-18T15:22:04.000Z</time></trkpt>
        <trkpt lat="29.5699653" lon="103.4154384"><ele>885.73</ele><time>2025-09-18T15:22:14.000Z</time></trkpt>
        <trkpt lat="29.5698997" lon="103.4153409"><ele>888.83</ele><time>2025-09-18T15:22:24.000Z</time></trkpt>
        <trkpt lat="29.5698605" lon="103.4152382"><ele>890.94</ele><time>2025-09-18T15:22:32.000Z</time></trkpt>
        <trkpt lat="29.5698566" lon="103.4151308"><ele>890.63</ele><time>2025-09-18T15:22:40.000Z</time></trkpt>
        <trkpt lat="29.5698521" lon="103.4150213"><ele>890.06</ele><time>2025-09-18T15:22:48.000Z</time></trkpt>
        <trkpt lat="29.5698168" lon="103.4149193"><ele>889.15</ele><time>2025-09-18T15:22:56.000Z</time></trkpt>
        <trkpt lat="29.5697586" lon="103.4148363"><ele>888.12</ele><time>2025-09-18T15:23:04.000Z</time></trkpt>
        <trkpt lat="29.569689" lon="103.4147666"><ele>887.22</ele><time>2025-09-18T15:23:12.000Z</time></trkpt>
        <trkpt lat="29.5695925" lon="103.4147375"><ele>886.64</ele><time>2025-09-18T15:23:22.000Z</time></trkpt>
        <trkpt lat="29.5695352" lon="103.414753"><ele>886.36</ele><time>2025-09-18T15:23:30.000Z</time></trkpt>
        <trkpt lat="29.569451" lon="103.4147864"><ele>886.26</ele><time>2025-09-18T15:23:42.000Z</time></trkpt>
        <trkpt lat="29.5693506" lon="103.4148226"><ele>885.93</ele><time>2025-09-18T15:23:52.000Z</time></trkpt>
        <trkpt lat="29.5692454" lon="103.4148418"><ele>885.7</ele><time>2025-09-18T15:24:00.000Z</time></trkpt>
        <trkpt lat="29.5691409" lon="103.4148375"><ele>883.64</ele><time>2025-09-18T15:24:12.000Z</time></trkpt>
        <trkpt lat="29.5690675" lon="103.4148916"><ele>883.43</ele><time>2025-09-18T15:24:24.000Z</time></trkpt>
        <trkpt lat="29.5690352" lon="103.4148246"><ele>884.21</ele><time>2025-09-18T15:24:36.000Z</time></trkpt>
        <trkpt lat="29.5691008" lon="103.4147616"><ele>885.31</ele><time>2025-09-18T15:24:50.000Z</time></trkpt>
        <trkpt lat="29.5691082" lon="103.4146489"><ele>884.72</ele><time>2025-09-18T15:25:00.000Z</time></trkpt>
        <trkpt lat="29.5690891" lon="103.4145296"><ele>884.25</ele><time>2025-09-18T15:25:08.000Z</time></trkpt>
        <trkpt lat="29.5690788" lon="103.4144079"><ele>884.03</ele><time>2025-09-18T15:25:16.000Z</time></trkpt>
        <trkpt lat="29.5691061" lon="103.4142879"><ele>883.81</ele><time>2025-09-18T15:25:24.000Z</time></trkpt>
        <trkpt lat="29.5691018" lon="103.4141632"><ele>883.38</ele><time>2025-09-18T15:25:32.000Z</time></trkpt>
        <trkpt lat="29.5690885" lon="103.4140441"><ele>883.09</ele><time>2025-09-18T15:25:40.000Z</time></trkpt>
        <trkpt lat="29.5691207" lon="103.4139348"><ele>883.41</ele><time>2025-09-18T15:25:48.000Z</time></trkpt>
        <trkpt lat="29.5691463" lon="103.4138287"><ele>882.98</ele><time>2025-09-18T15:25:58.000Z</time></trkpt>
        <trkpt lat="29.5691013" lon="103.4137493"><ele>882.84</ele><time>2025-09-18T15:26:06.000Z</time></trkpt>
        <trkpt lat="29.5690489" lon="103.4136619"><ele>881.67</ele><time>2025-09-18T15:26:14.000Z</time></trkpt>
        <trkpt lat="29.5689904" lon="103.4135699"><ele>880.51</ele><time>2025-09-18T15:26:22.000Z</time></trkpt>
        <trkpt lat="29.5689471" lon="103.4134626"><ele>878.64</ele><time>2025-09-18T15:26:30.000Z</time></trkpt>
        <trkpt lat="29.5689328" lon="103.4133498"><ele>875.73</ele><time>2025-09-18T15:26:38.000Z</time></trkpt>
        <trkpt lat="29.5689243" lon="103.4132393"><ele>873.56</ele><time>2025-09-18T15:26:48.000Z</time></trkpt>
        <trkpt lat="29.5689593" lon="103.4131333"><ele>873.21</ele><time>2025-09-18T15:26:56.000Z</time></trkpt>
        <trkpt lat="29.5690235" lon="103.4130176"><ele>871.77</ele><time>2025-09-18T15:27:04.000Z</time></trkpt>
        <trkpt lat="29.5690986" lon="103.4129151"><ele>870.68</ele><time>2025-09-18T15:27:12.000Z</time></trkpt>
        <trkpt lat="29.5691762" lon="103.4128357"><ele>870.99</ele><time>2025-09-18T15:27:20.000Z</time></trkpt>
        <trkpt lat="29.5692495" lon="103.4127476"><ele>871.11</ele><time>2025-09-18T15:27:28.000Z</time></trkpt>
        <trkpt lat="29.5693362" lon="103.4126736"><ele>871.87</ele><time>2025-09-18T15:27:36.000Z</time></trkpt>
        <trkpt lat="29.5693155" lon="103.4125826"><ele>872.2</ele><time>2025-09-18T15:27:50.000Z</time></trkpt>
        <trkpt lat="29.5693305" lon="103.4124784"><ele>873.25</ele><time>2025-09-18T15:27:58.000Z</time></trkpt>
        <trkpt lat="29.5693136" lon="103.4123642"><ele>874.9</ele><time>2025-09-18T15:28:12.000Z</time></trkpt>
        <trkpt lat="29.5693123" lon="103.4122426"><ele>876.23</ele><time>2025-09-18T15:28:24.000Z</time></trkpt>
        <trkpt lat="29.5692558" lon="103.4121563"><ele>875.17</ele><time>2025-09-18T15:28:48.000Z</time></trkpt>
        <trkpt lat="29.5691593" lon="103.4121543"><ele>872.25</ele><time>2025-09-18T15:29:00.000Z</time></trkpt>
        <trkpt lat="29.5690593" lon="103.412171"><ele>869.63</ele><time>2025-09-18T15:29:14.000Z</time></trkpt>
        <trkpt lat="29.5689881" lon="103.4121144"><ele>867.62</ele><time>2025-09-18T15:29:24.000Z</time></trkpt>
        <trkpt lat="29.5689094" lon="103.4120414"><ele>864.71</ele><time>2025-09-18T15:29:36.000Z</time></trkpt>
        <trkpt lat="29.5688489" lon="103.4119333"><ele>864.02</ele><time>2025-09-18T15:29:48.000Z</time></trkpt>
        <trkpt lat="29.5687648" lon="103.4118769"><ele>861.44</ele><time>2025-09-18T15:29:58.000Z</time></trkpt>
        <trkpt lat="29.568673" lon="103.411834"><ele>858.2</ele><time>2025-09-18T15:30:08.000Z</time></trkpt>
        <trkpt lat="29.5685805" lon="103.4117994"><ele>855.91</ele><time>2025-09-18T15:30:20.000Z</time></trkpt>
        <trkpt lat="29.5684953" lon="103.4117432"><ele>855.29</ele><time>2025-09-18T15:30:40.000Z</time></trkpt>
        <trkpt lat="29.5684212" lon="103.4116707"><ele>855.45</ele><time>2025-09-18T15:30:54.000Z</time></trkpt>
        <trkpt lat="29.5683506" lon="103.411593"><ele>852.1</ele><time>2025-09-18T15:31:02.000Z</time></trkpt>
        <trkpt lat="29.5683335" lon="103.4114751"><ele>848.32</ele><time>2025-09-18T15:31:12.000Z</time></trkpt>
        <trkpt lat="29.5683644" lon="103.411344"><ele>844.48</ele><time>2025-09-18T15:31:22.000Z</time></trkpt>
        <trkpt lat="29.5684164" lon="103.4112164"><ele>841.65</ele><time>2025-09-18T15:31:30.000Z</time></trkpt>
        <trkpt lat="29.5684506" lon="103.411092"><ele>839.79</ele><time>2025-09-18T15:31:38.000Z</time></trkpt>
        <trkpt lat="29.5684742" lon="103.4109782"><ele>838.5</ele><time>2025-09-18T15:31:46.000Z</time></trkpt>
        <trkpt lat="29.5685075" lon="103.4108642"><ele>837.42</ele><time>2025-09-18T15:31:54.000Z</time></trkpt>
        <trkpt lat="29.5685436" lon="103.4107582"><ele>836.73</ele><time>2025-09-18T15:32:02.000Z</time></trkpt>
        <trkpt lat="29.5685859" lon="103.4106618"><ele>836.26</ele><time>2025-09-18T15:32:10.000Z</time></trkpt>
        <trkpt lat="29.5686114" lon="103.4105524"><ele>836.06</ele><time>2025-09-18T15:32:18.000Z</time></trkpt>
        <trkpt lat="29.5686247" lon="103.4104453"><ele>836.83</ele><time>2025-09-18T15:32:26.000Z</time></trkpt>
        <trkpt lat="29.5686198" lon="103.4103343"><ele>836.39</ele><time>2025-09-18T15:32:34.000Z</time></trkpt>
        <trkpt lat="29.5686053" lon="103.4102077"><ele>835.08</ele><time>2025-09-18T15:32:42.000Z</time></trkpt>
        <trkpt lat="29.5686009" lon="103.4100769"><ele>834.73</ele><time>2025-09-18T15:32:50.000Z</time></trkpt>
        <trkpt lat="29.5685488" lon="103.4099805"><ele>834.1</ele><time>2025-09-18T15:32:58.000Z</time></trkpt>
        <trkpt lat="29.5684652" lon="103.4099191"><ele>833.22</ele><time>2025-09-18T15:33:06.000Z</time></trkpt>
        <trkpt lat="29.5683665" lon="103.4098843"><ele>833.29</ele><time>2025-09-18T15:33:16.000Z</time></trkpt>
        <trkpt lat="29.5683144" lon="103.4098043"><ele>832.13</ele><time>2025-09-18T15:33:26.000Z</time></trkpt>
        <trkpt lat="29.568245" lon="103.4097163"><ele>832.18</ele><time>2025-09-18T15:33:38.000Z</time></trkpt>
        <trkpt lat="29.5681895" lon="103.4096093"><ele>831.72</ele><time>2025-09-18T15:33:50.000Z</time></trkpt>
        <trkpt lat="29.5681875" lon="103.4095021"><ele>830.78</ele><time>2025-09-18T15:34:08.000Z</time></trkpt>
        <trkpt lat="29.5681494" lon="103.4093991"><ele>826.16</ele><time>2025-09-18T15:34:24.000Z</time></trkpt>
        <trkpt lat="29.568074" lon="103.4093163"><ele>823.61</ele><time>2025-09-18T15:34:36.000Z</time></trkpt>
        <trkpt lat="29.5679989" lon="103.4092465"><ele>821.27</ele><time>2025-09-18T15:34:46.000Z</time></trkpt>
        <trkpt lat="29.5679736" lon="103.4091521"><ele>818.36</ele><time>2025-09-18T15:34:58.000Z</time></trkpt>
        <trkpt lat="29.5679471" lon="103.4090473"><ele>816.12</ele><time>2025-09-18T15:35:12.000Z</time></trkpt>
        <trkpt lat="29.5678909" lon="103.4089614"><ele>812.94</ele><time>2025-09-18T15:35:30.000Z</time></trkpt>
        <trkpt lat="29.5678457" lon="103.4088707"><ele>809.19</ele><time>2025-09-18T15:35:40.000Z</time></trkpt>
        <trkpt lat="29.56783" lon="103.4087653"><ele>805.23</ele><time>2025-09-18T15:35:54.000Z</time></trkpt>
        <trkpt lat="29.5678138" lon="103.4086542"><ele>801.38</ele><time>2025-09-18T15:36:06.000Z</time></trkpt>
        <trkpt lat="29.5677644" lon="103.4085607"><ele>798.68</ele><time>2025-09-18T15:36:18.000Z</time></trkpt>
        <trkpt lat="29.5676869" lon="103.408487"><ele>795.39</ele><time>2025-09-18T15:36:32.000Z</time></trkpt>
        <trkpt lat="29.567587" lon="103.4084434"><ele>791.84</ele><time>2025-09-18T15:36:46.000Z</time></trkpt>
        <trkpt lat="29.5675565" lon="103.4085316"><ele>787.44</ele><time>2025-09-18T15:37:14.000Z</time></trkpt>
        <trkpt lat="29.5674908" lon="103.4086292"><ele>785.67</ele><time>2025-09-18T15:37:24.000Z</time></trkpt>
        <trkpt lat="29.5673968" lon="103.4086509"><ele>782.75</ele><time>2025-09-18T15:37:32.000Z</time></trkpt>
        <trkpt lat="29.567302" lon="103.4086066"><ele>780.35</ele><time>2025-09-18T15:37:40.000Z</time></trkpt>
        <trkpt lat="29.5672132" lon="103.4085515"><ele>778.76</ele><time>2025-09-18T15:37:48.000Z</time></trkpt>
        <trkpt lat="29.5671254" lon="103.4084879"><ele>777.28</ele><time>2025-09-18T15:37:56.000Z</time></trkpt>
        <trkpt lat="29.5670249" lon="103.4084557"><ele>776.13</ele><time>2025-09-18T15:38:04.000Z</time></trkpt>
        <trkpt lat="29.5669173" lon="103.4084611"><ele>775.22</ele><time>2025-09-18T15:38:12.000Z</time></trkpt>
        <trkpt lat="29.566805" lon="103.4084651"><ele>775.5</ele><time>2025-09-18T15:38:20.000Z</time></trkpt>
        <trkpt lat="29.5666934" lon="103.4084367"><ele>775.59</ele><time>2025-09-18T15:38:28.000Z</time></trkpt>
        <trkpt lat="29.5666432" lon="103.408331"><ele>776.2</ele><time>2025-09-18T15:38:36.000Z</time></trkpt>
        <trkpt lat="29.5666566" lon="103.4082042"><ele>776.27</ele><time>2025-09-18T15:38:44.000Z</time></trkpt>
        <trkpt lat="29.5666816" lon="103.4080725"><ele>775.7</ele><time>2025-09-18T15:38:52.000Z</time></trkpt>
        <trkpt lat="29.5666791" lon="103.4079554"><ele>775.22</ele><time>2025-09-18T15:39:00.000Z</time></trkpt>
        <trkpt lat="29.5666359" lon="103.407847"><ele>775.66</ele><time>2025-09-18T15:39:08.000Z</time></trkpt>
        <trkpt lat="29.5665942" lon="103.4077314"><ele>776.05</ele><time>2025-09-18T15:39:16.000Z</time></trkpt>
        <trkpt lat="29.5665784" lon="103.4076077"><ele>777.21</ele><time>2025-09-18T15:39:24.000Z</time></trkpt>
        <trkpt lat="29.5665475" lon="103.4074949"><ele>778.08</ele><time>2025-09-18T15:39:32.000Z</time></trkpt>
        <trkpt lat="29.5664896" lon="103.4073897"><ele>778.46</ele><time>2025-09-18T15:39:40.000Z</time></trkpt>
        <trkpt lat="29.5664459" lon="103.4072764"><ele>778.65</ele><time>2025-09-18T15:39:48.000Z</time></trkpt>
        <trkpt lat="29.5664315" lon="103.4071534"><ele>778.41</ele><time>2025-09-18T15:39:56.000Z</time></trkpt>
        <trkpt lat="29.5663925" lon="103.4070286"><ele>777.11</ele><time>2025-09-18T15:40:04.000Z</time></trkpt>
        <trkpt lat="29.5663893" lon="103.4069186"><ele>776.13</ele><time>2025-09-18T15:40:10.000Z</time></trkpt>
        <trkpt lat="29.5664213" lon="103.4068208"><ele>774.28</ele><time>2025-09-18T15:40:16.000Z</time></trkpt>
        <trkpt lat="29.5664723" lon="103.4067307"><ele>773.12</ele><time>2025-09-18T15:40:22.000Z</time></trkpt>
        <trkpt lat="29.566559" lon="103.4066489"><ele>772.07</ele><time>2025-09-18T15:40:30.000Z</time></trkpt>
        <trkpt lat="29.5666437" lon="103.4065814"><ele>773.61</ele><time>2025-09-18T15:40:36.000Z</time></trkpt>
        <trkpt lat="29.5667327" lon="103.4065062"><ele>775.31</ele><time>2025-09-18T15:40:44.000Z</time></trkpt>
        <trkpt lat="29.5668215" lon="103.4064366"><ele>775.96</ele><time>2025-09-18T15:40:52.000Z</time></trkpt>
        <trkpt lat="29.5668901" lon="103.4063479"><ele>775.9</ele><time>2025-09-18T15:41:00.000Z</time></trkpt>
        <trkpt lat="29.5669578" lon="103.4062541"><ele>775.48</ele><time>2025-09-18T15:41:08.000Z</time></trkpt>
        <trkpt lat="29.5670084" lon="103.4061397"><ele>773.85</ele><time>2025-09-18T15:41:16.000Z</time></trkpt>
        <trkpt lat="29.5670643" lon="103.4060273"><ele>771.8</ele><time>2025-09-18T15:41:24.000Z</time></trkpt>
        <trkpt lat="29.5671021" lon="103.4059239"><ele>771.3</ele><time>2025-09-18T15:41:30.000Z</time></trkpt>
        <trkpt lat="29.5671053" lon="103.4058112"><ele>770.59</ele><time>2025-09-18T15:41:38.000Z</time></trkpt>
        <trkpt lat="29.5670335" lon="103.4057303"><ele>768.83</ele><time>2025-09-18T15:41:48.000Z</time></trkpt>
        <trkpt lat="29.5669536" lon="103.4056353"><ele>767.32</ele><time>2025-09-18T15:41:56.000Z</time></trkpt>
        <trkpt lat="29.5668722" lon="103.405549"><ele>766.49</ele><time>2025-09-18T15:42:04.000Z</time></trkpt>
        <trkpt lat="29.5667913" lon="103.4054627"><ele>765.08</ele><time>2025-09-18T15:42:12.000Z</time></trkpt>
        <trkpt lat="29.5667309" lon="103.4053545"><ele>764.49</ele><time>2025-09-18T15:42:20.000Z</time></trkpt>
        <trkpt lat="29.5666896" lon="103.4052287"><ele>763.45</ele><time>2025-09-18T15:42:28.000Z</time></trkpt>
        <trkpt lat="29.5667057" lon="103.4051211"><ele>763.93</ele><time>2025-09-18T15:42:34.000Z</time></trkpt>
        <trkpt lat="29.5667958" lon="103.4050725"><ele>762.17</ele><time>2025-09-18T15:42:40.000Z</time></trkpt>
        <trkpt lat="29.5669107" lon="103.405065"><ele>761.78</ele><time>2025-09-18T15:42:48.000Z</time></trkpt>
        <trkpt lat="29.567023" lon="103.4050797"><ele>761.23</ele><time>2025-09-18T15:42:58.000Z</time></trkpt>
        <trkpt lat="29.5671391" lon="103.405075"><ele>760.2</ele><time>2025-09-18T15:43:08.000Z</time></trkpt>
        <trkpt lat="29.5672521" lon="103.4050482"><ele>760.21</ele><time>2025-09-18T15:43:16.000Z</time></trkpt>
        <trkpt lat="29.5673623" lon="103.4050078"><ele>761.13</ele><time>2025-09-18T15:43:24.000Z</time></trkpt>
        <trkpt lat="29.5674723" lon="103.4049769"><ele>760.75</ele><time>2025-09-18T15:43:32.000Z</time></trkpt>
        <trkpt lat="29.5675693" lon="103.4049776"><ele>760.53</ele><time>2025-09-18T15:43:38.000Z</time></trkpt>
        <trkpt lat="29.567673" lon="103.4049742"><ele>759.21</ele><time>2025-09-18T15:43:46.000Z</time></trkpt>
        <trkpt lat="29.5677734" lon="103.4049567"><ele>757.32</ele><time>2025-09-18T15:43:54.000Z</time></trkpt>
        <trkpt lat="29.5678705" lon="103.404975"><ele>755.84</ele><time>2025-09-18T15:44:00.000Z</time></trkpt>
        <trkpt lat="29.5679706" lon="103.4049523"><ele>757.1</ele><time>2025-09-18T15:44:08.000Z</time></trkpt>
        <trkpt lat="29.5680656" lon="103.4048894"><ele>757.55</ele><time>2025-09-18T15:44:16.000Z</time></trkpt>
        <trkpt lat="29.5681759" lon="103.4048352"><ele>757.61</ele><time>2025-09-18T15:44:24.000Z</time></trkpt>
        <trkpt lat="29.5682617" lon="103.4047448"><ele>757.54</ele><time>2025-09-18T15:44:32.000Z</time></trkpt>
        <trkpt lat="29.5683128" lon="103.4046328"><ele>756.69</ele><time>2025-09-18T15:44:40.000Z</time></trkpt>
        <trkpt lat="29.5683351" lon="103.4045173"><ele>754.83</ele><time>2025-09-18T15:44:48.000Z</time></trkpt>
        <trkpt lat="29.5683688" lon="103.4044"><ele>753.04</ele><time>2025-09-18T15:44:56.000Z</time></trkpt>
        <trkpt lat="29.5684527" lon="103.4043352"><ele>752.24</ele><time>2025-09-18T15:45:02.000Z</time></trkpt>
        <trkpt lat="29.5685092" lon="103.4042988"><ele>750.99</ele><time>2025-09-18T15:45:08.000Z</time></trkpt>
        <trkpt lat="29.5685702" lon="103.4042116"><ele>751.13</ele><time>2025-09-18T15:45:20.000Z</time></trkpt>
        <trkpt lat="29.5686436" lon="103.4041217"><ele>751.75</ele><time>2025-09-18T15:45:28.000Z</time></trkpt>
        <trkpt lat="29.5687187" lon="103.4040315"><ele>751.67</ele><time>2025-09-18T15:45:36.000Z</time></trkpt>
        <trkpt lat="29.5687915" lon="103.403952"><ele>750.88</ele><time>2025-09-18T15:45:44.000Z</time></trkpt>
        <trkpt lat="29.5688843" lon="103.4039078"><ele>750.96</ele><time>2025-09-18T15:45:52.000Z</time></trkpt>
        <trkpt lat="29.5689865" lon="103.4039209"><ele>750.9</ele><time>2025-09-18T15:46:00.000Z</time></trkpt>
        <trkpt lat="29.5690917" lon="103.403938"><ele>750.8</ele><time>2025-09-18T15:46:08.000Z</time></trkpt>
        <trkpt lat="29.5691924" lon="103.4039071"><ele>750.2</ele><time>2025-09-18T15:46:16.000Z</time></trkpt>
        <trkpt lat="29.5692934" lon="103.4038751"><ele>749.64</ele><time>2025-09-18T15:46:24.000Z</time></trkpt>
        <trkpt lat="29.5693864" lon="103.4038116"><ele>748.33</ele><time>2025-09-18T15:46:32.000Z</time></trkpt>
        <trkpt lat="29.5694577" lon="103.4037325"><ele>747.35</ele><time>2025-09-18T15:46:38.000Z</time></trkpt>
        <trkpt lat="29.5695406" lon="103.4036394"><ele>746.24</ele><time>2025-09-18T15:46:46.000Z</time></trkpt>
        <trkpt lat="29.5696032" lon="103.4035338"><ele>744.76</ele><time>2025-09-18T15:46:54.000Z</time></trkpt>
        <trkpt lat="29.5696424" lon="103.4034133"><ele>743.59</ele><time>2025-09-18T15:47:04.000Z</time></trkpt>
        <trkpt lat="29.569697" lon="103.4033182"><ele>740.22</ele><time>2025-09-18T15:47:12.000Z</time></trkpt>
        <trkpt lat="29.5697652" lon="103.4032388"><ele>737.33</ele><time>2025-09-18T15:47:18.000Z</time></trkpt>
        <trkpt lat="29.5698433" lon="103.4031705"><ele>737.62</ele><time>2025-09-18T15:47:24.000Z</time></trkpt>
        <trkpt lat="29.5699109" lon="103.4030979"><ele>738.12</ele><time>2025-09-18T15:47:30.000Z</time></trkpt>
        <trkpt lat="29.5699386" lon="103.4029896"><ele>737.72</ele><time>2025-09-18T15:47:38.000Z</time></trkpt>
        <trkpt lat="29.5699636" lon="103.4028653"><ele>737.75</ele><time>2025-09-18T15:47:46.000Z</time></trkpt>
        <trkpt lat="29.5700284" lon="103.4027708"><ele>736.44</ele><time>2025-09-18T15:47:54.000Z</time></trkpt>
        <trkpt lat="29.5701831" lon="103.402784"><ele>731.46</ele><time>2025-09-18T15:47:58.000Z</time></trkpt>
        <trkpt lat="29.5702523" lon="103.4027914"><ele>733.04</ele><time>2025-09-18T15:48:00.000Z</time></trkpt>
        <trkpt lat="29.5703544" lon="103.4027736"><ele>734.62</ele><time>2025-09-18T15:48:06.000Z</time></trkpt>
        <trkpt lat="29.5704494" lon="103.4027529"><ele>737.13</ele><time>2025-09-18T15:48:12.000Z</time></trkpt>
        <trkpt lat="29.5705586" lon="103.4027543"><ele>739.08</ele><time>2025-09-18T15:48:20.000Z</time></trkpt>
        <trkpt lat="29.5706552" lon="103.402745"><ele>739.94</ele><time>2025-09-18T15:48:26.000Z</time></trkpt>
        <trkpt lat="29.5707556" lon="103.4027105"><ele>739.2</ele><time>2025-09-18T15:48:34.000Z</time></trkpt>
        <trkpt lat="29.5708651" lon="103.4026724"><ele>737.58</ele><time>2025-09-18T15:48:42.000Z</time></trkpt>
        <trkpt lat="29.5709535" lon="103.4026249"><ele>736.05</ele><time>2025-09-18T15:48:48.000Z</time></trkpt>
        <trkpt lat="29.5710333" lon="103.4025702"><ele>734.8</ele><time>2025-09-18T15:48:54.000Z</time></trkpt>
        <trkpt lat="29.571116" lon="103.4024982"><ele>734.4</ele><time>2025-09-18T15:49:02.000Z</time></trkpt>
        <trkpt lat="29.5711931" lon="103.4024267"><ele>733.82</ele><time>2025-09-18T15:49:10.000Z</time></trkpt>
        <trkpt lat="29.5712388" lon="103.4023287"><ele>732.99</ele><time>2025-09-18T15:49:18.000Z</time></trkpt>
        <trkpt lat="29.5712842" lon="103.4022299"><ele>733.11</ele><time>2025-09-18T15:49:26.000Z</time></trkpt>
        <trkpt lat="29.5713497" lon="103.4021411"><ele>732.86</ele><time>2025-09-18T15:49:34.000Z</time></trkpt>
        <trkpt lat="29.5714211" lon="103.4020433"><ele>731.52</ele><time>2025-09-18T15:49:42.000Z</time></trkpt>
        <trkpt lat="29.5714784" lon="103.4019519"><ele>729.13</ele><time>2025-09-18T15:49:48.000Z</time></trkpt>
        <trkpt lat="29.5715569" lon="103.4018771"><ele>728.7</ele><time>2025-09-18T15:49:56.000Z</time></trkpt>
        <trkpt lat="29.5716478" lon="103.4018446"><ele>727.27</ele><time>2025-09-18T15:50:02.000Z</time></trkpt>
        <trkpt lat="29.5717358" lon="103.4018013"><ele>727</ele><time>2025-09-18T15:50:10.000Z</time></trkpt>
        <trkpt lat="29.5717921" lon="103.4017133"><ele>726.61</ele><time>2025-09-18T15:50:18.000Z</time></trkpt>
        <trkpt lat="29.5718426" lon="103.4016116"><ele>726.95</ele><time>2025-09-18T15:50:30.000Z</time></trkpt>
        <trkpt lat="29.5719286" lon="103.4015428"><ele>727.67</ele><time>2025-09-18T15:50:40.000Z</time></trkpt>
        <trkpt lat="29.5719922" lon="103.4014576"><ele>727.25</ele><time>2025-09-18T15:50:50.000Z</time></trkpt>
        <trkpt lat="29.572015" lon="103.4013545"><ele>728.53</ele><time>2025-09-18T15:51:02.000Z</time></trkpt>
        <trkpt lat="29.571994" lon="103.4012493"><ele>729.66</ele><time>2025-09-18T15:51:12.000Z</time></trkpt>
        <trkpt lat="29.5719612" lon="103.4011416"><ele>729.35</ele><time>2025-09-18T15:52:02.000Z</time></trkpt>
        <trkpt lat="29.571939" lon="103.4010158"><ele>731.31</ele><time>2025-09-18T15:52:08.000Z</time></trkpt>
        <trkpt lat="29.5719315" lon="103.4008993"><ele>734.02</ele><time>2025-09-18T15:52:30.000Z</time></trkpt>
        <trkpt lat="29.5719063" lon="103.4007967"><ele>734.72</ele><time>2025-09-18T15:53:08.000Z</time></trkpt>
        <trkpt lat="29.5718893" lon="103.4006879"><ele>738.27</ele><time>2025-09-18T15:53:28.000Z</time></trkpt>
        <trkpt lat="29.5718541" lon="103.4005819"><ele>742.39</ele><time>2025-09-18T15:53:50.000Z</time></trkpt>
        <trkpt lat="29.5718346" lon="103.4004771"><ele>745.83</ele><time>2025-09-18T15:54:14.000Z</time></trkpt>
        <trkpt lat="29.5718337" lon="103.4003686"><ele>752.35</ele><time>2025-09-18T15:54:34.000Z</time></trkpt>
        <trkpt lat="29.5718164" lon="103.4002648"><ele>756.66</ele><time>2025-09-18T15:54:52.000Z</time></trkpt>
        <trkpt lat="29.5717938" lon="103.4001642"><ele>760.79</ele><time>2025-09-18T15:55:16.000Z</time></trkpt>
        <trkpt lat="29.5717725" lon="103.4000624"><ele>764.6</ele><time>2025-09-18T15:55:38.000Z</time></trkpt>
        <trkpt lat="29.5717622" lon="103.3999506"><ele>768.34</ele><time>2025-09-18T15:56:00.000Z</time></trkpt>
        <trkpt lat="29.5717916" lon="103.3998503"><ele>772.25</ele><time>2025-09-18T15:56:22.000Z</time></trkpt>
        <trkpt lat="29.5718031" lon="103.3997457"><ele>776.86</ele><time>2025-09-18T15:56:42.000Z</time></trkpt>
        <trkpt lat="29.57182" lon="103.3998653"><ele>781.04</ele><time>2025-09-18T15:59:26.000Z</time></trkpt>
        <trkpt lat="29.5718024" lon="103.3998658"><ele>784.63</ele><time>2025-09-18T15:59:30.000Z</time></trkpt>
        <trkpt lat="29.571709" lon="103.399824"><ele>786.75</ele><time>2025-09-18T16:00:50.000Z</time></trkpt>
        <trkpt lat="29.5716208" lon="103.3997726"><ele>787.03</ele><time>2025-09-18T16:00:58.000Z</time></trkpt>
        <trkpt lat="29.5715897" lon="103.3997629"><ele>786.2</ele><time>2025-09-18T16:01:02.000Z</time></trkpt>
        <trkpt lat="29.5716454" lon="103.3997222"><ele>786.39</ele><time>2025-09-18T16:01:16.000Z</time></trkpt>
        <trkpt lat="29.5717324" lon="103.3997692"><ele>786.54</ele><time>2025-09-18T16:01:24.000Z</time></trkpt>
        <trkpt lat="29.5718002" lon="103.3997952"><ele>788.3</ele><time>2025-09-18T16:01:32.000Z</time></trkpt>
        <trkpt lat="29.5718473" lon="103.3996952"><ele>789.12</ele><time>2025-09-18T16:02:34.000Z</time></trkpt>
        <trkpt lat="29.5718013" lon="103.399589"><ele>788.47</ele><time>2025-09-18T16:02:44.000Z</time></trkpt>
        <trkpt lat="29.5717718" lon="103.3994834"><ele>787.58</ele><time>2025-09-18T16:02:58.000Z</time></trkpt>
        <trkpt lat="29.5717722" lon="103.3993737"><ele>788.56</ele><time>2025-09-18T16:03:10.000Z</time></trkpt>
        <trkpt lat="29.5717598" lon="103.3992599"><ele>790.64</ele><time>2025-09-18T16:03:22.000Z</time></trkpt>
        <trkpt lat="29.5717044" lon="103.3991763"><ele>794.06</ele><time>2025-09-18T16:03:38.000Z</time></trkpt>
        <trkpt lat="29.5716481" lon="103.3990809"><ele>795.2</ele><time>2025-09-18T16:03:56.000Z</time></trkpt>
        <trkpt lat="29.5716072" lon="103.3989791"><ele>797.71</ele><time>2025-09-18T16:04:10.000Z</time></trkpt>
        <trkpt lat="29.5715846" lon="103.3988585"><ele>801.21</ele><time>2025-09-18T16:04:22.000Z</time></trkpt>
        <trkpt lat="29.5715762" lon="103.3987481"><ele>802.55</ele><time>2025-09-18T16:04:30.000Z</time></trkpt>
        <trkpt lat="29.5715671" lon="103.3986349"><ele>803.94</ele><time>2025-09-18T16:04:38.000Z</time></trkpt>
        <trkpt lat="29.5715686" lon="103.3985241"><ele>804.77</ele><time>2025-09-18T16:04:46.000Z</time></trkpt>
        <trkpt lat="29.5715531" lon="103.3984161"><ele>806.03</ele><time>2025-09-18T16:05:12.000Z</time></trkpt>
        <trkpt lat="29.5715568" lon="103.3983125"><ele>807.63</ele><time>2025-09-18T16:05:26.000Z</time></trkpt>
        <trkpt lat="29.5715558" lon="103.3982091"><ele>807.23</ele><time>2025-09-18T16:05:40.000Z</time></trkpt>
        <trkpt lat="29.5715565" lon="103.3980949"><ele>805.26</ele><time>2025-09-18T16:05:52.000Z</time></trkpt>
        <trkpt lat="29.5715377" lon="103.3979776"><ele>802.41</ele><time>2025-09-18T16:06:06.000Z</time></trkpt>
        <trkpt lat="29.5714938" lon="103.3978689"><ele>798.23</ele><time>2025-09-18T16:06:18.000Z</time></trkpt>
        <trkpt lat="29.5714466" lon="103.397768"><ele>792.88</ele><time>2025-09-18T16:06:30.000Z</time></trkpt>
        <trkpt lat="29.571426" lon="103.3976591"><ele>789.97</ele><time>2025-09-18T16:06:42.000Z</time></trkpt>
        <trkpt lat="29.5713987" lon="103.3975471"><ele>787.19</ele><time>2025-09-18T16:06:56.000Z</time></trkpt>
        <trkpt lat="29.5714141" lon="103.3974326"><ele>785.76</ele><time>2025-09-18T16:07:10.000Z</time></trkpt>
        <trkpt lat="29.5714531" lon="103.3973302"><ele>783.26</ele><time>2025-09-18T16:07:22.000Z</time></trkpt>
        <trkpt lat="29.5714903" lon="103.3972316"><ele>780.69</ele><time>2025-09-18T16:07:32.000Z</time></trkpt>
        <trkpt lat="29.5715505" lon="103.397145"><ele>778.8</ele><time>2025-09-18T16:07:42.000Z</time></trkpt>
        <trkpt lat="29.5715835" lon="103.3970445"><ele>775.48</ele><time>2025-09-18T16:07:52.000Z</time></trkpt>
        <trkpt lat="29.5716345" lon="103.3969501"><ele>772.73</ele><time>2025-09-18T16:08:04.000Z</time></trkpt>
        <trkpt lat="29.571686" lon="103.3968522"><ele>770.12</ele><time>2025-09-18T16:08:16.000Z</time></trkpt>
        <trkpt lat="29.5717305" lon="103.3967546"><ele>768.96</ele><time>2025-09-18T16:08:28.000Z</time></trkpt>
        <trkpt lat="29.5717607" lon="103.396726"><ele>767.81</ele><time>2025-09-18T16:08:36.000Z</time></trkpt>
        <trkpt lat="29.5718391" lon="103.3967309"><ele>766.41</ele><time>2025-09-18T16:08:58.000Z</time></trkpt>
        <trkpt lat="29.5719329" lon="103.3967353"><ele>764.39</ele><time>2025-09-18T16:09:08.000Z</time></trkpt>
        <trkpt lat="29.57203" lon="103.3967107"><ele>761.7</ele><time>2025-09-18T16:09:24.000Z</time></trkpt>
        <trkpt lat="29.5721272" lon="103.3966988"><ele>758.6</ele><time>2025-09-18T16:09:38.000Z</time></trkpt>
        <trkpt lat="29.5722296" lon="103.3966983"><ele>755.18</ele><time>2025-09-18T16:09:52.000Z</time></trkpt>
        <trkpt lat="29.5723218" lon="103.3966693"><ele>753.25</ele><time>2025-09-18T16:10:08.000Z</time></trkpt>
        <trkpt lat="29.5723331" lon="103.3966595"><ele>752.27</ele><time>2025-09-18T16:10:13.000Z</time></trkpt>
        <trkpt lat="29.5723454" lon="103.39658"><ele>749.68</ele><time>2025-09-18T16:10:51.000Z</time></trkpt>
        <trkpt lat="29.5723217" lon="103.3964654"><ele>745.75</ele><time>2025-09-18T16:11:05.000Z</time></trkpt>
        <trkpt lat="29.5723321" lon="103.3963447"><ele>741.52</ele><time>2025-09-18T16:11:13.000Z</time></trkpt>
        <trkpt lat="29.5723386" lon="103.3962247"><ele>737.24</ele><time>2025-09-18T16:11:23.000Z</time></trkpt>
        <trkpt lat="29.5723732" lon="103.3961182"><ele>733.51</ele><time>2025-09-18T16:11:35.000Z</time></trkpt>
        <trkpt lat="29.5724341" lon="103.3960288"><ele>732.59</ele><time>2025-09-18T16:11:49.000Z</time></trkpt>
        <trkpt lat="29.5725151" lon="103.3959679"><ele>732.46</ele><time>2025-09-18T16:12:01.000Z</time></trkpt>
        <trkpt lat="29.5725963" lon="103.3958967"><ele>731.18</ele><time>2025-09-18T16:12:13.000Z</time></trkpt>
        <trkpt lat="29.5726724" lon="103.3958315"><ele>729.21</ele><time>2025-09-18T16:12:23.000Z</time></trkpt>
        <trkpt lat="29.5727553" lon="103.3957629"><ele>727.4</ele><time>2025-09-18T16:12:35.000Z</time></trkpt>
        <trkpt lat="29.5727997" lon="103.3956512"><ele>725.42</ele><time>2025-09-18T16:12:45.000Z</time></trkpt>
        <trkpt lat="29.5728395" lon="103.3955422"><ele>724.34</ele><time>2025-09-18T16:12:53.000Z</time></trkpt>
        <trkpt lat="29.5728792" lon="103.3954263"><ele>723.46</ele><time>2025-09-18T16:13:01.000Z</time></trkpt>
        <trkpt lat="29.5729355" lon="103.3953259"><ele>720.46</ele><time>2025-09-18T16:13:09.000Z</time></trkpt>
        <trkpt lat="29.5729746" lon="103.3952271"><ele>718.08</ele><time>2025-09-18T16:13:19.000Z</time></trkpt>
        <trkpt lat="29.5729308" lon="103.3951311"><ele>717.52</ele><time>2025-09-18T16:13:31.000Z</time></trkpt>
        <trkpt lat="29.572895" lon="103.3950295"><ele>717.03</ele><time>2025-09-18T16:13:39.000Z</time></trkpt>
        <trkpt lat="29.572891" lon="103.394919"><ele>716.07</ele><time>2025-09-18T16:13:49.000Z</time></trkpt>
        <trkpt lat="29.5728808" lon="103.3948098"><ele>714.03</ele><time>2025-09-18T16:14:01.000Z</time></trkpt>
        <trkpt lat="29.572815" lon="103.3947374"><ele>711.92</ele><time>2025-09-18T16:14:11.000Z</time></trkpt>
        <trkpt lat="29.5727304" lon="103.3946873"><ele>709.19</ele><time>2025-09-18T16:14:23.000Z</time></trkpt>
        <trkpt lat="29.5726577" lon="103.3946128"><ele>704.85</ele><time>2025-09-18T16:14:35.000Z</time></trkpt>
        <trkpt lat="29.5726455" lon="103.3945048"><ele>699.73</ele><time>2025-09-18T16:14:45.000Z</time></trkpt>
        <trkpt lat="29.5726854" lon="103.3944022"><ele>695.89</ele><time>2025-09-18T16:14:59.000Z</time></trkpt>
        <trkpt lat="29.5727383" lon="103.3943601"><ele>692.8</ele><time>2025-09-18T16:15:07.000Z</time></trkpt>
        <trkpt lat="29.5727968" lon="103.3942838"><ele>691</ele><time>2025-09-18T16:15:32.000Z</time></trkpt>
        <trkpt lat="29.5728591" lon="103.3941845"><ele>690.93</ele><time>2025-09-18T16:15:44.000Z</time></trkpt>
        <trkpt lat="29.5729058" lon="103.3940857"><ele>690.76</ele><time>2025-09-18T16:15:52.000Z</time></trkpt>
        <trkpt lat="29.5729469" lon="103.393988"><ele>689.2</ele><time>2025-09-18T16:16:00.000Z</time></trkpt>
        <trkpt lat="29.5729827" lon="103.3938909"><ele>687.83</ele><time>2025-09-18T16:16:08.000Z</time></trkpt>
        <trkpt lat="29.5730187" lon="103.3937687"><ele>687.15</ele><time>2025-09-18T16:16:18.000Z</time></trkpt>
        <trkpt lat="29.573103" lon="103.3937108"><ele>687.42</ele><time>2025-09-18T16:16:26.000Z</time></trkpt>
        <trkpt lat="29.5732086" lon="103.3936918"><ele>688.4</ele><time>2025-09-18T16:16:36.000Z</time></trkpt>
        <trkpt lat="29.5733153" lon="103.3936589"><ele>688.5</ele><time>2025-09-18T16:16:50.000Z</time></trkpt>
        <trkpt lat="29.5733961" lon="103.3935873"><ele>687.38</ele><time>2025-09-18T16:17:00.000Z</time></trkpt>
        <trkpt lat="29.5734868" lon="103.3935416"><ele>684.84</ele><time>2025-09-18T16:17:08.000Z</time></trkpt>
        <trkpt lat="29.5735814" lon="103.3935069"><ele>683.8</ele><time>2025-09-18T16:17:16.000Z</time></trkpt>
        <trkpt lat="29.5736775" lon="103.3934477"><ele>683.27</ele><time>2025-09-18T16:17:24.000Z</time></trkpt>
        <trkpt lat="29.5737755" lon="103.3934001"><ele>683.12</ele><time>2025-09-18T16:17:32.000Z</time></trkpt>
        <trkpt lat="29.5738695" lon="103.3933563"><ele>683.27</ele><time>2025-09-18T16:17:40.000Z</time></trkpt>
        <trkpt lat="29.5739318" lon="103.3932804"><ele>683.49</ele><time>2025-09-18T16:17:48.000Z</time></trkpt>
        <trkpt lat="29.5739413" lon="103.3932572"><ele>683.34</ele><time>2025-09-18T16:17:50.000Z</time></trkpt>
        <trkpt lat="29.5739629" lon="103.3931644"><ele>683.14</ele><time>2025-09-18T16:18:10.000Z</time></trkpt>
        <trkpt lat="29.5740068" lon="103.3930637"><ele>681.74</ele><time>2025-09-18T16:18:24.000Z</time></trkpt>
        <trkpt lat="29.5740102" lon="103.3929556"><ele>681.15</ele><time>2025-09-18T16:18:36.000Z</time></trkpt>
        <trkpt lat="29.5740371" lon="103.3928526"><ele>680.09</ele><time>2025-09-18T16:18:48.000Z</time></trkpt>
        <trkpt lat="29.5740436" lon="103.3927416"><ele>676.49</ele><time>2025-09-18T16:19:02.000Z</time></trkpt>
        <trkpt lat="29.5740626" lon="103.3926355"><ele>671.85</ele><time>2025-09-18T16:19:24.000Z</time></trkpt>
        <trkpt lat="29.5740453" lon="103.3925233"><ele>669.09</ele><time>2025-09-18T16:19:38.000Z</time></trkpt>
        <trkpt lat="29.5740352" lon="103.3923971"><ele>666.68</ele><time>2025-09-18T16:19:50.000Z</time></trkpt>
        <trkpt lat="29.5741015" lon="103.3924023"><ele>665.11</ele><time>2025-09-18T16:19:58.000Z</time></trkpt>
        <trkpt lat="29.5741668" lon="103.3923537"><ele>664.15</ele><time>2025-09-18T16:20:12.000Z</time></trkpt>
        <trkpt lat="29.5741831" lon="103.3923525"><ele>665.88</ele><time>2025-09-18T16:20:14.000Z</time></trkpt>
        <trkpt lat="29.5742115" lon="103.392266"><ele>666.7</ele><time>2025-09-18T16:21:19.000Z</time></trkpt>
        <trkpt lat="29.5741865" lon="103.3921614"><ele>657.56</ele><time>2025-09-18T16:21:39.000Z</time></trkpt>
        <trkpt lat="29.5741099" lon="103.3921039"><ele>651.09</ele><time>2025-09-18T16:22:27.000Z</time></trkpt>
        <trkpt lat="29.5740237" lon="103.3920524"><ele>651.21</ele><time>2025-09-18T16:23:00.000Z</time></trkpt>
        <trkpt lat="29.5739275" lon="103.3920627"><ele>653.62</ele><time>2025-09-18T16:23:32.000Z</time></trkpt>
        <trkpt lat="29.573827" lon="103.3920795"><ele>653.86</ele><time>2025-09-18T16:23:46.000Z</time></trkpt>
        <trkpt lat="29.5737312" lon="103.3921072"><ele>653.3</ele><time>2025-09-18T16:23:56.000Z</time></trkpt>
        <trkpt lat="29.5736512" lon="103.3920575"><ele>652.62</ele><time>2025-09-18T16:24:04.000Z</time></trkpt>
        <trkpt lat="29.5735693" lon="103.3919775"><ele>653.55</ele><time>2025-09-18T16:24:14.000Z</time></trkpt>
        <trkpt lat="29.57351" lon="103.3919318"><ele>653.25</ele><time>2025-09-18T16:24:28.000Z</time></trkpt>
        <trkpt lat="29.5734701" lon="103.3918325"><ele>655.58</ele><time>2025-09-18T16:25:12.000Z</time></trkpt>
        <trkpt lat="29.5734121" lon="103.391744"><ele>655.93</ele><time>2025-09-18T16:25:43.000Z</time></trkpt>
        <trkpt lat="29.5733197" lon="103.3917093"><ele>657.14</ele><time>2025-09-18T16:25:57.000Z</time></trkpt>
        <trkpt lat="29.5732152" lon="103.3917336"><ele>657.54</ele><time>2025-09-18T16:26:11.000Z</time></trkpt>
        <trkpt lat="29.5731152" lon="103.3917482"><ele>658.8</ele><time>2025-09-18T16:26:27.000Z</time></trkpt>
        <trkpt lat="29.5730163" lon="103.3917535"><ele>661.06</ele><time>2025-09-18T16:26:39.000Z</time></trkpt>
        <trkpt lat="29.572921" lon="103.3917777"><ele>660.55</ele><time>2025-09-18T16:26:47.000Z</time></trkpt>
        <trkpt lat="29.5728259" lon="103.3918065"><ele>660.73</ele><time>2025-09-18T16:26:55.000Z</time></trkpt>
        <trkpt lat="29.5727269" lon="103.3918444"><ele>660.06</ele><time>2025-09-18T16:27:05.000Z</time></trkpt>
        <trkpt lat="29.5726396" lon="103.3918213"><ele>658.95</ele><time>2025-09-18T16:27:15.000Z</time></trkpt>
        <trkpt lat="29.5725489" lon="103.3918404"><ele>658.26</ele><time>2025-09-18T16:27:27.000Z</time></trkpt>
        <trkpt lat="29.5724553" lon="103.3918437"><ele>659.12</ele><time>2025-09-18T16:27:37.000Z</time></trkpt>
        <trkpt lat="29.57237" lon="103.3917955"><ele>658.87</ele><time>2025-09-18T16:27:47.000Z</time></trkpt>
        <trkpt lat="29.5722864" lon="103.3917422"><ele>660.24</ele><time>2025-09-18T16:27:57.000Z</time></trkpt>
        <trkpt lat="29.5721921" lon="103.3916886"><ele>661.75</ele><time>2025-09-18T16:28:07.000Z</time></trkpt>
        <trkpt lat="29.5721051" lon="103.3916354"><ele>662.03</ele><time>2025-09-18T16:28:15.000Z</time></trkpt>
        <trkpt lat="29.5720018" lon="103.3916311"><ele>662.44</ele><time>2025-09-18T16:28:23.000Z</time></trkpt>
        <trkpt lat="29.5718987" lon="103.3916275"><ele>661.29</ele><time>2025-09-18T16:28:31.000Z</time></trkpt>
        <trkpt lat="29.5717894" lon="103.3916388"><ele>660.98</ele><time>2025-09-18T16:28:41.000Z</time></trkpt>
        <trkpt lat="29.5716909" lon="103.3916485"><ele>660.39</ele><time>2025-09-18T16:28:49.000Z</time></trkpt>
        <trkpt lat="29.5715872" lon="103.3916735"><ele>661.84</ele><time>2025-09-18T16:28:59.000Z</time></trkpt>
        <trkpt lat="29.5714892" lon="103.3916818"><ele>661.67</ele><time>2025-09-18T16:29:07.000Z</time></trkpt>
        <trkpt lat="29.5713974" lon="103.391687"><ele>661.26</ele><time>2025-09-18T16:29:15.000Z</time></trkpt>
        <trkpt lat="29.5713009" lon="103.3916612"><ele>660.71</ele><time>2025-09-18T16:29:25.000Z</time></trkpt>
        <trkpt lat="29.5712013" lon="103.39167"><ele>661.09</ele><time>2025-09-18T16:29:54.000Z</time></trkpt>
        <trkpt lat="29.5710993" lon="103.3916928"><ele>661.79</ele><time>2025-09-18T16:30:06.000Z</time></trkpt>
        <trkpt lat="29.5710005" lon="103.3916808"><ele>662.77</ele><time>2025-09-18T16:30:18.000Z</time></trkpt>
        <trkpt lat="29.5708966" lon="103.3916467"><ele>663.7</ele><time>2025-09-18T16:30:28.000Z</time></trkpt>
        <trkpt lat="29.5708024" lon="103.391584"><ele>664.38</ele><time>2025-09-18T16:30:36.000Z</time></trkpt>
        <trkpt lat="29.5707124" lon="103.3915411"><ele>663.83</ele><time>2025-09-18T16:30:46.000Z</time></trkpt>
        <trkpt lat="29.570629" lon="103.3914915"><ele>662.78</ele><time>2025-09-18T16:30:56.000Z</time></trkpt>
        <trkpt lat="29.5705462" lon="103.3914446"><ele>663.95</ele><time>2025-09-18T16:31:06.000Z</time></trkpt>
        <trkpt lat="29.5704813" lon="103.3913565"><ele>666.5</ele><time>2025-09-18T16:31:18.000Z</time></trkpt>
        <trkpt lat="29.5703956" lon="103.3912859"><ele>668.54</ele><time>2025-09-18T16:31:28.000Z</time></trkpt>
        <trkpt lat="29.5703083" lon="103.3912244"><ele>671.86</ele><time>2025-09-18T16:31:44.000Z</time></trkpt>
        <trkpt lat="29.5702218" lon="103.3911819"><ele>675.08</ele><time>2025-09-18T16:32:12.000Z</time></trkpt>
        <trkpt lat="29.5701403" lon="103.3911375"><ele>680.73</ele><time>2025-09-18T16:32:30.000Z</time></trkpt>
        <trkpt lat="29.5701073" lon="103.3910407"><ele>684.28</ele><time>2025-09-18T16:32:40.000Z</time></trkpt>
        <trkpt lat="29.570108" lon="103.3910072"><ele>685.68</ele><time>2025-09-18T16:32:42.000Z</time></trkpt>
        <trkpt lat="29.5700662" lon="103.3909482"><ele>685.93</ele><time>2025-09-18T16:33:07.000Z</time></trkpt>
        <trkpt lat="29.5699783" lon="103.390918"><ele>686.69</ele><time>2025-09-18T16:33:19.000Z</time></trkpt>
        <trkpt lat="29.5698827" lon="103.3909441"><ele>687.7</ele><time>2025-09-18T16:33:31.000Z</time></trkpt>
        <trkpt lat="29.5697758" lon="103.3909562"><ele>686.17</ele><time>2025-09-18T16:33:45.000Z</time></trkpt>
        <trkpt lat="29.5696775" lon="103.3909632"><ele>683.01</ele><time>2025-09-18T16:33:55.000Z</time></trkpt>
        <trkpt lat="29.5695768" lon="103.3909787"><ele>679.27</ele><time>2025-09-18T16:34:07.000Z</time></trkpt>
        <trkpt lat="29.5694842" lon="103.3910157"><ele>676.39</ele><time>2025-09-18T16:34:17.000Z</time></trkpt>
        <trkpt lat="29.5693883" lon="103.3910278"><ele>673.38</ele><time>2025-09-18T16:34:27.000Z</time></trkpt>
        <trkpt lat="29.5692999" lon="103.3909756"><ele>672.33</ele><time>2025-09-18T16:34:37.000Z</time></trkpt>
        <trkpt lat="29.5692793" lon="103.3909464"><ele>670.59</ele><time>2025-09-18T16:34:39.000Z</time></trkpt>
        <trkpt lat="29.5692473" lon="103.3908648"><ele>669.86</ele><time>2025-09-18T16:35:08.000Z</time></trkpt>
        <trkpt lat="29.5691946" lon="103.3908438"><ele>669.75</ele><time>2025-09-18T16:35:19.000Z</time></trkpt>
        <trkpt lat="29.5691151" lon="103.3908703"><ele>669.25</ele><time>2025-09-18T16:35:35.000Z</time></trkpt>
        <trkpt lat="29.5690234" lon="103.3909185"><ele>669.62</ele><time>2025-09-18T16:35:45.000Z</time></trkpt>
        <trkpt lat="29.5689557" lon="103.3910025"><ele>670.46</ele><time>2025-09-18T16:35:53.000Z</time></trkpt>
        <trkpt lat="29.5688874" lon="103.3910844"><ele>671.83</ele><time>2025-09-18T16:36:01.000Z</time></trkpt>
        <trkpt lat="29.5688761" lon="103.3911889"><ele>673.33</ele><time>2025-09-18T16:36:07.000Z</time></trkpt>
        <trkpt lat="29.5688783" lon="103.3912306"><ele>675.31</ele><time>2025-09-18T16:36:11.000Z</time></trkpt>
        <trkpt lat="29.5688079" lon="103.3912496"><ele>676.32</ele><time>2025-09-18T16:36:27.000Z</time></trkpt>
        <trkpt lat="29.5687118" lon="103.3912153"><ele>677.79</ele><time>2025-09-18T16:36:37.000Z</time></trkpt>
        <trkpt lat="29.5686" lon="103.3912105"><ele>678.86</ele><time>2025-09-18T16:36:45.000Z</time></trkpt>
        <trkpt lat="29.5684964" lon="103.39117"><ele>679.86</ele><time>2025-09-18T16:36:53.000Z</time></trkpt>
        <trkpt lat="29.5684886" lon="103.391086"><ele>679.5</ele><time>2025-09-18T16:36:55.000Z</time></trkpt>
        <trkpt lat="29.5685156" lon="103.3909685"><ele>677.84</ele><time>2025-09-18T16:37:01.000Z</time></trkpt>
        <trkpt lat="29.5685227" lon="103.3908541"><ele>676.69</ele><time>2025-09-18T16:37:07.000Z</time></trkpt>
        <trkpt lat="29.5684944" lon="103.390751"><ele>676.46</ele><time>2025-09-18T16:37:15.000Z</time></trkpt>
        <trkpt lat="29.5684105" lon="103.3907322"><ele>676.78</ele><time>2025-09-18T16:37:25.000Z</time></trkpt>
        <trkpt lat="29.5683573" lon="103.3908305"><ele>677.33</ele><time>2025-09-18T16:37:37.000Z</time></trkpt>
        <trkpt lat="29.5684061" lon="103.3909164"><ele>678.87</ele><time>2025-09-18T16:37:47.000Z</time></trkpt>
        <trkpt lat="29.5683388" lon="103.3909539"><ele>681.46</ele><time>2025-09-18T16:38:01.000Z</time></trkpt>
        <trkpt lat="29.568248" lon="103.3909286"><ele>682.29</ele><time>2025-09-18T16:38:11.000Z</time></trkpt>
        <trkpt lat="29.5681536" lon="103.3908862"><ele>683.21</ele><time>2025-09-18T16:38:27.000Z</time></trkpt>
        <trkpt lat="29.568068" lon="103.3908065"><ele>682.82</ele><time>2025-09-18T16:38:41.000Z</time></trkpt>
        <trkpt lat="29.5679781" lon="103.3907479"><ele>682.56</ele><time>2025-09-18T16:38:53.000Z</time></trkpt>
        <trkpt lat="29.5678793" lon="103.3907125"><ele>678.89</ele><time>2025-09-18T16:39:03.000Z</time></trkpt>
        <trkpt lat="29.5677925" lon="103.3907475"><ele>679.58</ele><time>2025-09-18T16:39:09.000Z</time></trkpt>
        <trkpt lat="29.5677063" lon="103.3907993"><ele>681.74</ele><time>2025-09-18T16:39:19.000Z</time></trkpt>
        <trkpt lat="29.5676293" lon="103.3907598"><ele>685.01</ele><time>2025-09-18T16:39:27.000Z</time></trkpt>
        <trkpt lat="29.5675593" lon="103.3906871"><ele>686.84</ele><time>2025-09-18T16:39:35.000Z</time></trkpt>
        <trkpt lat="29.5675056" lon="103.3905802"><ele>688.74</ele><time>2025-09-18T16:39:43.000Z</time></trkpt>
        <trkpt lat="29.5674635" lon="103.3904492"><ele>690.38</ele><time>2025-09-18T16:39:51.000Z</time></trkpt>
        <trkpt lat="29.567386" lon="103.390403"><ele>691.7</ele><time>2025-09-18T16:39:59.000Z</time></trkpt>
        <trkpt lat="29.5673086" lon="103.3903488"><ele>691.36</ele><time>2025-09-18T16:40:07.000Z</time></trkpt>
        <trkpt lat="29.5673152" lon="103.3902167"><ele>690.39</ele><time>2025-09-18T16:40:11.000Z</time></trkpt>
        <trkpt lat="29.5672436" lon="103.3901455"><ele>686.01</ele><time>2025-09-18T16:40:25.000Z</time></trkpt>
        <trkpt lat="29.5671433" lon="103.3901814"><ele>679.78</ele><time>2025-09-18T16:40:29.000Z</time></trkpt>
        <trkpt lat="29.5670552" lon="103.3901496"><ele>675.66</ele><time>2025-09-18T16:40:33.000Z</time></trkpt>
        <trkpt lat="29.5669546" lon="103.3901249"><ele>672.96</ele><time>2025-09-18T16:40:41.000Z</time></trkpt>
        <trkpt lat="29.5668563" lon="103.3901378"><ele>673.13</ele><time>2025-09-18T16:40:47.000Z</time></trkpt>
        <trkpt lat="29.5667472" lon="103.3901312"><ele>675.8</ele><time>2025-09-18T16:40:55.000Z</time></trkpt>
        <trkpt lat="29.5666641" lon="103.3900647"><ele>681.27</ele><time>2025-09-18T16:41:03.000Z</time></trkpt>
        <trkpt lat="29.566587" lon="103.3899685"><ele>686.39</ele><time>2025-09-18T16:41:11.000Z</time></trkpt>
        <trkpt lat="29.5664958" lon="103.3898938"><ele>690.37</ele><time>2025-09-18T16:41:19.000Z</time></trkpt>
        <trkpt lat="29.5663996" lon="103.3898532"><ele>691.46</ele><time>2025-09-18T16:41:27.000Z</time></trkpt>
        <trkpt lat="29.5663046" lon="103.3898613"><ele>692.46</ele><time>2025-09-18T16:41:35.000Z</time></trkpt>
        <trkpt lat="29.56621" lon="103.3898389"><ele>694.79</ele><time>2025-09-18T16:41:43.000Z</time></trkpt>
        <trkpt lat="29.5661283" lon="103.3897746"><ele>696.45</ele><time>2025-09-18T16:41:51.000Z</time></trkpt>
        <trkpt lat="29.5660406" lon="103.3897415"><ele>697.07</ele><time>2025-09-18T16:41:59.000Z</time></trkpt>
        <trkpt lat="29.5659393" lon="103.3897393"><ele>697.31</ele><time>2025-09-18T16:42:11.000Z</time></trkpt>
        <trkpt lat="29.5658412" lon="103.3897876"><ele>698.13</ele><time>2025-09-18T16:42:21.000Z</time></trkpt>
        <trkpt lat="29.5657407" lon="103.3898096"><ele>698.75</ele><time>2025-09-18T16:42:31.000Z</time></trkpt>
        <trkpt lat="29.5656468" lon="103.3898199"><ele>699.21</ele><time>2025-09-18T16:42:45.000Z</time></trkpt>
        <trkpt lat="29.5656137" lon="103.3897381"><ele>700.06</ele><time>2025-09-18T16:42:53.000Z</time></trkpt>
        <trkpt lat="29.565554" lon="103.3896469"><ele>702.47</ele><time>2025-09-18T16:43:09.000Z</time></trkpt>
        <trkpt lat="29.5654718" lon="103.3895756"><ele>704.17</ele><time>2025-09-18T16:43:21.000Z</time></trkpt>
        <trkpt lat="29.5654195" lon="103.3895385"><ele>705.33</ele><time>2025-09-18T16:43:27.000Z</time></trkpt>
        <trkpt lat="29.5653245" lon="103.3895093"><ele>705.89</ele><time>2025-09-18T16:43:37.000Z</time></trkpt>
        <trkpt lat="29.5652376" lon="103.3894597"><ele>706.65</ele><time>2025-09-18T16:43:43.000Z</time></trkpt>
        <trkpt lat="29.5651371" lon="103.3894108"><ele>707.93</ele><time>2025-09-18T16:43:51.000Z</time></trkpt>
        <trkpt lat="29.5650585" lon="103.38933"><ele>707.1</ele><time>2025-09-18T16:43:59.000Z</time></trkpt>
        <trkpt lat="29.5649954" lon="103.3892428"><ele>707.02</ele><time>2025-09-18T16:44:07.000Z</time></trkpt>
        <trkpt lat="29.5649255" lon="103.3891487"><ele>707.65</ele><time>2025-09-18T16:44:17.000Z</time></trkpt>
        <trkpt lat="29.564885" lon="103.389048"><ele>708.01</ele><time>2025-09-18T16:44:27.000Z</time></trkpt>
        <trkpt lat="29.5648163" lon="103.3889636"><ele>709.02</ele><time>2025-09-18T16:44:37.000Z</time></trkpt>
        <trkpt lat="29.5647887" lon="103.3889576"><ele>707.99</ele><time>2025-09-18T16:44:39.000Z</time></trkpt>
        <trkpt lat="29.564712" lon="103.3889976"><ele>707.42</ele><time>2025-09-18T16:45:05.000Z</time></trkpt>
        <trkpt lat="29.5646126" lon="103.3890386"><ele>707.12</ele><time>2025-09-18T16:45:19.000Z</time></trkpt>
        <trkpt lat="29.5645061" lon="103.3890797"><ele>707.89</ele><time>2025-09-18T16:45:29.000Z</time></trkpt>
        <trkpt lat="29.5643983" lon="103.3891131"><ele>707.59</ele><time>2025-09-18T16:45:39.000Z</time></trkpt>
        <trkpt lat="29.5642895" lon="103.3891252"><ele>708.86</ele><time>2025-09-18T16:45:53.000Z</time></trkpt>
        <trkpt lat="29.5641932" lon="103.389113"><ele>710.49</ele><time>2025-09-18T16:46:01.000Z</time></trkpt>
        <trkpt lat="29.5641074" lon="103.3891509"><ele>709.75</ele><time>2025-09-18T16:46:11.000Z</time></trkpt>
        <trkpt lat="29.5640446" lon="103.3892264"><ele>708.97</ele><time>2025-09-18T16:46:21.000Z</time></trkpt>
        <trkpt lat="29.5639839" lon="103.389188"><ele>709.53</ele><time>2025-09-18T16:46:45.000Z</time></trkpt>
        <trkpt lat="29.5639368" lon="103.3890965"><ele>708.58</ele><time>2025-09-18T16:46:59.000Z</time></trkpt>
        <trkpt lat="29.5638833" lon="103.3891348"><ele>708.35</ele><time>2025-09-18T16:47:05.000Z</time></trkpt>
        <trkpt lat="29.5637944" lon="103.3891676"><ele>707.89</ele><time>2025-09-18T16:47:15.000Z</time></trkpt>
        <trkpt lat="29.5636944" lon="103.3891603"><ele>708.37</ele><time>2025-09-18T16:47:25.000Z</time></trkpt>
        <trkpt lat="29.5635992" lon="103.3891423"><ele>710.54</ele><time>2025-09-18T16:47:35.000Z</time></trkpt>
        <trkpt lat="29.5635062" lon="103.3890956"><ele>712.83</ele><time>2025-09-18T16:47:45.000Z</time></trkpt>
        <trkpt lat="29.5634091" lon="103.3890725"><ele>714.3</ele><time>2025-09-18T16:47:57.000Z</time></trkpt>
        <trkpt lat="29.5633024" lon="103.3890963"><ele>714.91</ele><time>2025-09-18T16:48:07.000Z</time></trkpt>
        <trkpt lat="29.563208" lon="103.3891326"><ele>713.94</ele><time>2025-09-18T16:48:15.000Z</time></trkpt>
        <trkpt lat="29.5631158" lon="103.3891463"><ele>715.06</ele><time>2025-09-18T16:48:25.000Z</time></trkpt>
        <trkpt lat="29.5630168" lon="103.3891568"><ele>717.39</ele><time>2025-09-18T16:48:37.000Z</time></trkpt>
        <trkpt lat="29.5629249" lon="103.3892013"><ele>722.08</ele><time>2025-09-18T16:48:49.000Z</time></trkpt>
        <trkpt lat="29.56283" lon="103.38923"><ele>725.87</ele><time>2025-09-18T16:49:11.000Z</time></trkpt>
        <trkpt lat="29.5627304" lon="103.3892383"><ele>727</ele><time>2025-09-18T16:49:23.000Z</time></trkpt>
        <trkpt lat="29.5626637" lon="103.3893044"><ele>728.14</ele><time>2025-09-18T16:49:35.000Z</time></trkpt>
        <trkpt lat="29.5626092" lon="103.3893923"><ele>727.99</ele><time>2025-09-18T16:49:45.000Z</time></trkpt>
        <trkpt lat="29.5625569" lon="103.3894393"><ele>728.08</ele><time>2025-09-18T16:49:59.000Z</time></trkpt>
        <trkpt lat="29.5624739" lon="103.3894325"><ele>728.08</ele><time>2025-09-18T16:50:17.000Z</time></trkpt>
        <trkpt lat="29.5623938" lon="103.3893711"><ele>726.9</ele><time>2025-09-18T16:50:27.000Z</time></trkpt>
        <trkpt lat="29.5623067" lon="103.3893645"><ele>728.55</ele><time>2025-09-18T16:51:01.000Z</time></trkpt>
        <trkpt lat="29.5622968" lon="103.3894733"><ele>730.66</ele><time>2025-09-18T16:52:14.000Z</time></trkpt>
        <trkpt lat="29.5622078" lon="103.3895102"><ele>732.25</ele><time>2025-09-18T16:52:24.000Z</time></trkpt>
        <trkpt lat="29.5621155" lon="103.389548"><ele>734.67</ele><time>2025-09-18T16:52:42.000Z</time></trkpt>
        <trkpt lat="29.5620272" lon="103.389532"><ele>733.02</ele><time>2025-09-18T16:52:50.000Z</time></trkpt>
        <trkpt lat="29.5619319" lon="103.389503"><ele>732.01</ele><time>2025-09-18T16:53:01.000Z</time></trkpt>
        <trkpt lat="29.5618382" lon="103.3894768"><ele>733.65</ele><time>2025-09-18T16:53:19.000Z</time></trkpt>
        <trkpt lat="29.5617506" lon="103.3894098"><ele>735.99</ele><time>2025-09-18T16:53:31.000Z</time></trkpt>
        <trkpt lat="29.5616634" lon="103.3893625"><ele>738.69</ele><time>2025-09-18T16:53:39.000Z</time></trkpt>
        <trkpt lat="29.5615575" lon="103.3893342"><ele>740.69</ele><time>2025-09-18T16:53:47.000Z</time></trkpt>
        <trkpt lat="29.5614509" lon="103.3893256"><ele>740.27</ele><time>2025-09-18T16:53:55.000Z</time></trkpt>
        <trkpt lat="29.5613439" lon="103.3893153"><ele>741.17</ele><time>2025-09-18T16:54:03.000Z</time></trkpt>
        <trkpt lat="29.5612373" lon="103.389311"><ele>741.68</ele><time>2025-09-18T16:54:13.000Z</time></trkpt>
        <trkpt lat="29.5611431" lon="103.389353"><ele>741.04</ele><time>2025-09-18T16:54:23.000Z</time></trkpt>
        <trkpt lat="29.5610494" lon="103.3894057"><ele>741.13</ele><time>2025-09-18T16:54:33.000Z</time></trkpt>
        <trkpt lat="29.5609427" lon="103.3894382"><ele>742.3</ele><time>2025-09-18T16:54:43.000Z</time></trkpt>
        <trkpt lat="29.5608407" lon="103.3894729"><ele>742.98</ele><time>2025-09-18T16:54:51.000Z</time></trkpt>
        <trkpt lat="29.5607406" lon="103.3894973"><ele>742.23</ele><time>2025-09-18T16:54:59.000Z</time></trkpt>
        <trkpt lat="29.56064" lon="103.3895177"><ele>740.09</ele><time>2025-09-18T16:55:07.000Z</time></trkpt>
        <trkpt lat="29.5605377" lon="103.3895417"><ele>740.37</ele><time>2025-09-18T16:55:15.000Z</time></trkpt>
        <trkpt lat="29.560453" lon="103.3895067"><ele>742.24</ele><time>2025-09-18T16:55:21.000Z</time></trkpt>
        <trkpt lat="29.5604409" lon="103.3894849"><ele>744.46</ele><time>2025-09-18T16:55:23.000Z</time></trkpt>
        <trkpt lat="29.5603754" lon="103.3894821"><ele>745.56</ele><time>2025-09-18T16:55:42.000Z</time></trkpt>
        <trkpt lat="29.5602811" lon="103.3894666"><ele>747.5</ele><time>2025-09-18T16:55:54.000Z</time></trkpt>
        <trkpt lat="29.560232" lon="103.3893733"><ele>749.77</ele><time>2025-09-18T16:56:04.000Z</time></trkpt>
        <trkpt lat="29.5601764" lon="103.3892756"><ele>751.7</ele><time>2025-09-18T16:56:36.000Z</time></trkpt>
        <trkpt lat="29.5601334" lon="103.3891697"><ele>752.48</ele><time>2025-09-18T16:56:50.000Z</time></trkpt>
        <trkpt lat="29.5601155" lon="103.3890578"><ele>754.1</ele><time>2025-09-18T16:56:58.000Z</time></trkpt>
        <trkpt lat="29.560088" lon="103.3889421"><ele>753.84</ele><time>2025-09-18T16:57:10.000Z</time></trkpt>
        <trkpt lat="29.5600819" lon="103.3888254"><ele>752.88</ele><time>2025-09-18T16:57:22.000Z</time></trkpt>
        <trkpt lat="29.5601414" lon="103.3887434"><ele>755</ele><time>2025-09-18T16:57:34.000Z</time></trkpt>
        <trkpt lat="29.5600941" lon="103.3886929"><ele>758.88</ele><time>2025-09-18T16:57:46.000Z</time></trkpt>
        <trkpt lat="29.5600085" lon="103.388657"><ele>760.17</ele><time>2025-09-18T16:57:54.000Z</time></trkpt>
        <trkpt lat="29.5599091" lon="103.3886076"><ele>760.26</ele><time>2025-09-18T16:58:02.000Z</time></trkpt>
        <trkpt lat="29.559821" lon="103.3885437"><ele>761.73</ele><time>2025-09-18T16:58:10.000Z</time></trkpt>
        <trkpt lat="29.5597287" lon="103.3884743"><ele>762.77</ele><time>2025-09-18T16:58:20.000Z</time></trkpt>
        <trkpt lat="29.5596624" lon="103.3883857"><ele>763.01</ele><time>2025-09-18T16:58:30.000Z</time></trkpt>
        <trkpt lat="29.5596325" lon="103.3882776"><ele>762.78</ele><time>2025-09-18T16:58:38.000Z</time></trkpt>
        <trkpt lat="29.5596058" lon="103.3881687"><ele>761.47</ele><time>2025-09-18T16:58:46.000Z</time></trkpt>
        <trkpt lat="29.5595331" lon="103.3880882"><ele>760.19</ele><time>2025-09-18T16:58:54.000Z</time></trkpt>
        <trkpt lat="29.55945" lon="103.3880362"><ele>761.02</ele><time>2025-09-18T16:59:02.000Z</time></trkpt>
        <trkpt lat="29.5593482" lon="103.3879901"><ele>760.89</ele><time>2025-09-18T16:59:14.000Z</time></trkpt>
        <trkpt lat="29.5592524" lon="103.3879438"><ele>760.75</ele><time>2025-09-18T16:59:20.000Z</time></trkpt>
        <trkpt lat="29.5591471" lon="103.387912"><ele>761.26</ele><time>2025-09-18T16:59:28.000Z</time></trkpt>
        <trkpt lat="29.559038" lon="103.3879135"><ele>763.03</ele><time>2025-09-18T16:59:38.000Z</time></trkpt>
        <trkpt lat="29.5589405" lon="103.3879056"><ele>764.54</ele><time>2025-09-18T16:59:46.000Z</time></trkpt>
        <trkpt lat="29.558838" lon="103.3878945"><ele>765.78</ele><time>2025-09-18T16:59:56.000Z</time></trkpt>
        <trkpt lat="29.5587443" lon="103.3878619"><ele>767.18</ele><time>2025-09-18T17:00:04.000Z</time></trkpt>
        <trkpt lat="29.5586599" lon="103.3878104"><ele>768.55</ele><time>2025-09-18T17:00:12.000Z</time></trkpt>
        <trkpt lat="29.5585752" lon="103.3877584"><ele>769.69</ele><time>2025-09-18T17:00:20.000Z</time></trkpt>
        <trkpt lat="29.5584787" lon="103.3877312"><ele>769.13</ele><time>2025-09-18T17:00:30.000Z</time></trkpt>
        <trkpt lat="29.5584093" lon="103.3876532"><ele>769.73</ele><time>2025-09-18T17:00:38.000Z</time></trkpt>
        <trkpt lat="29.5583445" lon="103.3875626"><ele>770.52</ele><time>2025-09-18T17:00:46.000Z</time></trkpt>
        <trkpt lat="29.558286" lon="103.3874678"><ele>770.04</ele><time>2025-09-18T17:00:54.000Z</time></trkpt>
        <trkpt lat="29.5582327" lon="103.3873583"><ele>770.17</ele><time>2025-09-18T17:01:04.000Z</time></trkpt>
        <trkpt lat="29.5581598" lon="103.3872799"><ele>771.04</ele><time>2025-09-18T17:01:14.000Z</time></trkpt>
        <trkpt lat="29.5580954" lon="103.3872044"><ele>772.77</ele><time>2025-09-18T17:01:38.000Z</time></trkpt>
        <trkpt lat="29.5580096" lon="103.3871554"><ele>776.77</ele><time>2025-09-18T17:01:50.000Z</time></trkpt>
        <trkpt lat="29.5579188" lon="103.3871102"><ele>778.13</ele><time>2025-09-18T17:02:00.000Z</time></trkpt>
        <trkpt lat="29.5578165" lon="103.3871054"><ele>779.63</ele><time>2025-09-18T17:02:08.000Z</time></trkpt>
        <trkpt lat="29.5577174" lon="103.3870826"><ele>780.87</ele><time>2025-09-18T17:02:16.000Z</time></trkpt>
        <trkpt lat="29.5576596" lon="103.3869964"><ele>781.84</ele><time>2025-09-18T17:02:28.000Z</time></trkpt>
        <trkpt lat="29.5576513" lon="103.3868813"><ele>784.35</ele><time>2025-09-18T17:02:38.000Z</time></trkpt>
        <trkpt lat="29.5576282" lon="103.3867682"><ele>785.81</ele><time>2025-09-18T17:02:52.000Z</time></trkpt>
        <trkpt lat="29.5575738" lon="103.3866759"><ele>786.13</ele><time>2025-09-18T17:03:02.000Z</time></trkpt>
        <trkpt lat="29.5575285" lon="103.386574"><ele>784.8</ele><time>2025-09-18T17:03:12.000Z</time></trkpt>
        <trkpt lat="29.5574521" lon="103.3864869"><ele>784.55</ele><time>2025-09-18T17:03:22.000Z</time></trkpt>
        <trkpt lat="29.5573561" lon="103.3864221"><ele>785.04</ele><time>2025-09-18T17:03:32.000Z</time></trkpt>
        <trkpt lat="29.5572734" lon="103.3863636"><ele>785.81</ele><time>2025-09-18T17:03:44.000Z</time></trkpt>
        <trkpt lat="29.557182" lon="103.3863533"><ele>786.83</ele><time>2025-09-18T17:03:54.000Z</time></trkpt>
        <trkpt lat="29.5570876" lon="103.3864056"><ele>786.21</ele><time>2025-09-18T17:04:04.000Z</time></trkpt>
        <trkpt lat="29.5570153" lon="103.3863663"><ele>787.1</ele><time>2025-09-18T17:04:16.000Z</time></trkpt>
        <trkpt lat="29.5570007" lon="103.3862705"><ele>789.37</ele><time>2025-09-18T17:04:26.000Z</time></trkpt>
        <trkpt lat="29.5569439" lon="103.3861663"><ele>787.8</ele><time>2025-09-18T17:04:36.000Z</time></trkpt>
        <trkpt lat="29.5568765" lon="103.3860707"><ele>787.27</ele><time>2025-09-18T17:04:44.000Z</time></trkpt>
        <trkpt lat="29.5568539" lon="103.38604"><ele>788.75</ele><time>2025-09-18T17:04:46.000Z</time></trkpt>
        <trkpt lat="29.556779" lon="103.3860166"><ele>790.07</ele><time>2025-09-18T17:05:08.000Z</time></trkpt>
        <trkpt lat="29.556685" lon="103.3860481"><ele>790.97</ele><time>2025-09-18T17:05:22.000Z</time></trkpt>
        <trkpt lat="29.5565894" lon="103.3860881"><ele>789.81</ele><time>2025-09-18T17:05:34.000Z</time></trkpt>
        <trkpt lat="29.5565318" lon="103.3861207"><ele>788.99</ele><time>2025-09-18T17:05:44.000Z</time></trkpt>
        <trkpt lat="29.5564539" lon="103.3860698"><ele>790.32</ele><time>2025-09-18T17:07:22.000Z</time></trkpt>
        <trkpt lat="29.5564605" lon="103.3859636"><ele>795.66</ele><time>2025-09-18T17:07:40.000Z</time></trkpt>
        <trkpt lat="29.556407" lon="103.3858775"><ele>801.07</ele><time>2025-09-18T17:07:56.000Z</time></trkpt>
        <trkpt lat="29.5563732" lon="103.3859424"><ele>805.74</ele><time>2025-09-18T17:08:06.000Z</time></trkpt>
        <trkpt lat="29.5563416" lon="103.3860536"><ele>808.84</ele><time>2025-09-18T17:08:24.000Z</time></trkpt>
        <trkpt lat="29.5562862" lon="103.3861634"><ele>812.13</ele><time>2025-09-18T17:08:44.000Z</time></trkpt>
        <trkpt lat="29.5562012" lon="103.3861841"><ele>819.7</ele><time>2025-09-18T17:09:10.000Z</time></trkpt>
        <trkpt lat="29.5560996" lon="103.3861745"><ele>823.35</ele><time>2025-09-18T17:09:26.000Z</time></trkpt>
        <trkpt lat="29.5560013" lon="103.3861801"><ele>828.21</ele><time>2025-09-18T17:09:50.000Z</time></trkpt>
        <trkpt lat="29.5559282" lon="103.3861183"><ele>831.33</ele><time>2025-09-18T17:10:08.000Z</time></trkpt>
        <trkpt lat="29.5559584" lon="103.38603"><ele>833.49</ele><time>2025-09-18T17:10:36.000Z</time></trkpt>
        <trkpt lat="29.5560445" lon="103.3859589"><ele>838.98</ele><time>2025-09-18T17:10:46.000Z</time></trkpt>
        <trkpt lat="29.5560145" lon="103.3858914"><ele>838.9</ele><time>2025-09-18T17:11:08.000Z</time></trkpt>
        <trkpt lat="29.5560396" lon="103.3857987"><ele>841.86</ele><time>2025-09-18T17:11:30.000Z</time></trkpt>
        <trkpt lat="29.5560419" lon="103.3856909"><ele>842</ele><time>2025-09-18T17:11:46.000Z</time></trkpt>
        <trkpt lat="29.5560545" lon="103.3855781"><ele>841.84</ele><time>2025-09-18T17:12:00.000Z</time></trkpt>
        <trkpt lat="29.5560713" lon="103.3854677"><ele>844.19</ele><time>2025-09-18T17:12:42.000Z</time></trkpt>
        <trkpt lat="29.5560221" lon="103.38549"><ele>848.58</ele><time>2025-09-18T17:13:08.000Z</time></trkpt>
        <trkpt lat="29.5559629" lon="103.3855806"><ele>853.94</ele><time>2025-09-18T17:13:22.000Z</time></trkpt>
        <trkpt lat="29.5559351" lon="103.385538"><ele>856.42</ele><time>2025-09-18T17:13:48.000Z</time></trkpt>
        <trkpt lat="29.5558613" lon="103.3855451"><ele>858.43</ele><time>2025-09-18T17:14:46.000Z</time></trkpt>
        <trkpt lat="29.555791" lon="103.3856107"><ele>862.1</ele><time>2025-09-18T17:15:02.000Z</time></trkpt>
        <trkpt lat="29.5557318" lon="103.3855666"><ele>868.48</ele><time>2025-09-18T17:15:16.000Z</time></trkpt>
        <trkpt lat="29.5556955" lon="103.3854713"><ele>873.66</ele><time>2025-09-18T17:15:44.000Z</time></trkpt>
        <trkpt lat="29.5556373" lon="103.3853853"><ele>879.05</ele><time>2025-09-18T17:16:08.000Z</time></trkpt>
        <trkpt lat="29.5556275" lon="103.3852809"><ele>883.69</ele><time>2025-09-18T17:16:24.000Z</time></trkpt>
        <trkpt lat="29.5556559" lon="103.3851749"><ele>886.04</ele><time>2025-09-18T17:16:40.000Z</time></trkpt>
        <trkpt lat="29.5556691" lon="103.3850652"><ele>888.99</ele><time>2025-09-18T17:16:58.000Z</time></trkpt>
        <trkpt lat="29.5556097" lon="103.3850634"><ele>891.75</ele><time>2025-09-18T17:17:16.000Z</time></trkpt>
        <trkpt lat="29.5555094" lon="103.3850166"><ele>894.89</ele><time>2025-09-18T17:19:16.000Z</time></trkpt>
        <trkpt lat="29.5555237" lon="103.3851214"><ele>897.32</ele><time>2025-09-18T17:23:18.000Z</time></trkpt>
        <trkpt lat="29.5554559" lon="103.3850525"><ele>899.66</ele><time>2025-09-18T17:23:28.000Z</time></trkpt>
        <trkpt lat="29.5553633" lon="103.3850129"><ele>901.16</ele><time>2025-09-18T17:23:50.000Z</time></trkpt>
        <trkpt lat="29.5552712" lon="103.3849895"><ele>903.69</ele><time>2025-09-18T17:24:06.000Z</time></trkpt>
        <trkpt lat="29.5551734" lon="103.384977"><ele>905.55</ele><time>2025-09-18T17:24:28.000Z</time></trkpt>
        <trkpt lat="29.5550751" lon="103.3849845"><ele>910.26</ele><time>2025-09-18T17:24:46.000Z</time></trkpt>
        <trkpt lat="29.5549803" lon="103.3849763"><ele>914.64</ele><time>2025-09-18T17:25:02.000Z</time></trkpt>
        <trkpt lat="29.5548865" lon="103.3849404"><ele>918.33</ele><time>2025-09-18T17:25:16.000Z</time></trkpt>
        <trkpt lat="29.5548106" lon="103.3848716"><ele>921.89</ele><time>2025-09-18T17:25:28.000Z</time></trkpt>
        <trkpt lat="29.5547598" lon="103.3847741"><ele>924.74</ele><time>2025-09-18T17:25:40.000Z</time></trkpt>
        <trkpt lat="29.5546978" lon="103.3846929"><ele>925.77</ele><time>2025-09-18T17:25:52.000Z</time></trkpt>
        <trkpt lat="29.5546367" lon="103.3846078"><ele>927.59</ele><time>2025-09-18T17:26:08.000Z</time></trkpt>
        <trkpt lat="29.554667" lon="103.3845188"><ele>929.03</ele><time>2025-09-18T17:26:38.000Z</time></trkpt>
        <trkpt lat="29.5547534" lon="103.3844839"><ele>933.93</ele><time>2025-09-18T17:26:56.000Z</time></trkpt>
        <trkpt lat="29.5548419" lon="103.3844326"><ele>938.18</ele><time>2025-09-18T17:27:20.000Z</time></trkpt>
        <trkpt lat="29.5549103" lon="103.3843565"><ele>941.11</ele><time>2025-09-18T17:27:38.000Z</time></trkpt>
        <trkpt lat="29.5549896" lon="103.3843011"><ele>944.73</ele><time>2025-09-18T17:27:54.000Z</time></trkpt>
        <trkpt lat="29.5550696" lon="103.3842391"><ele>948.76</ele><time>2025-09-18T17:28:16.000Z</time></trkpt>
        <trkpt lat="29.5550666" lon="103.3841477"><ele>954.55</ele><time>2025-09-18T17:28:32.000Z</time></trkpt>
        <trkpt lat="29.5550003" lon="103.3840625"><ele>956.9</ele><time>2025-09-18T17:28:48.000Z</time></trkpt>
        <trkpt lat="29.554954" lon="103.3839572"><ele>960</ele><time>2025-09-18T17:29:14.000Z</time></trkpt>
        <trkpt lat="29.5549376" lon="103.3838487"><ele>963.55</ele><time>2025-09-18T17:29:22.000Z</time></trkpt>
        <trkpt lat="29.5549803" lon="103.3837456"><ele>965.11</ele><time>2025-09-18T17:29:32.000Z</time></trkpt>
        <trkpt lat="29.5550557" lon="103.3836538"><ele>966.03</ele><time>2025-09-18T17:29:42.000Z</time></trkpt>
        <trkpt lat="29.5550474" lon="103.3835482"><ele>968.47</ele><time>2025-09-18T17:29:56.000Z</time></trkpt>
        <trkpt lat="29.554991" lon="103.3834535"><ele>967.63</ele><time>2025-09-18T17:30:04.000Z</time></trkpt>
        <trkpt lat="29.5548943" lon="103.3833963"><ele>966.34</ele><time>2025-09-18T17:30:14.000Z</time></trkpt>
        <trkpt lat="29.5547972" lon="103.3833294"><ele>965.66</ele><time>2025-09-18T17:30:24.000Z</time></trkpt>
        <trkpt lat="29.5546859" lon="103.3833047"><ele>964.79</ele><time>2025-09-18T17:30:34.000Z</time></trkpt>
        <trkpt lat="29.5545715" lon="103.3832785"><ele>963.03</ele><time>2025-09-18T17:30:42.000Z</time></trkpt>
        <trkpt lat="29.5544704" lon="103.3832596"><ele>961.54</ele><time>2025-09-18T17:30:50.000Z</time></trkpt>
        <trkpt lat="29.5543979" lon="103.3831891"><ele>960.78</ele><time>2025-09-18T17:30:58.000Z</time></trkpt>
        <trkpt lat="29.5543722" lon="103.3830855"><ele>960.48</ele><time>2025-09-18T17:31:06.000Z</time></trkpt>
        <trkpt lat="29.5543068" lon="103.3830068"><ele>962.12</ele><time>2025-09-18T17:31:20.000Z</time></trkpt>
        <trkpt lat="29.5542902" lon="103.3828955"><ele>964.38</ele><time>2025-09-18T17:31:34.000Z</time></trkpt>
        <trkpt lat="29.55432" lon="103.3827841"><ele>966.82</ele><time>2025-09-18T17:31:50.000Z</time></trkpt>
        <trkpt lat="29.5543649" lon="103.382682"><ele>971.8</ele><time>2025-09-18T17:32:12.000Z</time></trkpt>
        <trkpt lat="29.5543476" lon="103.3825838"><ele>977.81</ele><time>2025-09-18T17:32:40.000Z</time></trkpt>
        <trkpt lat="29.5543041" lon="103.3824924"><ele>981.23</ele><time>2025-09-18T17:33:15.000Z</time></trkpt>
        <trkpt lat="29.5542407" lon="103.3824007"><ele>985.8</ele><time>2025-09-18T17:33:33.000Z</time></trkpt>
        <trkpt lat="29.5542193" lon="103.3822921"><ele>989.64</ele><time>2025-09-18T17:33:45.000Z</time></trkpt>
        <trkpt lat="29.5542339" lon="103.3821798"><ele>993.05</ele><time>2025-09-18T17:33:57.000Z</time></trkpt>
        <trkpt lat="29.5542126" lon="103.3820648"><ele>995.52</ele><time>2025-09-18T17:34:09.000Z</time></trkpt>
        <trkpt lat="29.5541923" lon="103.3819485"><ele>995.31</ele><time>2025-09-18T17:34:21.000Z</time></trkpt>
        <trkpt lat="29.5541655" lon="103.3818441"><ele>995.02</ele><time>2025-09-18T17:34:31.000Z</time></trkpt>
        <trkpt lat="29.5541329" lon="103.3817416"><ele>995.45</ele><time>2025-09-18T17:34:45.000Z</time></trkpt>
        <trkpt lat="29.5540836" lon="103.3816392"><ele>996.88</ele><time>2025-09-18T17:34:59.000Z</time></trkpt>
        <trkpt lat="29.5540415" lon="103.3815355"><ele>997.52</ele><time>2025-09-18T17:35:11.000Z</time></trkpt>
        <trkpt lat="29.5540262" lon="103.3814127"><ele>998.12</ele><time>2025-09-18T17:35:21.000Z</time></trkpt>
        <trkpt lat="29.554022" lon="103.3812946"><ele>999.53</ele><time>2025-09-18T17:35:31.000Z</time></trkpt>
        <trkpt lat="29.5540067" lon="103.3811883"><ele>1000.81</ele><time>2025-09-18T17:35:39.000Z</time></trkpt>
        <trkpt lat="29.5539613" lon="103.3810899"><ele>1001.86</ele><time>2025-09-18T17:35:49.000Z</time></trkpt>
        <trkpt lat="29.5539076" lon="103.3810018"><ele>1002.85</ele><time>2025-09-18T17:35:59.000Z</time></trkpt>
        <trkpt lat="29.5539169" lon="103.380892"><ele>1004.45</ele><time>2025-09-18T17:36:09.000Z</time></trkpt>
        <trkpt lat="29.5539544" lon="103.3807872"><ele>1006.02</ele><time>2025-09-18T17:36:19.000Z</time></trkpt>
        <trkpt lat="29.5540241" lon="103.3806948"><ele>1008.23</ele><time>2025-09-18T17:36:31.000Z</time></trkpt>
        <trkpt lat="29.5540528" lon="103.3805875"><ele>1011.1</ele><time>2025-09-18T17:36:43.000Z</time></trkpt>
        <trkpt lat="29.5540426" lon="103.3804826"><ele>1013.5</ele><time>2025-09-18T17:36:55.000Z</time></trkpt>
        <trkpt lat="29.5540245" lon="103.3803669"><ele>1013.76</ele><time>2025-09-18T17:37:05.000Z</time></trkpt>
        <trkpt lat="29.5540218" lon="103.3802492"><ele>1013.83</ele><time>2025-09-18T17:37:15.000Z</time></trkpt>
        <trkpt lat="29.5540169" lon="103.3801289"><ele>1014.04</ele><time>2025-09-18T17:37:25.000Z</time></trkpt>
        <trkpt lat="29.5539914" lon="103.3800218"><ele>1014.64</ele><time>2025-09-18T17:37:35.000Z</time></trkpt>
        <trkpt lat="29.5539512" lon="103.3799183"><ele>1015.66</ele><time>2025-09-18T17:37:47.000Z</time></trkpt>
        <trkpt lat="29.553909" lon="103.3798224"><ele>1016.6</ele><time>2025-09-18T17:38:03.000Z</time></trkpt>
        <trkpt lat="29.5538918" lon="103.3797219"><ele>1018.95</ele><time>2025-09-18T17:38:29.000Z</time></trkpt>
        <trkpt lat="29.5538789" lon="103.379618"><ele>1022.18</ele><time>2025-09-18T17:38:47.000Z</time></trkpt>
        <trkpt lat="29.5538535" lon="103.3795087"><ele>1026.25</ele><time>2025-09-18T17:39:05.000Z</time></trkpt>
        <trkpt lat="29.5538216" lon="103.379404"><ele>1028.87</ele><time>2025-09-18T17:39:21.000Z</time></trkpt>
        <trkpt lat="29.553792" lon="103.3792957"><ele>1031.86</ele><time>2025-09-18T17:39:37.000Z</time></trkpt>
        <trkpt lat="29.5537578" lon="103.379197"><ele>1034.34</ele><time>2025-09-18T17:39:49.000Z</time></trkpt>
        <trkpt lat="29.5537338" lon="103.3790906"><ele>1035.37</ele><time>2025-09-18T17:40:01.000Z</time></trkpt>
        <trkpt lat="29.5537354" lon="103.3789837"><ele>1037.05</ele><time>2025-09-18T17:40:11.000Z</time></trkpt>
        <trkpt lat="29.5537643" lon="103.3788835"><ele>1037.58</ele><time>2025-09-18T17:40:19.000Z</time></trkpt>
        <trkpt lat="29.5538016" lon="103.3787693"><ele>1038.59</ele><time>2025-09-18T17:40:29.000Z</time></trkpt>
        <trkpt lat="29.5538126" lon="103.3786484"><ele>1040.07</ele><time>2025-09-18T17:40:39.000Z</time></trkpt>
        <trkpt lat="29.5537811" lon="103.3785475"><ele>1040.71</ele><time>2025-09-18T17:40:51.000Z</time></trkpt>
        <trkpt lat="29.553741" lon="103.37845"><ele>1042.12</ele><time>2025-09-18T17:41:05.000Z</time></trkpt>
        <trkpt lat="29.5537213" lon="103.378338"><ele>1045.85</ele><time>2025-09-18T17:41:39.000Z</time></trkpt>
        <trkpt lat="29.5536646" lon="103.378248"><ele>1048.92</ele><time>2025-09-18T17:41:45.000Z</time></trkpt>
        <trkpt lat="29.5536213" lon="103.3781994"><ele>1050.51</ele><time>2025-09-18T17:41:51.000Z</time></trkpt>
        <trkpt lat="29.5535919" lon="103.3781163"><ele>1051.44</ele><time>2025-09-18T17:42:11.000Z</time></trkpt>
        <trkpt lat="29.5535584" lon="103.3780202"><ele>1053.51</ele><time>2025-09-18T17:43:11.000Z</time></trkpt>
        <trkpt lat="29.5534918" lon="103.3779542"><ele>1056.09</ele><time>2025-09-18T17:43:29.000Z</time></trkpt>
        <trkpt lat="29.5534331" lon="103.3778749"><ele>1059.59</ele><time>2025-09-18T17:43:59.000Z</time></trkpt>
        <trkpt lat="29.553365" lon="103.3777989"><ele>1065.69</ele><time>2025-09-18T17:44:23.000Z</time></trkpt>
        <trkpt lat="29.5532766" lon="103.3777596"><ele>1070.33</ele><time>2025-09-18T17:44:55.000Z</time></trkpt>
        <trkpt lat="29.5531956" lon="103.3777103"><ele>1075.98</ele><time>2025-09-18T17:45:19.000Z</time></trkpt>
        <trkpt lat="29.553145" lon="103.377616"><ele>1080.91</ele><time>2025-09-18T17:46:15.000Z</time></trkpt>
        <trkpt lat="29.5530812" lon="103.3775311"><ele>1084.82</ele><time>2025-09-18T17:46:37.000Z</time></trkpt>
        <trkpt lat="29.5530118" lon="103.3774601"><ele>1088.41</ele><time>2025-09-18T17:46:59.000Z</time></trkpt>
        <trkpt lat="29.5529579" lon="103.3773746"><ele>1091.02</ele><time>2025-09-18T17:47:21.000Z</time></trkpt>
        <trkpt lat="29.5529039" lon="103.3772874"><ele>1094.03</ele><time>2025-09-18T17:47:55.000Z</time></trkpt>
        <trkpt lat="29.552826" lon="103.3772311"><ele>1099.61</ele><time>2025-09-18T17:48:09.000Z</time></trkpt>
        <trkpt lat="29.5527349" lon="103.3772312"><ele>1103.31</ele><time>2025-09-18T17:48:35.000Z</time></trkpt>
        <trkpt lat="29.5526421" lon="103.3772139"><ele>1108.42</ele><time>2025-09-18T17:48:49.000Z</time></trkpt>
        <trkpt lat="29.5526527" lon="103.377139"><ele>1112.19</ele><time>2025-09-18T17:49:21.000Z</time></trkpt>
        <trkpt lat="29.5525981" lon="103.3770997"><ele>1116.21</ele><time>2025-09-18T17:49:41.000Z</time></trkpt>
        <trkpt lat="29.5525084" lon="103.3770833"><ele>1119.57</ele><time>2025-09-18T17:50:15.000Z</time></trkpt>
        <trkpt lat="29.5524198" lon="103.3770438"><ele>1122.88</ele><time>2025-09-18T17:50:33.000Z</time></trkpt>
        <trkpt lat="29.5523214" lon="103.3770235"><ele>1126.84</ele><time>2025-09-18T17:50:59.000Z</time></trkpt>
        <trkpt lat="29.5522304" lon="103.3769887"><ele>1130.81</ele><time>2025-09-18T17:51:25.000Z</time></trkpt>
        <trkpt lat="29.5521432" lon="103.3769425"><ele>1134.92</ele><time>2025-09-18T17:51:43.000Z</time></trkpt>
        <trkpt lat="29.552061" lon="103.3768917"><ele>1138.84</ele><time>2025-09-18T17:52:01.000Z</time></trkpt>
        <trkpt lat="29.5519834" lon="103.3768356"><ele>1142.41</ele><time>2025-09-18T17:52:27.000Z</time></trkpt>
        <trkpt lat="29.5518912" lon="103.376822"><ele>1146.54</ele><time>2025-09-18T17:55:13.000Z</time></trkpt>
        <trkpt lat="29.5518854" lon="103.3768045"><ele>1149.33</ele><time>2025-09-18T17:55:17.000Z</time></trkpt>
        <trkpt lat="29.5519754" lon="103.3768269"><ele>1149.56</ele><time>2025-09-18T17:56:25.000Z</time></trkpt>
        <trkpt lat="29.5518841" lon="103.3767675"><ele>1150.32</ele><time>2025-09-18T17:57:31.000Z</time></trkpt>
        <trkpt lat="29.5518463" lon="103.3767805"><ele>1148.14</ele><time>2025-09-18T17:57:35.000Z</time></trkpt>
        <trkpt lat="29.5518762" lon="103.3768643"><ele>1147.3</ele><time>2025-09-18T17:58:27.000Z</time></trkpt>
        <trkpt lat="29.5518089" lon="103.3768607"><ele>1144.78</ele><time>2025-09-18T17:58:37.000Z</time></trkpt>
        <trkpt lat="29.5517888" lon="103.3767696"><ele>1142.12</ele><time>2025-09-18T17:58:51.000Z</time></trkpt>
        <trkpt lat="29.5517573" lon="103.3766604"><ele>1146.17</ele><time>2025-09-18T17:58:59.000Z</time></trkpt>
        <trkpt lat="29.5517606" lon="103.3765468"><ele>1152.28</ele><time>2025-09-18T17:59:25.000Z</time></trkpt>
        <trkpt lat="29.5517449" lon="103.3764275"><ele>1159.36</ele><time>2025-09-18T17:59:59.000Z</time></trkpt>
        <trkpt lat="29.5516923" lon="103.376338"><ele>1165.05</ele><time>2025-09-18T18:00:47.000Z</time></trkpt>
        <trkpt lat="29.5517027" lon="103.3762323"><ele>1172.18</ele><time>2025-09-18T18:01:05.000Z</time></trkpt>
        <trkpt lat="29.551687" lon="103.3761274"><ele>1176.81</ele><time>2025-09-18T18:01:23.000Z</time></trkpt>
        <trkpt lat="29.5516794" lon="103.3760206"><ele>1179.3</ele><time>2025-09-18T18:01:53.000Z</time></trkpt>
        <trkpt lat="29.5516717" lon="103.3759158"><ele>1184.71</ele><time>2025-09-18T18:02:07.000Z</time></trkpt>
        <trkpt lat="29.5516809" lon="103.3758046"><ele>1187.94</ele><time>2025-09-18T18:02:25.000Z</time></trkpt>
        <trkpt lat="29.5516532" lon="103.375693"><ele>1192.22</ele><time>2025-09-18T18:02:35.000Z</time></trkpt>
        <trkpt lat="29.551593" lon="103.3755895"><ele>1195.59</ele><time>2025-09-18T18:02:47.000Z</time></trkpt>
        <trkpt lat="29.5515225" lon="103.3755069"><ele>1196.46</ele><time>2025-09-18T18:02:55.000Z</time></trkpt>
        <trkpt lat="29.5514335" lon="103.3754321"><ele>1195.48</ele><time>2025-09-18T18:03:07.000Z</time></trkpt>
        <trkpt lat="29.5513363" lon="103.3753844"><ele>1196.22</ele><time>2025-09-18T18:03:17.000Z</time></trkpt>
        <trkpt lat="29.5512334" lon="103.3753813"><ele>1195.15</ele><time>2025-09-18T18:03:37.000Z</time></trkpt>
        <trkpt lat="29.5511367" lon="103.3753526"><ele>1196.31</ele><time>2025-09-18T18:03:57.000Z</time></trkpt>
        <trkpt lat="29.5510679" lon="103.3752794"><ele>1199.63</ele><time>2025-09-18T18:04:09.000Z</time></trkpt>
        <trkpt lat="29.550987" lon="103.3752706"><ele>1202.44</ele><time>2025-09-18T18:04:25.000Z</time></trkpt>
        <trkpt lat="29.5508988" lon="103.3752867"><ele>1204.49</ele><time>2025-09-18T18:04:39.000Z</time></trkpt>
        <trkpt lat="29.5508159" lon="103.375256"><ele>1205.86</ele><time>2025-09-18T18:04:49.000Z</time></trkpt>
        <trkpt lat="29.5507354" lon="103.3751905"><ele>1207.36</ele><time>2025-09-18T18:04:59.000Z</time></trkpt>
        <trkpt lat="29.5506491" lon="103.3751502"><ele>1207.64</ele><time>2025-09-18T18:05:09.000Z</time></trkpt>
        <trkpt lat="29.550565" lon="103.3751019"><ele>1207.74</ele><time>2025-09-18T18:05:17.000Z</time></trkpt>
        <trkpt lat="29.5504813" lon="103.3750603"><ele>1208.09</ele><time>2025-09-18T18:05:25.000Z</time></trkpt>
        <trkpt lat="29.5503846" lon="103.3750399"><ele>1208.99</ele><time>2025-09-18T18:05:33.000Z</time></trkpt>
        <trkpt lat="29.5503136" lon="103.374978"><ele>1209.58</ele><time>2025-09-18T18:05:43.000Z</time></trkpt>
        <trkpt lat="29.5502214" lon="103.3749193"><ele>1208.45</ele><time>2025-09-18T18:05:55.000Z</time></trkpt>
        <trkpt lat="29.550125" lon="103.3749119"><ele>1209.85</ele><time>2025-09-18T18:06:11.000Z</time></trkpt>
        <trkpt lat="29.5500388" lon="103.3748748"><ele>1211.17</ele><time>2025-09-18T18:06:19.000Z</time></trkpt>
        <trkpt lat="29.5499417" lon="103.3748374"><ele>1211.94</ele><time>2025-09-18T18:06:35.000Z</time></trkpt>
        <trkpt lat="29.5498924" lon="103.3747535"><ele>1214.91</ele><time>2025-09-18T18:06:45.000Z</time></trkpt>
        <trkpt lat="29.5499432" lon="103.3746587"><ele>1215.95</ele><time>2025-09-18T18:06:57.000Z</time></trkpt>
        <trkpt lat="29.5500044" lon="103.3745639"><ele>1218.73</ele><time>2025-09-18T18:07:05.000Z</time></trkpt>
        <trkpt lat="29.5500581" lon="103.374462"><ele>1221.08</ele><time>2025-09-18T18:07:43.000Z</time></trkpt>
        <trkpt lat="29.5501466" lon="103.3744093"><ele>1227.22</ele><time>2025-09-18T18:07:57.000Z</time></trkpt>
        <trkpt lat="29.5502296" lon="103.3743388"><ele>1230.13</ele><time>2025-09-18T18:08:11.000Z</time></trkpt>
        <trkpt lat="29.5503114" lon="103.3742617"><ele>1233.63</ele><time>2025-09-18T18:08:23.000Z</time></trkpt>
        <trkpt lat="29.5503827" lon="103.3741763"><ele>1235.88</ele><time>2025-09-18T18:08:35.000Z</time></trkpt>
        <trkpt lat="29.5504638" lon="103.3741189"><ele>1238.51</ele><time>2025-09-18T18:08:43.000Z</time></trkpt>
        <trkpt lat="29.5505433" lon="103.3740452"><ele>1239.96</ele><time>2025-09-18T18:08:55.000Z</time></trkpt>
        <trkpt lat="29.550625" lon="103.3739929"><ele>1239.74</ele><time>2025-09-18T18:09:05.000Z</time></trkpt>
        <trkpt lat="29.5507213" lon="103.373969"><ele>1239.03</ele><time>2025-09-18T18:09:17.000Z</time></trkpt>
        <trkpt lat="29.5507787" lon="103.3738879"><ele>1238.59</ele><time>2025-09-18T18:09:23.000Z</time></trkpt>
        <trkpt lat="29.5508279" lon="103.3737941"><ele>1236.87</ele><time>2025-09-18T18:09:33.000Z</time></trkpt>
        <trkpt lat="29.5508696" lon="103.373687"><ele>1234.83</ele><time>2025-09-18T18:09:47.000Z</time></trkpt>
        <trkpt lat="29.5509519" lon="103.3736169"><ele>1230.99</ele><time>2025-09-18T18:09:57.000Z</time></trkpt>
        <trkpt lat="29.5510461" lon="103.3735998"><ele>1228.24</ele><time>2025-09-18T18:10:03.000Z</time></trkpt>
        <trkpt lat="29.5511491" lon="103.3736204"><ele>1227.72</ele><time>2025-09-18T18:10:11.000Z</time></trkpt>
        <trkpt lat="29.5512467" lon="103.3736325"><ele>1227.18</ele><time>2025-09-18T18:10:19.000Z</time></trkpt>
        <trkpt lat="29.5513093" lon="103.3735675"><ele>1227.08</ele><time>2025-09-18T18:10:29.000Z</time></trkpt>
        <trkpt lat="29.5513565" lon="103.3734721"><ele>1226.41</ele><time>2025-09-18T18:10:39.000Z</time></trkpt>
        <trkpt lat="29.5513428" lon="103.3733545"><ele>1225.63</ele><time>2025-09-18T18:10:47.000Z</time></trkpt>
        <trkpt lat="29.5513276" lon="103.3732324"><ele>1224.35</ele><time>2025-09-18T18:10:57.000Z</time></trkpt>
        <trkpt lat="29.5512715" lon="103.3731173"><ele>1223.55</ele><time>2025-09-18T18:11:07.000Z</time></trkpt>
        <trkpt lat="29.551203" lon="103.3730125"><ele>1223.02</ele><time>2025-09-18T18:11:17.000Z</time></trkpt>
        <trkpt lat="29.5511514" lon="103.3729065"><ele>1223.01</ele><time>2025-09-18T18:11:27.000Z</time></trkpt>
        <trkpt lat="29.5510589" lon="103.3729017"><ele>1224.52</ele><time>2025-09-18T18:11:37.000Z</time></trkpt>
        <trkpt lat="29.5509584" lon="103.3728697"><ele>1225.77</ele><time>2025-09-18T18:11:45.000Z</time></trkpt>
        <trkpt lat="29.550858" lon="103.3728508"><ele>1227.66</ele><time>2025-09-18T18:11:51.000Z</time></trkpt>
        <trkpt lat="29.5507456" lon="103.3728706"><ele>1229.42</ele><time>2025-09-18T18:11:59.000Z</time></trkpt>
        <trkpt lat="29.5506432" lon="103.3729105"><ele>1228.77</ele><time>2025-09-18T18:12:07.000Z</time></trkpt>
        <trkpt lat="29.5505297" lon="103.3729306"><ele>1227.86</ele><time>2025-09-18T18:12:19.000Z</time></trkpt>
        <trkpt lat="29.5504331" lon="103.3729639"><ele>1229.84</ele><time>2025-09-18T18:12:29.000Z</time></trkpt>
        <trkpt lat="29.5503308" lon="103.3729479"><ele>1230.17</ele><time>2025-09-18T18:12:39.000Z</time></trkpt>
        <trkpt lat="29.5502539" lon="103.3728737"><ele>1231.03</ele><time>2025-09-18T18:12:49.000Z</time></trkpt>
        <trkpt lat="29.5502186" lon="103.3727711"><ele>1232.35</ele><time>2025-09-18T18:13:01.000Z</time></trkpt>
        <trkpt lat="29.5502929" lon="103.3727404"><ele>1232.41</ele><time>2025-09-18T18:13:13.000Z</time></trkpt>
        <trkpt lat="29.5503852" lon="103.3726956"><ele>1231.79</ele><time>2025-09-18T18:13:21.000Z</time></trkpt>
        <trkpt lat="29.5504639" lon="103.3726267"><ele>1231.8</ele><time>2025-09-18T18:13:31.000Z</time></trkpt>
        <trkpt lat="29.550573" lon="103.372592"><ele>1230.85</ele><time>2025-09-18T18:13:43.000Z</time></trkpt>
        <trkpt lat="29.5505817" lon="103.372571"><ele>1229.79</ele><time>2025-09-18T18:13:45.000Z</time></trkpt>
        <trkpt lat="29.5506328" lon="103.3725259"><ele>1229.17</ele><time>2025-09-18T18:14:21.000Z</time></trkpt>
        <trkpt lat="29.5506415" lon="103.3724304"><ele>1229</ele><time>2025-09-18T18:14:33.000Z</time></trkpt>
        <trkpt lat="29.5506609" lon="103.3723237"><ele>1225.99</ele><time>2025-09-18T18:14:41.000Z</time></trkpt>
        <trkpt lat="29.5506859" lon="103.3722063"><ele>1222.67</ele><time>2025-09-18T18:14:49.000Z</time></trkpt>
        <trkpt lat="29.5507153" lon="103.3721002"><ele>1220.85</ele><time>2025-09-18T18:14:55.000Z</time></trkpt>
        <trkpt lat="29.5506815" lon="103.3719968"><ele>1220.03</ele><time>2025-09-18T18:15:07.000Z</time></trkpt>
        <trkpt lat="29.5506156" lon="103.3719092"><ele>1219.7</ele><time>2025-09-18T18:15:17.000Z</time></trkpt>
        <trkpt lat="29.5505418" lon="103.3718318"><ele>1218.78</ele><time>2025-09-18T18:15:25.000Z</time></trkpt>
        <trkpt lat="29.5504688" lon="103.3717599"><ele>1216.11</ele><time>2025-09-18T18:15:31.000Z</time></trkpt>
        <trkpt lat="29.5504144" lon="103.3716757"><ele>1214.72</ele><time>2025-09-18T18:15:39.000Z</time></trkpt>
        <trkpt lat="29.5503699" lon="103.3715774"><ele>1213.74</ele><time>2025-09-18T18:15:51.000Z</time></trkpt>
        <trkpt lat="29.5502893" lon="103.3715073"><ele>1212.43</ele><time>2025-09-18T18:16:03.000Z</time></trkpt>
        <trkpt lat="29.5502001" lon="103.371515"><ele>1209.75</ele><time>2025-09-18T18:16:11.000Z</time></trkpt>
        <trkpt lat="29.5501837" lon="103.3714454"><ele>1208.53</ele><time>2025-09-18T18:16:17.000Z</time></trkpt>
        <trkpt lat="29.5502544" lon="103.3713852"><ele>1208.34</ele><time>2025-09-18T18:16:23.000Z</time></trkpt>
        <trkpt lat="29.5503212" lon="103.3712991"><ele>1208.79</ele><time>2025-09-18T18:16:29.000Z</time></trkpt>
        <trkpt lat="29.550373" lon="103.3711943"><ele>1208.39</ele><time>2025-09-18T18:16:35.000Z</time></trkpt>
        <trkpt lat="29.5504263" lon="103.3710891"><ele>1209.25</ele><time>2025-09-18T18:16:43.000Z</time></trkpt>
        <trkpt lat="29.5504685" lon="103.3709828"><ele>1209.84</ele><time>2025-09-18T18:16:51.000Z</time></trkpt>
        <trkpt lat="29.5504483" lon="103.3708812"><ele>1209.43</ele><time>2025-09-18T18:17:01.000Z</time></trkpt>
        <trkpt lat="29.5503872" lon="103.3707863"><ele>1206.75</ele><time>2025-09-18T18:17:17.000Z</time></trkpt>
        <trkpt lat="29.5503615" lon="103.370672"><ele>1203.77</ele><time>2025-09-18T18:17:27.000Z</time></trkpt>
        <trkpt lat="29.5503581" lon="103.370557"><ele>1202.21</ele><time>2025-09-18T18:17:41.000Z</time></trkpt>
        <trkpt lat="29.550363" lon="103.3704469"><ele>1201.98</ele><time>2025-09-18T18:17:57.000Z</time></trkpt>
        <trkpt lat="29.5503021" lon="103.3703649"><ele>1200.87</ele><time>2025-09-18T18:19:42.000Z</time></trkpt>
        <trkpt lat="29.5502099" lon="103.3703749"><ele>1199</ele><time>2025-09-18T18:19:52.000Z</time></trkpt>
        <trkpt lat="29.5501904" lon="103.3702728"><ele>1197.45</ele><time>2025-09-18T18:20:16.000Z</time></trkpt>
        <trkpt lat="29.5501757" lon="103.3701649"><ele>1199.93</ele><time>2025-09-18T18:20:22.000Z</time></trkpt>
        <trkpt lat="29.5502096" lon="103.370042"><ele>1201.62</ele><time>2025-09-18T18:20:28.000Z</time></trkpt>
        <trkpt lat="29.5502513" lon="103.3699175"><ele>1203.79</ele><time>2025-09-18T18:20:40.000Z</time></trkpt>
        <trkpt lat="29.5501961" lon="103.3698685"><ele>1204.61</ele><time>2025-09-18T18:20:56.000Z</time></trkpt>
        <trkpt lat="29.5501767" lon="103.3697713"><ele>1205.41</ele><time>2025-09-18T18:21:10.000Z</time></trkpt>
        <trkpt lat="29.5501354" lon="103.3696754"><ele>1204.62</ele><time>2025-09-18T18:21:40.000Z</time></trkpt>
        <trkpt lat="29.5501017" lon="103.3695723"><ele>1207.88</ele><time>2025-09-18T18:22:22.000Z</time></trkpt>
        <trkpt lat="29.550035" lon="103.3694866"><ele>1214.76</ele><time>2025-09-18T18:22:54.000Z</time></trkpt>
        <trkpt lat="29.5499775" lon="103.3693862"><ele>1220.7</ele><time>2025-09-18T18:23:08.000Z</time></trkpt>
        <trkpt lat="29.5499173" lon="103.3693"><ele>1224.02</ele><time>2025-09-18T18:23:18.000Z</time></trkpt>
        <trkpt lat="29.5498647" lon="103.369211"><ele>1226.64</ele><time>2025-09-18T18:23:28.000Z</time></trkpt>
        <trkpt lat="29.549849" lon="103.3691031"><ele>1229.77</ele><time>2025-09-18T18:23:42.000Z</time></trkpt>
        <trkpt lat="29.5498069" lon="103.3689943"><ele>1232.07</ele><time>2025-09-18T18:23:56.000Z</time></trkpt>
        <trkpt lat="29.5498607" lon="103.3689322"><ele>1231.75</ele><time>2025-09-18T18:24:12.000Z</time></trkpt>
        <trkpt lat="29.5498752" lon="103.3688403"><ele>1233.97</ele><time>2025-09-18T18:24:54.000Z</time></trkpt>
        <trkpt lat="29.5498107" lon="103.3689083"><ele>1237.04</ele><time>2025-09-18T18:26:18.000Z</time></trkpt>
        <trkpt lat="29.5497394" lon="103.3688303"><ele>1245.39</ele><time>2025-09-18T18:26:34.000Z</time></trkpt>
        <trkpt lat="29.549674" lon="103.3687516"><ele>1249.12</ele><time>2025-09-18T18:26:44.000Z</time></trkpt>
        <trkpt lat="29.5496078" lon="103.3686768"><ele>1251.14</ele><time>2025-09-18T18:26:58.000Z</time></trkpt>
        <trkpt lat="29.5495668" lon="103.3685827"><ele>1252.43</ele><time>2025-09-18T18:27:36.000Z</time></trkpt>
        <trkpt lat="29.5496233" lon="103.3685061"><ele>1255.25</ele><time>2025-09-18T18:27:56.000Z</time></trkpt>
        <trkpt lat="29.5496661" lon="103.3684068"><ele>1258.7</ele><time>2025-09-18T18:28:46.000Z</time></trkpt>
        <trkpt lat="29.5497653" lon="103.3683551"><ele>1263.28</ele><time>2025-09-18T18:29:58.000Z</time></trkpt>
        <trkpt lat="29.5498425" lon="103.3682997"><ele>1270.64</ele><time>2025-09-18T18:31:56.000Z</time></trkpt>
        <trkpt lat="29.5499041" lon="103.3682198"><ele>1283.85</ele><time>2025-09-18T18:32:34.000Z</time></trkpt>
        <trkpt lat="29.5498837" lon="103.3681141"><ele>1295.81</ele><time>2025-09-18T18:33:14.000Z</time></trkpt>
        <trkpt lat="29.5498859" lon="103.36801"><ele>1303.4</ele><time>2025-09-18T18:33:36.000Z</time></trkpt>
        <trkpt lat="29.5498243" lon="103.3679167"><ele>1308.71</ele><time>2025-09-18T18:35:04.000Z</time></trkpt>
        <trkpt lat="29.5498706" lon="103.3678077"><ele>1319.21</ele><time>2025-09-18T18:35:36.000Z</time></trkpt>
        <trkpt lat="29.5499484" lon="103.3678366"><ele>1327.21</ele><time>2025-09-18T18:35:52.000Z</time></trkpt>
        <trkpt lat="29.5499317" lon="103.3677713"><ele>1335.66</ele><time>2025-09-18T18:36:32.000Z</time></trkpt>
        <trkpt lat="29.5499796" lon="103.3677093"><ele>1341.99</ele><time>2025-09-18T18:37:18.000Z</time></trkpt>
        <trkpt lat="29.5500559" lon="103.3676435"><ele>1347.13</ele><time>2025-09-18T18:37:48.000Z</time></trkpt>
        <trkpt lat="29.5501383" lon="103.3675857"><ele>1352.66</ele><time>2025-09-18T18:38:00.000Z</time></trkpt>
        <trkpt lat="29.5501695" lon="103.3674843"><ele>1356.1</ele><time>2025-09-18T18:38:20.000Z</time></trkpt>
        <trkpt lat="29.5502113" lon="103.3673856"><ele>1359.23</ele><time>2025-09-18T18:40:32.000Z</time></trkpt>
        <trkpt lat="29.5501266" lon="103.3673498"><ele>1363.11</ele><time>2025-09-18T18:41:00.000Z</time></trkpt>
        <trkpt lat="29.5500502" lon="103.3672872"><ele>1366.72</ele><time>2025-09-18T18:41:34.000Z</time></trkpt>
        <trkpt lat="29.5500623" lon="103.3671923"><ele>1372.78</ele><time>2025-09-18T18:41:52.000Z</time></trkpt>
        <trkpt lat="29.5501076" lon="103.3670873"><ele>1377.61</ele><time>2025-09-18T18:42:14.000Z</time></trkpt>
        <trkpt lat="29.5501716" lon="103.3669917"><ele>1382.34</ele><time>2025-09-18T18:42:34.000Z</time></trkpt>
        <trkpt lat="29.5502478" lon="103.3669111"><ele>1386.47</ele><time>2025-09-18T18:42:50.000Z</time></trkpt>
        <trkpt lat="29.5502435" lon="103.3668152"><ele>1389.75</ele><time>2025-09-18T18:43:14.000Z</time></trkpt>
        <trkpt lat="29.5501738" lon="103.3667502"><ele>1392.61</ele><time>2025-09-18T18:43:40.000Z</time></trkpt>
        <trkpt lat="29.5500917" lon="103.366682"><ele>1394.39</ele><time>2025-09-18T18:44:04.000Z</time></trkpt>
        <trkpt lat="29.5500142" lon="103.3666051"><ele>1397.01</ele><time>2025-09-18T18:44:36.000Z</time></trkpt>
        <trkpt lat="29.5499224" lon="103.3665547"><ele>1401.83</ele><time>2025-09-18T18:45:18.000Z</time></trkpt>
        <trkpt lat="29.5498238" lon="103.3665564"><ele>1407.27</ele><time>2025-09-18T18:46:04.000Z</time></trkpt>
        <trkpt lat="29.5497326" lon="103.3665914"><ele>1413.47</ele><time>2025-09-18T18:46:22.000Z</time></trkpt>
        <trkpt lat="29.5496438" lon="103.3665845"><ele>1418.05</ele><time>2025-09-18T18:47:12.000Z</time></trkpt>
        <trkpt lat="29.5495622" lon="103.3665425"><ele>1423.03</ele><time>2025-09-18T18:47:38.000Z</time></trkpt>
        <trkpt lat="29.5494717" lon="103.3665166"><ele>1428.85</ele><time>2025-09-18T18:48:08.000Z</time></trkpt>
        <trkpt lat="29.549405" lon="103.3664463"><ele>1435.86</ele><time>2025-09-18T18:48:36.000Z</time></trkpt>
        <trkpt lat="29.549361" lon="103.3663538"><ele>1440.06</ele><time>2025-09-18T18:49:14.000Z</time></trkpt>
        <trkpt lat="29.5492802" lon="103.3663524"><ele>1447.02</ele><time>2025-09-18T18:54:14.000Z</time></trkpt>
        <trkpt lat="29.5491994" lon="103.366403"><ele>1452.44</ele><time>2025-09-18T18:55:20.000Z</time></trkpt>
        <trkpt lat="29.5493037" lon="103.3663628"><ele>1456.25</ele><time>2025-09-18T18:59:30.000Z</time></trkpt>
        <trkpt lat="29.5493636" lon="103.3662814"><ele>1459.38</ele><time>2025-09-18T18:59:48.000Z</time></trkpt>
        <trkpt lat="29.5493597" lon="103.3662832"><ele>1460.34</ele><time>2025-09-18T18:59:56.000Z</time></trkpt>
        <trkpt lat="29.5494552" lon="103.3662615"><ele>1461.72</ele><time>2025-09-18T19:00:58.000Z</time></trkpt>
        <trkpt lat="29.54954" lon="103.3662139"><ele>1461.9</ele><time>2025-09-18T19:01:08.000Z</time></trkpt>
        <trkpt lat="29.5496242" lon="103.366162"><ele>1461.89</ele><time>2025-09-18T19:01:20.000Z</time></trkpt>
        <trkpt lat="29.5497004" lon="103.3661005"><ele>1461.16</ele><time>2025-09-18T19:01:32.000Z</time></trkpt>
        <trkpt lat="29.5497083" lon="103.3660051"><ele>1460.59</ele><time>2025-09-18T19:01:40.000Z</time></trkpt>
        <trkpt lat="29.5496649" lon="103.3659023"><ele>1460.67</ele><time>2025-09-18T19:01:52.000Z</time></trkpt>
        <trkpt lat="29.5496224" lon="103.3657973"><ele>1463.64</ele><time>2025-09-18T19:02:06.000Z</time></trkpt>
        <trkpt lat="29.5495759" lon="103.3656877"><ele>1465.84</ele><time>2025-09-18T19:02:26.000Z</time></trkpt>
        <trkpt lat="29.5495054" lon="103.3656105"><ele>1468.04</ele><time>2025-09-18T19:02:40.000Z</time></trkpt>
        <trkpt lat="29.5494972" lon="103.3655015"><ele>1470.34</ele><time>2025-09-18T19:02:50.000Z</time></trkpt>
        <trkpt lat="29.5495602" lon="103.3654231"><ele>1467.88</ele><time>2025-09-18T19:02:58.000Z</time></trkpt>
        <trkpt lat="29.549636" lon="103.3653389"><ele>1464.08</ele><time>2025-09-18T19:03:06.000Z</time></trkpt>
        <trkpt lat="29.5496932" lon="103.3652264"><ele>1461.4</ele><time>2025-09-18T19:03:14.000Z</time></trkpt>
        <trkpt lat="29.5497569" lon="103.3651195"><ele>1461.25</ele><time>2025-09-18T19:03:22.000Z</time></trkpt>
        <trkpt lat="29.549825" lon="103.3650173"><ele>1463.6</ele><time>2025-09-18T19:03:30.000Z</time></trkpt>
        <trkpt lat="29.549858" lon="103.3649081"><ele>1465.73</ele><time>2025-09-18T19:03:38.000Z</time></trkpt>
        <trkpt lat="29.5499265" lon="103.3648254"><ele>1467.61</ele><time>2025-09-18T19:03:46.000Z</time></trkpt>
        <trkpt lat="29.5499991" lon="103.3647451"><ele>1469.26</ele><time>2025-09-18T19:03:56.000Z</time></trkpt>
        <trkpt lat="29.5500352" lon="103.3646489"><ele>1469.73</ele><time>2025-09-18T19:04:06.000Z</time></trkpt>
        <trkpt lat="29.5500555" lon="103.3645481"><ele>1469.91</ele><time>2025-09-18T19:04:14.000Z</time></trkpt>
        <trkpt lat="29.5501048" lon="103.3644567"><ele>1469.96</ele><time>2025-09-18T19:04:24.000Z</time></trkpt>
        <trkpt lat="29.5501831" lon="103.3643921"><ele>1470.84</ele><time>2025-09-18T19:04:36.000Z</time></trkpt>
        <trkpt lat="29.5502661" lon="103.3643084"><ele>1470.39</ele><time>2025-09-18T19:04:46.000Z</time></trkpt>
        <trkpt lat="29.5503101" lon="103.3641969"><ele>1468.99</ele><time>2025-09-18T19:04:54.000Z</time></trkpt>
        <trkpt lat="29.550329" lon="103.3640886"><ele>1468.76</ele><time>2025-09-18T19:05:02.000Z</time></trkpt>
        <trkpt lat="29.5503298" lon="103.3639747"><ele>1470.39</ele><time>2025-09-18T19:05:16.000Z</time></trkpt>
        <trkpt lat="29.550394" lon="103.3639543"><ele>1473.46</ele><time>2025-09-18T19:05:52.000Z</time></trkpt>
        <trkpt lat="29.5504656" lon="103.3640109"><ele>1477.95</ele><time>2025-09-18T19:06:04.000Z</time></trkpt>
        <trkpt lat="29.5504726" lon="103.3639623"><ele>1480.59</ele><time>2025-09-18T19:06:16.000Z</time></trkpt>
        <trkpt lat="29.5504381" lon="103.3638677"><ele>1482.39</ele><time>2025-09-18T19:06:28.000Z</time></trkpt>
        <trkpt lat="29.5504916" lon="103.3637966"><ele>1486.33</ele><time>2025-09-18T19:06:42.000Z</time></trkpt>
        <trkpt lat="29.5505875" lon="103.3637752"><ele>1488.2</ele><time>2025-09-18T19:06:54.000Z</time></trkpt>
        <trkpt lat="29.5506865" lon="103.3637398"><ele>1489.26</ele><time>2025-09-18T19:07:04.000Z</time></trkpt>
        <trkpt lat="29.5507893" lon="103.3636996"><ele>1489.57</ele><time>2025-09-18T19:07:14.000Z</time></trkpt>
        <trkpt lat="29.5508105" lon="103.3635937"><ele>1488.97</ele><time>2025-09-18T19:07:22.000Z</time></trkpt>
        <trkpt lat="29.5507843" lon="103.3634867"><ele>1489.32</ele><time>2025-09-18T19:07:30.000Z</time></trkpt>
        <trkpt lat="29.5507241" lon="103.3633946"><ele>1488.6</ele><time>2025-09-18T19:07:38.000Z</time></trkpt>
        <trkpt lat="29.5506848" lon="103.3632943"><ele>1489.89</ele><time>2025-09-18T19:07:50.000Z</time></trkpt>
        <trkpt lat="29.5506668" lon="103.36319"><ele>1490.86</ele><time>2025-09-18T19:08:06.000Z</time></trkpt>
        <trkpt lat="29.5507212" lon="103.3632236"><ele>1491.93</ele><time>2025-09-18T19:08:20.000Z</time></trkpt>
        <trkpt lat="29.5507852" lon="103.3633138"><ele>1493.82</ele><time>2025-09-18T19:08:30.000Z</time></trkpt>
        <trkpt lat="29.5508184" lon="103.3632674"><ele>1496.97</ele><time>2025-09-18T19:08:44.000Z</time></trkpt>
        <trkpt lat="29.5507898" lon="103.3631765"><ele>1497.55</ele><time>2025-09-18T19:09:00.000Z</time></trkpt>
        <trkpt lat="29.5507336" lon="103.3630738"><ele>1502.13</ele><time>2025-09-18T19:09:18.000Z</time></trkpt>
        <trkpt lat="29.5507797" lon="103.3630304"><ele>1506.74</ele><time>2025-09-18T19:10:08.000Z</time></trkpt>
        <trkpt lat="29.550766" lon="103.3629488"><ele>1511.73</ele><time>2025-09-18T19:10:48.000Z</time></trkpt>
        <trkpt lat="29.5506942" lon="103.3628941"><ele>1518.01</ele><time>2025-09-18T19:11:10.000Z</time></trkpt>
        <trkpt lat="29.5506029" lon="103.3629145"><ele>1523.34</ele><time>2025-09-18T19:11:30.000Z</time></trkpt>
        <trkpt lat="29.5505401" lon="103.362913"><ele>1528.45</ele><time>2025-09-18T19:11:46.000Z</time></trkpt>
        <trkpt lat="29.550525" lon="103.3628283"><ele>1531.64</ele><time>2025-09-18T19:12:30.000Z</time></trkpt>
        <trkpt lat="29.5505729" lon="103.3626969"><ele>1535.82</ele><time>2025-09-18T19:13:40.000Z</time></trkpt>
        <trkpt lat="29.5506131" lon="103.3625989"><ele>1540.31</ele><time>2025-09-18T19:13:58.000Z</time></trkpt>
        <trkpt lat="29.5506124" lon="103.3624911"><ele>1545.31</ele><time>2025-09-18T19:14:22.000Z</time></trkpt>
        <trkpt lat="29.5506578" lon="103.3623996"><ele>1552.54</ele><time>2025-09-18T19:14:56.000Z</time></trkpt>
        <trkpt lat="29.5506299" lon="103.3623072"><ele>1558.54</ele><time>2025-09-18T19:15:28.000Z</time></trkpt>
        <trkpt lat="29.5505678" lon="103.3622218"><ele>1565.2</ele><time>2025-09-18T19:15:56.000Z</time></trkpt>
        <trkpt lat="29.5505335" lon="103.3621172"><ele>1570.31</ele><time>2025-09-18T19:16:38.000Z</time></trkpt>
        <trkpt lat="29.5505501" lon="103.3620151"><ele>1575.14</ele><time>2025-09-18T19:16:54.000Z</time></trkpt>
        <trkpt lat="29.5505918" lon="103.3619187"><ele>1578.29</ele><time>2025-09-18T19:17:26.000Z</time></trkpt>
        <trkpt lat="29.5505616" lon="103.3618336"><ele>1584.19</ele><time>2025-09-18T19:17:50.000Z</time></trkpt>
        <trkpt lat="29.5505119" lon="103.3617483"><ele>1587.75</ele><time>2025-09-18T19:18:08.000Z</time></trkpt>
        <trkpt lat="29.5504472" lon="103.3616669"><ele>1591.51</ele><time>2025-09-18T19:18:34.000Z</time></trkpt>
        <trkpt lat="29.5503549" lon="103.3616204"><ele>1595.32</ele><time>2025-09-18T19:18:54.000Z</time></trkpt>
        <trkpt lat="29.550376" lon="103.3615583"><ele>1597.3</ele><time>2025-09-18T19:19:40.000Z</time></trkpt>
        <trkpt lat="29.5503326" lon="103.3615029"><ele>1599.16</ele><time>2025-09-18T19:20:04.000Z</time></trkpt>
        <trkpt lat="29.5502703" lon="103.361425"><ele>1602.73</ele><time>2025-09-18T19:20:38.000Z</time></trkpt>
        <trkpt lat="29.5501912" lon="103.3613576"><ele>1606.16</ele><time>2025-09-18T19:21:10.000Z</time></trkpt>
        <trkpt lat="29.55011" lon="103.3612996"><ele>1613</ele><time>2025-09-18T19:21:26.000Z</time></trkpt>
        <trkpt lat="29.5500313" lon="103.3612371"><ele>1617.52</ele><time>2025-09-18T19:21:38.000Z</time></trkpt>
        <trkpt lat="29.5499379" lon="103.3611845"><ele>1620.67</ele><time>2025-09-18T19:21:48.000Z</time></trkpt>
        <trkpt lat="29.5499024" lon="103.3610844"><ele>1622.7</ele><time>2025-09-18T19:21:58.000Z</time></trkpt>
        <trkpt lat="29.5498902" lon="103.3609679"><ele>1623.84</ele><time>2025-09-18T19:22:08.000Z</time></trkpt>
        <trkpt lat="29.549846" lon="103.3608597"><ele>1626.03</ele><time>2025-09-18T19:22:18.000Z</time></trkpt>
        <trkpt lat="29.5498461" lon="103.3607545"><ele>1628.58</ele><time>2025-09-18T19:22:28.000Z</time></trkpt>
        <trkpt lat="29.5498752" lon="103.3606368"><ele>1627.18</ele><time>2025-09-18T19:22:38.000Z</time></trkpt>
        <trkpt lat="29.5499388" lon="103.3605479"><ele>1626.31</ele><time>2025-09-18T19:22:46.000Z</time></trkpt>
        <trkpt lat="29.5499959" lon="103.3604473"><ele>1625.18</ele><time>2025-09-18T19:22:58.000Z</time></trkpt>
        <trkpt lat="29.5500198" lon="103.3603322"><ele>1623.28</ele><time>2025-09-18T19:23:10.000Z</time></trkpt>
        <trkpt lat="29.5500619" lon="103.3602364"><ele>1621.75</ele><time>2025-09-18T19:23:20.000Z</time></trkpt>
        <trkpt lat="29.5501163" lon="103.3601425"><ele>1618.53</ele><time>2025-09-18T19:23:34.000Z</time></trkpt>
        <trkpt lat="29.5501351" lon="103.3600413"><ele>1617.3</ele><time>2025-09-18T19:23:50.000Z</time></trkpt>
        <trkpt lat="29.5500941" lon="103.3599509"><ele>1618.33</ele><time>2025-09-18T19:24:16.000Z</time></trkpt>
        <trkpt lat="29.5500465" lon="103.3598586"><ele>1621.9</ele><time>2025-09-18T19:24:50.000Z</time></trkpt>
        <trkpt lat="29.5499945" lon="103.3597618"><ele>1626.84</ele><time>2025-09-18T19:25:20.000Z</time></trkpt>
        <trkpt lat="29.5499473" lon="103.3596655"><ele>1631.85</ele><time>2025-09-18T19:25:40.000Z</time></trkpt>
        <trkpt lat="29.5498916" lon="103.3595785"><ele>1634.34</ele><time>2025-09-18T19:25:52.000Z</time></trkpt>
        <trkpt lat="29.5498346" lon="103.3594916"><ele>1635.62</ele><time>2025-09-18T19:26:28.000Z</time></trkpt>
        <trkpt lat="29.549826" lon="103.3593842"><ele>1637.68</ele><time>2025-09-18T19:26:46.000Z</time></trkpt>
        <trkpt lat="29.5498754" lon="103.3592883"><ele>1640.65</ele><time>2025-09-18T19:27:08.000Z</time></trkpt>
        <trkpt lat="29.5499585" lon="103.359222"><ele>1643.91</ele><time>2025-09-18T19:27:20.000Z</time></trkpt>
        <trkpt lat="29.5500509" lon="103.3591694"><ele>1647.54</ele><time>2025-09-18T19:27:48.000Z</time></trkpt>
        <trkpt lat="29.5501479" lon="103.3591173"><ele>1650.52</ele><time>2025-09-18T19:28:00.000Z</time></trkpt>
        <trkpt lat="29.5502469" lon="103.3590667"><ele>1652.96</ele><time>2025-09-18T19:28:12.000Z</time></trkpt>
        <trkpt lat="29.5502676" lon="103.3589691"><ele>1654.61</ele><time>2025-09-18T19:28:22.000Z</time></trkpt>
        <trkpt lat="29.5502554" lon="103.358856"><ele>1654.56</ele><time>2025-09-18T19:28:38.000Z</time></trkpt>
        <trkpt lat="29.5502824" lon="103.3587549"><ele>1654.11</ele><time>2025-09-18T19:28:54.000Z</time></trkpt>
        <trkpt lat="29.5502796" lon="103.3586479"><ele>1655.82</ele><time>2025-09-18T19:29:32.000Z</time></trkpt>
        <trkpt lat="29.5502842" lon="103.3585401"><ele>1660.04</ele><time>2025-09-18T19:29:50.000Z</time></trkpt>
        <trkpt lat="29.550318" lon="103.3584436"><ele>1663.92</ele><time>2025-09-18T19:30:10.000Z</time></trkpt>
        <trkpt lat="29.5503069" lon="103.3583428"><ele>1667.92</ele><time>2025-09-18T19:30:32.000Z</time></trkpt>
        <trkpt lat="29.5502559" lon="103.3582576"><ele>1670.31</ele><time>2025-09-18T19:30:42.000Z</time></trkpt>
        <trkpt lat="29.5502436" lon="103.3581587"><ele>1669.71</ele><time>2025-09-18T19:30:56.000Z</time></trkpt>
        <trkpt lat="29.550255" lon="103.3580557"><ele>1670.14</ele><time>2025-09-18T19:31:08.000Z</time></trkpt>
        <trkpt lat="29.5502868" lon="103.3579456"><ele>1671.96</ele><time>2025-09-18T19:31:20.000Z</time></trkpt>
        <trkpt lat="29.5503151" lon="103.357835"><ele>1673.99</ele><time>2025-09-18T19:31:32.000Z</time></trkpt>
        <trkpt lat="29.55038" lon="103.3577518"><ele>1675.24</ele><time>2025-09-18T19:31:48.000Z</time></trkpt>
        <trkpt lat="29.5504005" lon="103.3576443"><ele>1679.68</ele><time>2025-09-18T19:32:06.000Z</time></trkpt>
        <trkpt lat="29.5503983" lon="103.3575301"><ele>1683.69</ele><time>2025-09-18T19:32:20.000Z</time></trkpt>
        <trkpt lat="29.5503952" lon="103.3574167"><ele>1684.56</ele><time>2025-09-18T19:32:32.000Z</time></trkpt>
        <trkpt lat="29.5503798" lon="103.3573046"><ele>1684.19</ele><time>2025-09-18T19:32:46.000Z</time></trkpt>
        <trkpt lat="29.5503787" lon="103.3571975"><ele>1685.85</ele><time>2025-09-18T19:33:04.000Z</time></trkpt>
        <trkpt lat="29.5503683" lon="103.3570833"><ele>1689.14</ele><time>2025-09-18T19:33:26.000Z</time></trkpt>
        <trkpt lat="29.5503214" lon="103.3569865"><ele>1691.97</ele><time>2025-09-18T19:33:36.000Z</time></trkpt>
        <trkpt lat="29.550251" lon="103.3569106"><ele>1693.47</ele><time>2025-09-18T19:33:52.000Z</time></trkpt>
        <trkpt lat="29.5501594" lon="103.3568813"><ele>1695.42</ele><time>2025-09-18T19:34:06.000Z</time></trkpt>
        <trkpt lat="29.5500617" lon="103.3569134"><ele>1695.55</ele><time>2025-09-18T19:34:20.000Z</time></trkpt>
        <trkpt lat="29.5499632" lon="103.3569449"><ele>1696.21</ele><time>2025-09-18T19:34:36.000Z</time></trkpt>
        <trkpt lat="29.5498698" lon="103.3569431"><ele>1697.53</ele><time>2025-09-18T19:35:15.000Z</time></trkpt>
        <trkpt lat="29.5499213" lon="103.3569274"><ele>1699.57</ele><time>2025-09-18T19:35:35.000Z</time></trkpt>
        <trkpt lat="29.5499218" lon="103.3568394"><ele>1698.87</ele><time>2025-09-18T19:35:47.000Z</time></trkpt>
        <trkpt lat="29.5499247" lon="103.3567158"><ele>1699.46</ele><time>2025-09-18T19:35:59.000Z</time></trkpt>
        <trkpt lat="29.5499251" lon="103.3565913"><ele>1701.58</ele><time>2025-09-18T19:36:11.000Z</time></trkpt>
        <trkpt lat="29.5499383" lon="103.3564781"><ele>1702.08</ele><time>2025-09-18T19:36:23.000Z</time></trkpt>
        <trkpt lat="29.5499922" lon="103.3563944"><ele>1700.82</ele><time>2025-09-18T19:36:31.000Z</time></trkpt>
        <trkpt lat="29.5500644" lon="103.3563121"><ele>1700.79</ele><time>2025-09-18T19:36:43.000Z</time></trkpt>
        <trkpt lat="29.550136" lon="103.3562363"><ele>1699.87</ele><time>2025-09-18T19:37:01.000Z</time></trkpt>
        <trkpt lat="29.5501622" lon="103.3561339"><ele>1699.13</ele><time>2025-09-18T19:37:18.000Z</time></trkpt>
        <trkpt lat="29.5501867" lon="103.3560255"><ele>1695.27</ele><time>2025-09-18T19:37:30.000Z</time></trkpt>
        <trkpt lat="29.5502243" lon="103.3559239"><ele>1693.69</ele><time>2025-09-18T19:37:38.000Z</time></trkpt>
        <trkpt lat="29.5502775" lon="103.3558191"><ele>1692.94</ele><time>2025-09-18T19:37:48.000Z</time></trkpt>
        <trkpt lat="29.550349" lon="103.355735"><ele>1691.31</ele><time>2025-09-18T19:37:58.000Z</time></trkpt>
        <trkpt lat="29.5504356" lon="103.3556877"><ele>1691.18</ele><time>2025-09-18T19:38:10.000Z</time></trkpt>
        <trkpt lat="29.5505326" lon="103.3557065"><ele>1689.87</ele><time>2025-09-18T19:39:06.000Z</time></trkpt>
        <trkpt lat="29.5506349" lon="103.3557226"><ele>1688.86</ele><time>2025-09-18T19:39:18.000Z</time></trkpt>
        <trkpt lat="29.55073" lon="103.3557386"><ele>1687.53</ele><time>2025-09-18T19:39:34.000Z</time></trkpt>
        <trkpt lat="29.5508185" lon="103.3557216"><ele>1688.58</ele><time>2025-09-18T19:39:42.000Z</time></trkpt>
        <trkpt lat="29.5508941" lon="103.3556686"><ele>1686.67</ele><time>2025-09-18T19:39:50.000Z</time></trkpt>
        <trkpt lat="29.5509693" lon="103.3555943"><ele>1683.66</ele><time>2025-09-18T19:40:02.000Z</time></trkpt>
        <trkpt lat="29.5510568" lon="103.3555482"><ele>1680.23</ele><time>2025-09-18T19:40:14.000Z</time></trkpt>
        <trkpt lat="29.5511361" lon="103.3554901"><ele>1676</ele><time>2025-09-18T19:40:24.000Z</time></trkpt>
        <trkpt lat="29.5511998" lon="103.3554122"><ele>1674.38</ele><time>2025-09-18T19:40:36.000Z</time></trkpt>
        <trkpt lat="29.5512507" lon="103.3553089"><ele>1671.9</ele><time>2025-09-18T19:40:54.000Z</time></trkpt>
        <trkpt lat="29.5512824" lon="103.3551922"><ele>1669.68</ele><time>2025-09-18T19:41:16.000Z</time></trkpt>
        <trkpt lat="29.5513327" lon="103.3550899"><ele>1664.75</ele><time>2025-09-18T19:41:32.000Z</time></trkpt>
        <trkpt lat="29.5513932" lon="103.3549989"><ele>1663.03</ele><time>2025-09-18T19:41:42.000Z</time></trkpt>
        <trkpt lat="29.5514534" lon="103.3548971"><ele>1661.99</ele><time>2025-09-18T19:41:52.000Z</time></trkpt>
        <trkpt lat="29.5515051" lon="103.3548039"><ele>1659.21</ele><time>2025-09-18T19:42:02.000Z</time></trkpt>
        <trkpt lat="29.5515523" lon="103.3547112"><ele>1656.49</ele><time>2025-09-18T19:42:14.000Z</time></trkpt>
        <trkpt lat="29.5515916" lon="103.3546141"><ele>1653.91</ele><time>2025-09-18T19:42:26.000Z</time></trkpt>
        <trkpt lat="29.5516559" lon="103.3545261"><ele>1652.43</ele><time>2025-09-18T19:42:38.000Z</time></trkpt>
        <trkpt lat="29.5517123" lon="103.3544406"><ele>1650.74</ele><time>2025-09-18T19:42:48.000Z</time></trkpt>
        <trkpt lat="29.5517844" lon="103.3543673"><ele>1649.67</ele><time>2025-09-18T19:42:58.000Z</time></trkpt>
        <trkpt lat="29.5517672" lon="103.3542723"><ele>1648.66</ele><time>2025-09-18T19:43:16.000Z</time></trkpt>
        <trkpt lat="29.5517756" lon="103.3541582"><ele>1643.92</ele><time>2025-09-18T19:43:26.000Z</time></trkpt>
        <trkpt lat="29.5518359" lon="103.3540861"><ele>1640.57</ele><time>2025-09-18T19:43:34.000Z</time></trkpt>
        <trkpt lat="29.5518942" lon="103.3539914"><ele>1639.5</ele><time>2025-09-18T19:43:48.000Z</time></trkpt>
        <trkpt lat="29.5519153" lon="103.3539477"><ele>1639.42</ele><time>2025-09-18T19:43:52.000Z</time></trkpt>
        <trkpt lat="29.5518697" lon="103.3538864"><ele>1639.43</ele><time>2025-09-18T19:44:36.000Z</time></trkpt>
        <trkpt lat="29.5518148" lon="103.3537912"><ele>1639.55</ele><time>2025-09-18T19:44:46.000Z</time></trkpt>
        <trkpt lat="29.5517497" lon="103.3536981"><ele>1637.69</ele><time>2025-09-18T19:45:02.000Z</time></trkpt>
        <trkpt lat="29.5516874" lon="103.3536021"><ele>1637.34</ele><time>2025-09-18T19:45:12.000Z</time></trkpt>
        <trkpt lat="29.5516863" lon="103.3534896"><ele>1637.64</ele><time>2025-09-18T19:45:40.000Z</time></trkpt>
        <trkpt lat="29.5517082" lon="103.3533741"><ele>1637.23</ele><time>2025-09-18T19:45:48.000Z</time></trkpt>
        <trkpt lat="29.5517733" lon="103.3532913"><ele>1638.28</ele><time>2025-09-18T19:46:00.000Z</time></trkpt>
        <trkpt lat="29.5517852" lon="103.3532856"><ele>1637.17</ele><time>2025-09-18T19:46:02.000Z</time></trkpt>
        <trkpt lat="29.551716" lon="103.3533905"><ele>1636.41</ele><time>2025-09-18T19:49:16.000Z</time></trkpt>
        <trkpt lat="29.5517697" lon="103.3532765"><ele>1637.66</ele><time>2025-09-18T19:51:50.000Z</time></trkpt>
        <trkpt lat="29.5518196" lon="103.3531654"><ele>1638.27</ele><time>2025-09-18T19:52:00.000Z</time></trkpt>
        <trkpt lat="29.5518607" lon="103.3530583"><ele>1638.98</ele><time>2025-09-18T19:52:10.000Z</time></trkpt>
        <trkpt lat="29.5518936" lon="103.3529434"><ele>1639.71</ele><time>2025-09-18T19:52:18.000Z</time></trkpt>
        <trkpt lat="29.5519346" lon="103.352837"><ele>1639.47</ele><time>2025-09-18T19:52:28.000Z</time></trkpt>
        <trkpt lat="29.551994" lon="103.3527525"><ele>1639.21</ele><time>2025-09-18T19:52:42.000Z</time></trkpt>
        <trkpt lat="29.5520848" lon="103.3527294"><ele>1636.38</ele><time>2025-09-18T19:53:04.000Z</time></trkpt>
        <trkpt lat="29.5521742" lon="103.3527669"><ele>1633.01</ele><time>2025-09-18T19:53:20.000Z</time></trkpt>
        <trkpt lat="29.5522756" lon="103.3527758"><ele>1630.19</ele><time>2025-09-18T19:53:42.000Z</time></trkpt>
        <trkpt lat="29.5522648" lon="103.3526926"><ele>1623.8</ele><time>2025-09-18T19:53:54.000Z</time></trkpt>
        <trkpt lat="29.5522279" lon="103.3525862"><ele>1616.95</ele><time>2025-09-18T19:54:06.000Z</time></trkpt>
        <trkpt lat="29.552203" lon="103.3524747"><ele>1611.2</ele><time>2025-09-18T19:54:20.000Z</time></trkpt>
        <trkpt lat="29.5522613" lon="103.3524335"><ele>1605.96</ele><time>2025-09-18T19:55:00.000Z</time></trkpt>
        <trkpt lat="29.5523212" lon="103.3523644"><ele>1609.35</ele><time>2025-09-18T19:55:10.000Z</time></trkpt>
        <trkpt lat="29.5523925" lon="103.3522908"><ele>1605.48</ele><time>2025-09-18T19:55:20.000Z</time></trkpt>
        <trkpt lat="29.5524315" lon="103.352351"><ele>1600.11</ele><time>2025-09-18T19:55:39.000Z</time></trkpt>
        <trkpt lat="29.5524652" lon="103.3524573"><ele>1596.89</ele><time>2025-09-18T19:55:55.000Z</time></trkpt>
        <trkpt lat="29.5524821" lon="103.3524744"><ele>1592.17</ele><time>2025-09-18T19:55:59.000Z</time></trkpt>
        <trkpt lat="29.5525523" lon="103.3524414"><ele>1589.5</ele><time>2025-09-18T19:56:09.000Z</time></trkpt>
        <trkpt lat="29.5526462" lon="103.3523768"><ele>1589.57</ele><time>2025-09-18T19:56:23.000Z</time></trkpt>
        <trkpt lat="29.5527463" lon="103.3523059"><ele>1589.59</ele><time>2025-09-18T19:56:37.000Z</time></trkpt>
        <trkpt lat="29.5528541" lon="103.3523056"><ele>1591</ele><time>2025-09-18T19:56:51.000Z</time></trkpt>
        <trkpt lat="29.5529492" lon="103.35235"><ele>1590.23</ele><time>2025-09-18T19:57:03.000Z</time></trkpt>
        <trkpt lat="29.5529901" lon="103.3524651"><ele>1589.3</ele><time>2025-09-18T19:57:15.000Z</time></trkpt>
        <trkpt lat="29.553065" lon="103.3525366"><ele>1587.12</ele><time>2025-09-18T19:57:31.000Z</time></trkpt>
        <trkpt lat="29.553146" lon="103.3526055"><ele>1585.47</ele><time>2025-09-18T19:57:41.000Z</time></trkpt>
        <trkpt lat="29.5532149" lon="103.3526643"><ele>1586.92</ele><time>2025-09-18T19:57:51.000Z</time></trkpt>
        <trkpt lat="29.5533044" lon="103.352687"><ele>1589.92</ele><time>2025-09-18T19:58:20.000Z</time></trkpt>
        <trkpt lat="29.5533734" lon="103.3526272"><ele>1592.17</ele><time>2025-09-18T19:58:28.000Z</time></trkpt>
        <trkpt lat="29.5534481" lon="103.3525612"><ele>1592.58</ele><time>2025-09-18T19:58:36.000Z</time></trkpt>
        <trkpt lat="29.5535355" lon="103.352552"><ele>1592.38</ele><time>2025-09-18T19:58:46.000Z</time></trkpt>
        <trkpt lat="29.5536414" lon="103.3525323"><ele>1590.72</ele><time>2025-09-18T19:58:58.000Z</time></trkpt>
        <trkpt lat="29.5537403" lon="103.3524772"><ele>1589.57</ele><time>2025-09-18T19:59:06.000Z</time></trkpt>
        <trkpt lat="29.5538353" lon="103.3524609"><ele>1589.44</ele><time>2025-09-18T19:59:14.000Z</time></trkpt>
        <trkpt lat="29.5539084" lon="103.3525203"><ele>1589.33</ele><time>2025-09-18T19:59:22.000Z</time></trkpt>
        <trkpt lat="29.5539608" lon="103.3526215"><ele>1589.1</ele><time>2025-09-18T19:59:32.000Z</time></trkpt>
        <trkpt lat="29.554046" lon="103.3526481"><ele>1591.45</ele><time>2025-09-18T19:59:42.000Z</time></trkpt>
        <trkpt lat="29.5541374" lon="103.3526245"><ele>1592.91</ele><time>2025-09-18T19:59:50.000Z</time></trkpt>
        <trkpt lat="29.5542383" lon="103.3526153"><ele>1594.06</ele><time>2025-09-18T20:00:02.000Z</time></trkpt>
        <trkpt lat="29.5543316" lon="103.3526369"><ele>1592.69</ele><time>2025-09-18T20:00:10.000Z</time></trkpt>
        <trkpt lat="29.5544232" lon="103.3526423"><ele>1592.45</ele><time>2025-09-18T20:00:20.000Z</time></trkpt>
        <trkpt lat="29.5545016" lon="103.3526887"><ele>1591.74</ele><time>2025-09-18T20:00:28.000Z</time></trkpt>
        <trkpt lat="29.5545297" lon="103.3527927"><ele>1591.13</ele><time>2025-09-18T20:00:38.000Z</time></trkpt>
        <trkpt lat="29.5545304" lon="103.3529197"><ele>1591.49</ele><time>2025-09-18T20:00:46.000Z</time></trkpt>
        <trkpt lat="29.554536" lon="103.3530487"><ele>1591.6</ele><time>2025-09-18T20:00:56.000Z</time></trkpt>
        <trkpt lat="29.5545619" lon="103.3531562"><ele>1593.49</ele><time>2025-09-18T20:01:08.000Z</time></trkpt>
        <trkpt lat="29.5546187" lon="103.3532362"><ele>1597.15</ele><time>2025-09-18T20:01:26.000Z</time></trkpt>
        <trkpt lat="29.5547074" lon="103.3532417"><ele>1600.52</ele><time>2025-09-18T20:02:00.000Z</time></trkpt>
        <trkpt lat="29.55474" lon="103.3533273"><ele>1594.59</ele><time>2025-09-18T20:02:28.000Z</time></trkpt>
        <trkpt lat="29.5547764" lon="103.3534327"><ele>1591.37</ele><time>2025-09-18T20:02:36.000Z</time></trkpt>
        <trkpt lat="29.5548167" lon="103.353536"><ele>1593.3</ele><time>2025-09-18T20:02:42.000Z</time></trkpt>
        <trkpt lat="29.5548651" lon="103.3536437"><ele>1596.96</ele><time>2025-09-18T20:02:48.000Z</time></trkpt>
        <trkpt lat="29.5549541" lon="103.3536693"><ele>1601.58</ele><time>2025-09-18T20:03:00.000Z</time></trkpt>
        <trkpt lat="29.5550193" lon="103.3535878"><ele>1604.71</ele><time>2025-09-18T20:03:10.000Z</time></trkpt>
        <trkpt lat="29.5550922" lon="103.3535056"><ele>1605.95</ele><time>2025-09-18T20:03:22.000Z</time></trkpt>
        <trkpt lat="29.5551824" lon="103.3534577"><ele>1607.31</ele><time>2025-09-18T20:03:36.000Z</time></trkpt>
        <trkpt lat="29.5551776" lon="103.3535053"><ele>1609.74</ele><time>2025-09-18T20:03:44.000Z</time></trkpt>
        <trkpt lat="29.5552248" lon="103.353488"><ele>1616.08</ele><time>2025-09-18T20:04:04.000Z</time></trkpt>
        <trkpt lat="29.5552953" lon="103.3534223"><ele>1616.98</ele><time>2025-09-18T20:04:10.000Z</time></trkpt>
        <trkpt lat="29.5553859" lon="103.353365"><ele>1615.57</ele><time>2025-09-18T20:04:18.000Z</time></trkpt>
        <trkpt lat="29.5554917" lon="103.3533295"><ele>1610.66</ele><time>2025-09-18T20:04:28.000Z</time></trkpt>
        <trkpt lat="29.5555839" lon="103.3532682"><ele>1604.95</ele><time>2025-09-18T20:04:40.000Z</time></trkpt>
        <trkpt lat="29.5556777" lon="103.3532583"><ele>1600.97</ele><time>2025-09-18T20:04:50.000Z</time></trkpt>
        <trkpt lat="29.5557832" lon="103.3533072"><ele>1597.62</ele><time>2025-09-18T20:05:00.000Z</time></trkpt>
        <trkpt lat="29.5558838" lon="103.3533714"><ele>1596.08</ele><time>2025-09-18T20:05:08.000Z</time></trkpt>
        <trkpt lat="29.5559849" lon="103.3534322"><ele>1594.6</ele><time>2025-09-18T20:05:16.000Z</time></trkpt>
        <trkpt lat="29.5560886" lon="103.3534735"><ele>1593.57</ele><time>2025-09-18T20:05:24.000Z</time></trkpt>
        <trkpt lat="29.5561873" lon="103.3534726"><ele>1592.81</ele><time>2025-09-18T20:05:34.000Z</time></trkpt>
        <trkpt lat="29.556284" lon="103.3534506"><ele>1593.24</ele><time>2025-09-18T20:05:50.000Z</time></trkpt>
        <trkpt lat="29.556349" lon="103.3533779"><ele>1594.65</ele><time>2025-09-18T20:06:02.000Z</time></trkpt>
        <trkpt lat="29.5564101" lon="103.3532809"><ele>1596.27</ele><time>2025-09-18T20:06:14.000Z</time></trkpt>
        <trkpt lat="29.5564749" lon="103.353199"><ele>1596.99</ele><time>2025-09-18T20:06:22.000Z</time></trkpt>
        <trkpt lat="29.5565432" lon="103.3531275"><ele>1596.96</ele><time>2025-09-18T20:06:30.000Z</time></trkpt>
        <trkpt lat="29.556608" lon="103.3530462"><ele>1597.21</ele><time>2025-09-18T20:06:40.000Z</time></trkpt>
        <trkpt lat="29.5566897" lon="103.3529877"><ele>1596.41</ele><time>2025-09-18T20:06:50.000Z</time></trkpt>
        <trkpt lat="29.5567714" lon="103.3529324"><ele>1595.03</ele><time>2025-09-18T20:07:02.000Z</time></trkpt>
        <trkpt lat="29.5568312" lon="103.3528512"><ele>1593.43</ele><time>2025-09-18T20:07:12.000Z</time></trkpt>
        <trkpt lat="29.5568676" lon="103.3527494"><ele>1590.95</ele><time>2025-09-18T20:07:24.000Z</time></trkpt>
        <trkpt lat="29.5568966" lon="103.3526443"><ele>1588.28</ele><time>2025-09-18T20:07:34.000Z</time></trkpt>
        <trkpt lat="29.5569459" lon="103.3525541"><ele>1585.1</ele><time>2025-09-18T20:07:44.000Z</time></trkpt>
        <trkpt lat="29.5570304" lon="103.3524877"><ele>1583.09</ele><time>2025-09-18T20:07:56.000Z</time></trkpt>
        <trkpt lat="29.5571261" lon="103.3524327"><ele>1581.92</ele><time>2025-09-18T20:08:06.000Z</time></trkpt>
        <trkpt lat="29.5572127" lon="103.3523621"><ele>1580.75</ele><time>2025-09-18T20:08:20.000Z</time></trkpt>
        <trkpt lat="29.5572838" lon="103.3522837"><ele>1580.62</ele><time>2025-09-18T20:08:36.000Z</time></trkpt>
        <trkpt lat="29.5573552" lon="103.3522007"><ele>1578.02</ele><time>2025-09-18T20:08:48.000Z</time></trkpt>
        <trkpt lat="29.5574274" lon="103.3521284"><ele>1575.87</ele><time>2025-09-18T20:09:00.000Z</time></trkpt>
        <trkpt lat="29.5574879" lon="103.3520388"><ele>1573.06</ele><time>2025-09-18T20:09:12.000Z</time></trkpt>
        <trkpt lat="29.5575387" lon="103.3519413"><ele>1570.92</ele><time>2025-09-18T20:09:26.000Z</time></trkpt>
        <trkpt lat="29.5575522" lon="103.3518281"><ele>1567.45</ele><time>2025-09-18T20:09:38.000Z</time></trkpt>
        <trkpt lat="29.5575786" lon="103.3517131"><ele>1564.75</ele><time>2025-09-18T20:09:52.000Z</time></trkpt>
        <trkpt lat="29.5576191" lon="103.3516092"><ele>1563.02</ele><time>2025-09-18T20:10:06.000Z</time></trkpt>
        <trkpt lat="29.5576332" lon="103.3515036"><ele>1563.1</ele><time>2025-09-18T20:10:18.000Z</time></trkpt>
        <trkpt lat="29.5576352" lon="103.3513968"><ele>1561.41</ele><time>2025-09-18T20:10:34.000Z</time></trkpt>
        <trkpt lat="29.5577039" lon="103.3513708"><ele>1556.77</ele><time>2025-09-18T20:10:48.000Z</time></trkpt>
        <trkpt lat="29.5578062" lon="103.3514055"><ele>1551.54</ele><time>2025-09-18T20:11:00.000Z</time></trkpt>
        <trkpt lat="29.5579086" lon="103.3514426"><ele>1549.92</ele><time>2025-09-18T20:11:12.000Z</time></trkpt>
        <trkpt lat="29.5580086" lon="103.3514738"><ele>1549.58</ele><time>2025-09-18T20:11:28.000Z</time></trkpt>
        <trkpt lat="29.5581041" lon="103.3515136"><ele>1548.75</ele><time>2025-09-18T20:11:44.000Z</time></trkpt>
        <trkpt lat="29.5581997" lon="103.3515062"><ele>1548.29</ele><time>2025-09-18T20:11:56.000Z</time></trkpt>
        <trkpt lat="29.5582899" lon="103.3514549"><ele>1548.26</ele><time>2025-09-18T20:12:08.000Z</time></trkpt>
        <trkpt lat="29.5583862" lon="103.3514089"><ele>1549.14</ele><time>2025-09-18T20:12:20.000Z</time></trkpt>
        <trkpt lat="29.5584839" lon="103.3513652"><ele>1547.61</ele><time>2025-09-18T20:12:34.000Z</time></trkpt>
        <trkpt lat="29.5585777" lon="103.3513052"><ele>1546.62</ele><time>2025-09-18T20:12:46.000Z</time></trkpt>
        <trkpt lat="29.5586629" lon="103.3512307"><ele>1544.73</ele><time>2025-09-18T20:12:56.000Z</time></trkpt>
        <trkpt lat="29.5586955" lon="103.3511902"><ele>1544.86</ele><time>2025-09-18T20:13:04.000Z</time></trkpt>
        <trkpt lat="29.558779" lon="103.3511633"><ele>1542.95</ele><time>2025-09-18T20:13:18.000Z</time></trkpt>
        <trkpt lat="29.5588624" lon="103.3511084"><ele>1542.6</ele><time>2025-09-18T20:13:36.000Z</time></trkpt>
        <trkpt lat="29.5589379" lon="103.3510452"><ele>1540.84</ele><time>2025-09-18T20:13:44.000Z</time></trkpt>
        <trkpt lat="29.5589995" lon="103.3509585"><ele>1539.88</ele><time>2025-09-18T20:13:56.000Z</time></trkpt>
        <trkpt lat="29.559068" lon="103.3508695"><ele>1539.77</ele><time>2025-09-18T20:14:06.000Z</time></trkpt>
        <trkpt lat="29.5591517" lon="103.3507996"><ele>1539.62</ele><time>2025-09-18T20:14:16.000Z</time></trkpt>
        <trkpt lat="29.5592545" lon="103.3507724"><ele>1539.66</ele><time>2025-09-18T20:14:26.000Z</time></trkpt>
        <trkpt lat="29.5593506" lon="103.3507549"><ele>1539.56</ele><time>2025-09-18T20:14:36.000Z</time></trkpt>
        <trkpt lat="29.5594244" lon="103.3506803"><ele>1537.54</ele><time>2025-09-18T20:14:52.000Z</time></trkpt>
        <trkpt lat="29.5594985" lon="103.3505983"><ele>1533.66</ele><time>2025-09-18T20:15:04.000Z</time></trkpt>
        <trkpt lat="29.5595965" lon="103.3505692"><ele>1533.75</ele><time>2025-09-18T20:15:16.000Z</time></trkpt>
        <trkpt lat="29.5596407" lon="103.3504874"><ele>1532.8</ele><time>2025-09-18T20:15:30.000Z</time></trkpt>
        <trkpt lat="29.5597244" lon="103.3504305"><ele>1531.29</ele><time>2025-09-18T20:16:34.000Z</time></trkpt>
        <trkpt lat="29.5598078" lon="103.3503907"><ele>1531.5</ele><time>2025-09-18T20:16:46.000Z</time></trkpt>
        <trkpt lat="29.5598694" lon="103.3503108"><ele>1533.41</ele><time>2025-09-18T20:17:16.000Z</time></trkpt>
        <trkpt lat="29.5599537" lon="103.3502959"><ele>1538.67</ele><time>2025-09-18T20:18:06.000Z</time></trkpt>
        <trkpt lat="29.5600387" lon="103.3503269"><ele>1544.5</ele><time>2025-09-18T20:18:20.000Z</time></trkpt>
        <trkpt lat="29.560121" lon="103.3503883"><ele>1548.5</ele><time>2025-09-18T20:18:40.000Z</time></trkpt>
        <trkpt lat="29.5601828" lon="103.3504785"><ele>1551.62</ele><time>2025-09-18T20:19:06.000Z</time></trkpt>
        <trkpt lat="29.5602381" lon="103.3505766"><ele>1554.17</ele><time>2025-09-18T20:19:42.000Z</time></trkpt>
        <trkpt lat="29.5602747" lon="103.3506808"><ele>1557.73</ele><time>2025-09-18T20:20:38.000Z</time></trkpt>
        <trkpt lat="29.5602398" lon="103.3507779"><ele>1567.14</ele><time>2025-09-18T20:21:06.000Z</time></trkpt>
        <trkpt lat="29.5602575" lon="103.350879"><ele>1576.11</ele><time>2025-09-18T20:21:40.000Z</time></trkpt>
        <trkpt lat="29.5602446" lon="103.3509833"><ele>1581.18</ele><time>2025-09-18T20:22:00.000Z</time></trkpt>
        <trkpt lat="29.5602104" lon="103.3510816"><ele>1588.55</ele><time>2025-09-18T20:22:24.000Z</time></trkpt>
        <trkpt lat="29.5602592" lon="103.3511406"><ele>1597.08</ele><time>2025-09-18T20:22:36.000Z</time></trkpt>
        <trkpt lat="29.5603426" lon="103.3511247"><ele>1599.72</ele><time>2025-09-18T20:23:02.000Z</time></trkpt>
        <trkpt lat="29.5604565" lon="103.3510687"><ele>1601.47</ele><time>2025-09-18T20:24:10.000Z</time></trkpt>
        <trkpt lat="29.5605356" lon="103.3510111"><ele>1604.31</ele><time>2025-09-18T20:25:12.000Z</time></trkpt>
        <trkpt lat="29.5605862" lon="103.3510996"><ele>1606.77</ele><time>2025-09-18T20:25:32.000Z</time></trkpt>
        <trkpt lat="29.5606242" lon="103.3511943"><ele>1608.41</ele><time>2025-09-18T20:26:28.000Z</time></trkpt>
        <trkpt lat="29.5605895" lon="103.3512905"><ele>1614.88</ele><time>2025-09-18T20:26:56.000Z</time></trkpt>
        <trkpt lat="29.5606409" lon="103.3512888"><ele>1622.67</ele><time>2025-09-18T20:27:28.000Z</time></trkpt>
        <trkpt lat="29.5607319" lon="103.3512949"><ele>1629.47</ele><time>2025-09-18T20:28:14.000Z</time></trkpt>
        <trkpt lat="29.5606962" lon="103.3513279"><ele>1636.45</ele><time>2025-09-18T20:28:30.000Z</time></trkpt>
        <trkpt lat="29.5606259" lon="103.3514045"><ele>1642.56</ele><time>2025-09-18T20:28:46.000Z</time></trkpt>
        <trkpt lat="29.5605542" lon="103.3514901"><ele>1647.57</ele><time>2025-09-18T20:29:00.000Z</time></trkpt>
        <trkpt lat="29.5605597" lon="103.3515888"><ele>1651.47</ele><time>2025-09-18T20:29:32.000Z</time></trkpt>
        <trkpt lat="29.5606509" lon="103.3516598"><ele>1653.8</ele><time>2025-09-18T20:30:34.000Z</time></trkpt>
        <trkpt lat="29.5606772" lon="103.3515592"><ele>1656.76</ele><time>2025-09-18T20:30:50.000Z</time></trkpt>
        <trkpt lat="29.5607113" lon="103.351456"><ele>1658.94</ele><time>2025-09-18T20:31:04.000Z</time></trkpt>
        <trkpt lat="29.5607619" lon="103.3515013"><ele>1662.69</ele><time>2025-09-18T20:31:28.000Z</time></trkpt>
        <trkpt lat="29.560841" lon="103.3514715"><ele>1664.24</ele><time>2025-09-18T20:31:48.000Z</time></trkpt>
        <trkpt lat="29.5608375" lon="103.3514702"><ele>1668.28</ele><time>2025-09-18T20:32:00.000Z</time></trkpt>
        <trkpt lat="29.560721" lon="103.3514345"><ele>1670.96</ele><time>2025-09-18T20:33:14.000Z</time></trkpt>
        <trkpt lat="29.560729" lon="103.3514153"><ele>1674.76</ele><time>2025-09-18T20:33:16.000Z</time></trkpt>
        <trkpt lat="29.5607924" lon="103.3514897"><ele>1675.01</ele><time>2025-09-18T20:35:18.000Z</time></trkpt>
        <trkpt lat="29.5608765" lon="103.3515474"><ele>1676.19</ele><time>2025-09-18T20:38:05.000Z</time></trkpt>
        <trkpt lat="29.560965" lon="103.3515715"><ele>1674.03</ele><time>2025-09-18T20:39:19.000Z</time></trkpt>
        <trkpt lat="29.5610695" lon="103.351585"><ele>1672.32</ele><time>2025-09-18T20:39:33.000Z</time></trkpt>
        <trkpt lat="29.5611617" lon="103.3516025"><ele>1671.69</ele><time>2025-09-18T20:40:11.000Z</time></trkpt>
        <trkpt lat="29.56126" lon="103.351616"><ele>1671.49</ele><time>2025-09-18T20:40:19.000Z</time></trkpt>
        <trkpt lat="29.5613646" lon="103.3516351"><ele>1670.69</ele><time>2025-09-18T20:40:29.000Z</time></trkpt>
        <trkpt lat="29.5614454" lon="103.3516876"><ele>1671.05</ele><time>2025-09-18T20:40:59.000Z</time></trkpt>
        <trkpt lat="29.5614475" lon="103.3517872"><ele>1674.31</ele><time>2025-09-18T20:41:45.000Z</time></trkpt>
        <trkpt lat="29.5614824" lon="103.3518777"><ele>1684.42</ele><time>2025-09-18T20:42:35.000Z</time></trkpt>
        <trkpt lat="29.5615732" lon="103.3519128"><ele>1692.02</ele><time>2025-09-18T20:43:43.000Z</time></trkpt>
        <trkpt lat="29.5616633" lon="103.3519412"><ele>1699.39</ele><time>2025-09-18T20:44:03.000Z</time></trkpt>
        <trkpt lat="29.5617487" lon="103.3519893"><ele>1703.62</ele><time>2025-09-18T20:44:19.000Z</time></trkpt>
        <trkpt lat="29.5617979" lon="103.3520731"><ele>1707.62</ele><time>2025-09-18T20:44:51.000Z</time></trkpt>
        <trkpt lat="29.5618586" lon="103.3521561"><ele>1713.98</ele><time>2025-09-18T20:45:39.000Z</time></trkpt>
        <trkpt lat="29.5619343" lon="103.352216"><ele>1721.02</ele><time>2025-09-18T20:46:09.000Z</time></trkpt>
        <trkpt lat="29.5620313" lon="103.3522404"><ele>1726.38</ele><time>2025-09-18T20:46:27.000Z</time></trkpt>
        <trkpt lat="29.5621146" lon="103.3521897"><ele>1729.38</ele><time>2025-09-18T20:46:43.000Z</time></trkpt>
        <trkpt lat="29.5622091" lon="103.3521614"><ele>1733.16</ele><time>2025-09-18T20:47:07.000Z</time></trkpt>
        <trkpt lat="29.5623007" lon="103.352178"><ele>1738.29</ele><time>2025-09-18T20:47:27.000Z</time></trkpt>
        <trkpt lat="29.5623821" lon="103.3521345"><ele>1741.99</ele><time>2025-09-18T20:49:01.000Z</time></trkpt>
        <trkpt lat="29.5624722" lon="103.3521424"><ele>1747.81</ele><time>2025-09-18T20:49:59.000Z</time></trkpt>
        <trkpt lat="29.5625376" lon="103.3522198"><ele>1752.77</ele><time>2025-09-18T20:50:19.000Z</time></trkpt>
        <trkpt lat="29.5626318" lon="103.3522077"><ele>1755.68</ele><time>2025-09-18T20:51:21.000Z</time></trkpt>
        <trkpt lat="29.56273" lon="103.3521981"><ele>1763.91</ele><time>2025-09-18T20:51:35.000Z</time></trkpt>
        <trkpt lat="29.562726" lon="103.3520906"><ele>1770</ele><time>2025-09-18T20:51:45.000Z</time></trkpt>
        <trkpt lat="29.5626673" lon="103.3520121"><ele>1773.66</ele><time>2025-09-18T20:51:53.000Z</time></trkpt>
        <trkpt lat="29.5625971" lon="103.351918"><ele>1777.92</ele><time>2025-09-18T20:52:03.000Z</time></trkpt>
        <trkpt lat="29.5625283" lon="103.3518283"><ele>1778.65</ele><time>2025-09-18T20:52:13.000Z</time></trkpt>
        <trkpt lat="29.5624943" lon="103.3517265"><ele>1779.09</ele><time>2025-09-18T20:52:25.000Z</time></trkpt>
        <trkpt lat="29.5625474" lon="103.3516539"><ele>1777.48</ele><time>2025-09-18T20:52:41.000Z</time></trkpt>
        <trkpt lat="29.5626188" lon="103.3515821"><ele>1776.93</ele><time>2025-09-18T20:53:13.000Z</time></trkpt>
        <trkpt lat="29.5626765" lon="103.3514952"><ele>1778.23</ele><time>2025-09-18T20:53:31.000Z</time></trkpt>
        <trkpt lat="29.5627103" lon="103.3513883"><ele>1780.46</ele><time>2025-09-18T20:53:43.000Z</time></trkpt>
        <trkpt lat="29.5627611" lon="103.3512802"><ele>1783.19</ele><time>2025-09-18T20:53:55.000Z</time></trkpt>
        <trkpt lat="29.5628115" lon="103.3511789"><ele>1784.44</ele><time>2025-09-18T20:54:07.000Z</time></trkpt>
        <trkpt lat="29.5628622" lon="103.351086"><ele>1786.52</ele><time>2025-09-18T20:54:25.000Z</time></trkpt>
        <trkpt lat="29.5628673" lon="103.3509838"><ele>1788.71</ele><time>2025-09-18T20:54:43.000Z</time></trkpt>
        <trkpt lat="29.5628463" lon="103.3508802"><ele>1792.95</ele><time>2025-09-18T20:55:01.000Z</time></trkpt>
        <trkpt lat="29.562835" lon="103.3507758"><ele>1796.75</ele><time>2025-09-18T20:55:17.000Z</time></trkpt>
        <trkpt lat="29.5628461" lon="103.3506734"><ele>1799.25</ele><time>2025-09-18T20:55:33.000Z</time></trkpt>
        <trkpt lat="29.5628144" lon="103.3505679"><ele>1800.46</ele><time>2025-09-18T20:55:43.000Z</time></trkpt>
        <trkpt lat="29.5628496" lon="103.3504757"><ele>1799.6</ele><time>2025-09-18T20:56:11.000Z</time></trkpt>
        <trkpt lat="29.5628486" lon="103.3503717"><ele>1798.39</ele><time>2025-09-18T20:56:19.000Z</time></trkpt>
        <trkpt lat="29.5628272" lon="103.3502557"><ele>1796.28</ele><time>2025-09-18T20:56:29.000Z</time></trkpt>
        <trkpt lat="29.5628317" lon="103.3501481"><ele>1793.66</ele><time>2025-09-18T20:56:37.000Z</time></trkpt>
        <trkpt lat="29.5628375" lon="103.3500348"><ele>1791.27</ele><time>2025-09-18T20:56:47.000Z</time></trkpt>
        <trkpt lat="29.5628292" lon="103.3499222"><ele>1789.63</ele><time>2025-09-18T20:56:55.000Z</time></trkpt>
        <trkpt lat="29.5628438" lon="103.3498125"><ele>1788.49</ele><time>2025-09-18T20:57:03.000Z</time></trkpt>
        <trkpt lat="29.5628903" lon="103.3496946"><ele>1787.07</ele><time>2025-09-18T20:57:11.000Z</time></trkpt>
        <trkpt lat="29.5629584" lon="103.3495835"><ele>1786.58</ele><time>2025-09-18T20:57:19.000Z</time></trkpt>
        <trkpt lat="29.5630341" lon="103.349484"><ele>1786.07</ele><time>2025-09-18T20:57:27.000Z</time></trkpt>
        <trkpt lat="29.5630969" lon="103.3493917"><ele>1785.31</ele><time>2025-09-18T20:57:35.000Z</time></trkpt>
        <trkpt lat="29.5631564" lon="103.3492967"><ele>1785.23</ele><time>2025-09-18T20:57:45.000Z</time></trkpt>
        <trkpt lat="29.5632185" lon="103.3491905"><ele>1784.44</ele><time>2025-09-18T20:57:55.000Z</time></trkpt>
        <trkpt lat="29.5632304" lon="103.3490709"><ele>1785.39</ele><time>2025-09-18T20:58:05.000Z</time></trkpt>
        <trkpt lat="29.5632339" lon="103.3489607"><ele>1786.31</ele><time>2025-09-18T20:58:15.000Z</time></trkpt>
        <trkpt lat="29.5632513" lon="103.3488488"><ele>1788.11</ele><time>2025-09-18T20:58:28.000Z</time></trkpt>
        <trkpt lat="29.5632514" lon="103.3487359"><ele>1790.96</ele><time>2025-09-18T20:58:38.000Z</time></trkpt>
        <trkpt lat="29.563243" lon="103.348622"><ele>1792</ele><time>2025-09-18T20:58:48.000Z</time></trkpt>
        <trkpt lat="29.5632553" lon="103.3484974"><ele>1792.41</ele><time>2025-09-18T20:58:58.000Z</time></trkpt>
        <trkpt lat="29.5632815" lon="103.348384"><ele>1792.81</ele><time>2025-09-18T20:59:06.000Z</time></trkpt>
        <trkpt lat="29.5633301" lon="103.3482879"><ele>1793.77</ele><time>2025-09-18T20:59:14.000Z</time></trkpt>
        <trkpt lat="29.5633929" lon="103.3481938"><ele>1794.34</ele><time>2025-09-18T20:59:22.000Z</time></trkpt>
        <trkpt lat="29.5634376" lon="103.3480822"><ele>1794.78</ele><time>2025-09-18T20:59:32.000Z</time></trkpt>
        <trkpt lat="29.5634939" lon="103.347984"><ele>1794.45</ele><time>2025-09-18T20:59:40.000Z</time></trkpt>
        <trkpt lat="29.5635103" lon="103.3478673"><ele>1793.41</ele><time>2025-09-18T20:59:50.000Z</time></trkpt>
        <trkpt lat="29.5635341" lon="103.3477537"><ele>1792.4</ele><time>2025-09-18T21:00:00.000Z</time></trkpt>
        <trkpt lat="29.5635471" lon="103.3476424"><ele>1792.56</ele><time>2025-09-18T21:00:12.000Z</time></trkpt>
        <trkpt lat="29.5635676" lon="103.3475304"><ele>1792.54</ele><time>2025-09-18T21:00:26.000Z</time></trkpt>
        <trkpt lat="29.5635486" lon="103.347414"><ele>1790.35</ele><time>2025-09-18T21:00:34.000Z</time></trkpt>
        <trkpt lat="29.5635033" lon="103.3473174"><ele>1788.86</ele><time>2025-09-18T21:00:42.000Z</time></trkpt>
        <trkpt lat="29.5634297" lon="103.3472393"><ele>1789.25</ele><time>2025-09-18T21:00:52.000Z</time></trkpt>
        <trkpt lat="29.5633397" lon="103.3471769"><ele>1789.51</ele><time>2025-09-18T21:01:00.000Z</time></trkpt>
        <trkpt lat="29.5632397" lon="103.3471164"><ele>1789.06</ele><time>2025-09-18T21:01:08.000Z</time></trkpt>
        <trkpt lat="29.5631519" lon="103.3470332"><ele>1789.65</ele><time>2025-09-18T21:01:16.000Z</time></trkpt>
        <trkpt lat="29.5630601" lon="103.346983"><ele>1789.95</ele><time>2025-09-18T21:01:24.000Z</time></trkpt>
        <trkpt lat="29.5629615" lon="103.3469509"><ele>1787.69</ele><time>2025-09-18T21:01:38.000Z</time></trkpt>
        <trkpt lat="29.5628947" lon="103.3468786"><ele>1779.25</ele><time>2025-09-18T21:01:46.000Z</time></trkpt>
        <trkpt lat="29.5628294" lon="103.3467915"><ele>1774.83</ele><time>2025-09-18T21:01:54.000Z</time></trkpt>
        <trkpt lat="29.562762" lon="103.3467082"><ele>1772.49</ele><time>2025-09-18T21:02:04.000Z</time></trkpt>
        <trkpt lat="29.5627235" lon="103.3466029"><ele>1768.58</ele><time>2025-09-18T21:02:28.000Z</time></trkpt>
        <trkpt lat="29.5626657" lon="103.3464945"><ele>1759.15</ele><time>2025-09-18T21:02:34.000Z</time></trkpt>
        <trkpt lat="29.5625933" lon="103.346425"><ele>1753.16</ele><time>2025-09-18T21:02:38.000Z</time></trkpt>
        <trkpt lat="29.5624872" lon="103.3463683"><ele>1750.41</ele><time>2025-09-18T21:02:44.000Z</time></trkpt>
        <trkpt lat="29.5623717" lon="103.3463333"><ele>1749.58</ele><time>2025-09-18T21:02:52.000Z</time></trkpt>
        <trkpt lat="29.5622751" lon="103.3462926"><ele>1747.44</ele><time>2025-09-18T21:02:58.000Z</time></trkpt>
        <trkpt lat="29.5622014" lon="103.3462194"><ele>1744.92</ele><time>2025-09-18T21:03:04.000Z</time></trkpt>
        <trkpt lat="29.5621295" lon="103.3461433"><ele>1743.95</ele><time>2025-09-18T21:03:12.000Z</time></trkpt>
        <trkpt lat="29.5620582" lon="103.3460498"><ele>1745.91</ele><time>2025-09-18T21:03:22.000Z</time></trkpt>
        <trkpt lat="29.5620028" lon="103.3459351"><ele>1747.31</ele><time>2025-09-18T21:03:30.000Z</time></trkpt>
        <trkpt lat="29.5619452" lon="103.3458394"><ele>1748.8</ele><time>2025-09-18T21:03:40.000Z</time></trkpt>
        <trkpt lat="29.5618671" lon="103.3457641"><ele>1749.86</ele><time>2025-09-18T21:03:50.000Z</time></trkpt>
        <trkpt lat="29.5617857" lon="103.3457057"><ele>1753.29</ele><time>2025-09-18T21:03:58.000Z</time></trkpt>
        <trkpt lat="29.5617034" lon="103.3456516"><ele>1758.64</ele><time>2025-09-18T21:04:06.000Z</time></trkpt>
        <trkpt lat="29.5616232" lon="103.3455821"><ele>1763.34</ele><time>2025-09-18T21:04:14.000Z</time></trkpt>
        <trkpt lat="29.5615541" lon="103.3455092"><ele>1767.62</ele><time>2025-09-18T21:04:22.000Z</time></trkpt>
        <trkpt lat="29.5615032" lon="103.3454162"><ele>1772.15</ele><time>2025-09-18T21:04:30.000Z</time></trkpt>
        <trkpt lat="29.5614689" lon="103.3453114"><ele>1775.74</ele><time>2025-09-18T21:04:40.000Z</time></trkpt>
        <trkpt lat="29.5614829" lon="103.3453081"><ele>1778</ele><time>2025-09-18T21:04:46.000Z</time></trkpt>
        <trkpt lat="29.5614098" lon="103.3453091"><ele>1779.88</ele><time>2025-09-18T21:09:28.000Z</time></trkpt>
        <trkpt lat="29.5613391" lon="103.3452304"><ele>1781.06</ele><time>2025-09-18T21:09:46.000Z</time></trkpt>
        <trkpt lat="29.5612711" lon="103.345151"><ele>1783.09</ele><time>2025-09-18T21:10:16.000Z</time></trkpt>
        <trkpt lat="29.5612024" lon="103.3450808"><ele>1786.4</ele><time>2025-09-18T21:10:44.000Z</time></trkpt>
        <trkpt lat="29.5611161" lon="103.3450538"><ele>1792.21</ele><time>2025-09-18T21:11:32.000Z</time></trkpt>
        <trkpt lat="29.5610246" lon="103.3450487"><ele>1797.98</ele><time>2025-09-18T21:12:18.000Z</time></trkpt>
        <trkpt lat="29.5609407" lon="103.3450916"><ele>1803.85</ele><time>2025-09-18T21:13:06.000Z</time></trkpt>
        <trkpt lat="29.560882" lon="103.3450378"><ele>1811.92</ele><time>2025-09-18T21:13:38.000Z</time></trkpt>
        <trkpt lat="29.5608546" lon="103.3449408"><ele>1819.6</ele><time>2025-09-18T21:14:02.000Z</time></trkpt>
        <trkpt lat="29.5607805" lon="103.3449567"><ele>1825.63</ele><time>2025-09-18T21:15:36.000Z</time></trkpt>
        <trkpt lat="29.5607655" lon="103.3448516"><ele>1832.71</ele><time>2025-09-18T21:15:54.000Z</time></trkpt>
        <trkpt lat="29.5607461" lon="103.3447455"><ele>1838.01</ele><time>2025-09-18T21:16:12.000Z</time></trkpt>
        <trkpt lat="29.5606792" lon="103.3446864"><ele>1841.73</ele><time>2025-09-18T21:16:38.000Z</time></trkpt>
        <trkpt lat="29.56059" lon="103.3446557"><ele>1846.09</ele><time>2025-09-18T21:17:06.000Z</time></trkpt>
        <trkpt lat="29.5604977" lon="103.3446153"><ele>1851.97</ele><time>2025-09-18T21:17:32.000Z</time></trkpt>
        <trkpt lat="29.5604168" lon="103.3445534"><ele>1857.72</ele><time>2025-09-18T21:18:30.000Z</time></trkpt>
        <trkpt lat="29.5603349" lon="103.3444966"><ele>1861.78</ele><time>2025-09-18T21:18:56.000Z</time></trkpt>
        <trkpt lat="29.560256" lon="103.3444379"><ele>1866.73</ele><time>2025-09-18T21:19:24.000Z</time></trkpt>
        <trkpt lat="29.5601963" lon="103.3443572"><ele>1872.46</ele><time>2025-09-18T21:20:06.000Z</time></trkpt>
        <trkpt lat="29.5602163" lon="103.3442635"><ele>1877.75</ele><time>2025-09-18T21:20:34.000Z</time></trkpt>
        <trkpt lat="29.5601617" lon="103.3442441"><ele>1883.29</ele><time>2025-09-18T21:21:04.000Z</time></trkpt>
        <trkpt lat="29.5600872" lon="103.3441994"><ele>1888.79</ele><time>2025-09-18T21:21:24.000Z</time></trkpt>
        <trkpt lat="29.5601131" lon="103.3441277"><ele>1893.03</ele><time>2025-09-18T21:21:58.000Z</time></trkpt>
        <trkpt lat="29.5600975" lon="103.3440375"><ele>1898.48</ele><time>2025-09-18T21:22:34.000Z</time></trkpt>
        <trkpt lat="29.560157" lon="103.3439651"><ele>1904.24</ele><time>2025-09-18T21:23:32.000Z</time></trkpt>
        <trkpt lat="29.5601265" lon="103.3438992"><ele>1909.4</ele><time>2025-09-18T21:23:56.000Z</time></trkpt>
        <trkpt lat="29.5600507" lon="103.3438537"><ele>1914.07</ele><time>2025-09-18T21:24:36.000Z</time></trkpt>
        <trkpt lat="29.5599726" lon="103.3437868"><ele>1917.77</ele><time>2025-09-18T21:24:58.000Z</time></trkpt>
        <trkpt lat="29.5598789" lon="103.343759"><ele>1921.33</ele><time>2025-09-18T21:25:22.000Z</time></trkpt>
        <trkpt lat="29.5598062" lon="103.3436951"><ele>1926.58</ele><time>2025-09-18T21:25:46.000Z</time></trkpt>
        <trkpt lat="29.5597438" lon="103.3436142"><ele>1931.91</ele><time>2025-09-18T21:26:08.000Z</time></trkpt>
        <trkpt lat="29.5596905" lon="103.3435269"><ele>1935</ele><time>2025-09-18T21:26:30.000Z</time></trkpt>
        <trkpt lat="29.5596782" lon="103.3435036"><ele>1938.55</ele><time>2025-09-18T21:26:32.000Z</time></trkpt>
        <trkpt lat="29.5596784" lon="103.3435894"><ele>1940.54</ele><time>2025-09-18T21:27:14.000Z</time></trkpt>
        <trkpt lat="29.5596125" lon="103.3436184"><ele>1945.57</ele><time>2025-09-18T21:27:34.000Z</time></trkpt>
        <trkpt lat="29.5595292" lon="103.3435819"><ele>1949.47</ele><time>2025-09-18T21:28:04.000Z</time></trkpt>
        <trkpt lat="29.5594738" lon="103.3436621"><ele>1953.68</ele><time>2025-09-18T21:29:14.000Z</time></trkpt>
        <trkpt lat="29.5593775" lon="103.3436448"><ele>1960.17</ele><time>2025-09-18T21:29:42.000Z</time></trkpt>
        <trkpt lat="29.5592839" lon="103.3436477"><ele>1964.33</ele><time>2025-09-18T21:30:16.000Z</time></trkpt>
        <trkpt lat="29.5592749" lon="103.3437297"><ele>1968.67</ele><time>2025-09-18T21:30:40.000Z</time></trkpt>
        <trkpt lat="29.5592287" lon="103.343828"><ele>1972.59</ele><time>2025-09-18T21:31:40.000Z</time></trkpt>
        <trkpt lat="29.5591535" lon="103.3437683"><ele>1976.13</ele><time>2025-09-18T21:32:18.000Z</time></trkpt>
        <trkpt lat="29.5590658" lon="103.3437388"><ele>1982.11</ele><time>2025-09-18T21:32:44.000Z</time></trkpt>
        <trkpt lat="29.558994" lon="103.3438163"><ele>1986.86</ele><time>2025-09-18T21:33:52.000Z</time></trkpt>
        <trkpt lat="29.5589092" lon="103.3438657"><ele>1993.31</ele><time>2025-09-18T21:34:16.000Z</time></trkpt>
        <trkpt lat="29.5589093" lon="103.3439757"><ele>1998.83</ele><time>2025-09-18T21:34:26.000Z</time></trkpt>
        <trkpt lat="29.5589332" lon="103.3440837"><ele>2002.35</ele><time>2025-09-18T21:34:36.000Z</time></trkpt>
        <trkpt lat="29.5589622" lon="103.3441908"><ele>2004.64</ele><time>2025-09-18T21:34:48.000Z</time></trkpt>
        <trkpt lat="29.5589252" lon="103.344148"><ele>2006.26</ele><time>2025-09-18T21:35:04.000Z</time></trkpt>
        <trkpt lat="29.55891" lon="103.344201"><ele>2008.58</ele><time>2025-09-18T21:35:28.000Z</time></trkpt>
        <trkpt lat="29.5589144" lon="103.3442982"><ele>2010.48</ele><time>2025-09-18T21:35:50.000Z</time></trkpt>
        <trkpt lat="29.5588477" lon="103.3443596"><ele>2015.59</ele><time>2025-09-18T21:36:14.000Z</time></trkpt>
        <trkpt lat="29.5588051" lon="103.3442968"><ele>2020.83</ele><time>2025-09-18T21:37:02.000Z</time></trkpt>
        <trkpt lat="29.5587152" lon="103.3442194"><ele>2023.34</ele><time>2025-09-18T21:38:31.000Z</time></trkpt>
        <trkpt lat="29.5586164" lon="103.3441933"><ele>2025.2</ele><time>2025-09-18T21:38:43.000Z</time></trkpt>
        <trkpt lat="29.5585231" lon="103.3441694"><ele>2028.08</ele><time>2025-09-18T21:39:07.000Z</time></trkpt>
        <trkpt lat="29.5584392" lon="103.3441286"><ele>2032.29</ele><time>2025-09-18T21:39:37.000Z</time></trkpt>
        <trkpt lat="29.5583505" lon="103.3441021"><ele>2036.7</ele><time>2025-09-18T21:40:04.000Z</time></trkpt>
        <trkpt lat="29.5582541" lon="103.3440671"><ele>2039.08</ele><time>2025-09-18T21:40:22.000Z</time></trkpt>
        <trkpt lat="29.5581403" lon="103.3440505"><ele>2038.88</ele><time>2025-09-18T21:40:30.000Z</time></trkpt>
        <trkpt lat="29.5581802" lon="103.3440718"><ele>2038.61</ele><time>2025-09-18T21:40:48.000Z</time></trkpt>
        <trkpt lat="29.5582382" lon="103.3441017"><ele>2043.66</ele><time>2025-09-18T21:40:54.000Z</time></trkpt>
        <trkpt lat="29.5582113" lon="103.3441866"><ele>2046.55</ele><time>2025-09-18T21:41:12.000Z</time></trkpt>
        <trkpt lat="29.5580235" lon="103.3441717"><ele>2047.88</ele><time>2025-09-18T21:41:22.000Z</time></trkpt>
        <trkpt lat="29.5577859" lon="103.3440779"><ele>2048.72</ele><time>2025-09-18T21:41:32.000Z</time></trkpt>
        <trkpt lat="29.5576662" lon="103.3439792"><ele>2050.54</ele><time>2025-09-18T21:41:40.000Z</time></trkpt>
        <trkpt lat="29.5575777" lon="103.3438787"><ele>2051.68</ele><time>2025-09-18T21:41:50.000Z</time></trkpt>
        <trkpt lat="29.5575655" lon="103.3437614"><ele>2050.98</ele><time>2025-09-18T21:42:00.000Z</time></trkpt>
        <trkpt lat="29.5575781" lon="103.343718"><ele>2048.8</ele><time>2025-09-18T21:42:06.000Z</time></trkpt>
        <trkpt lat="29.5575169" lon="103.3437295"><ele>2047.28</ele><time>2025-09-18T21:43:01.000Z</time></trkpt>
        <trkpt lat="29.5574644" lon="103.3436686"><ele>2046.6</ele><time>2025-09-18T21:43:15.000Z</time></trkpt>
        <trkpt lat="29.557382" lon="103.3436834"><ele>2046.22</ele><time>2025-09-18T21:43:41.000Z</time></trkpt>
        <trkpt lat="29.5573609" lon="103.343693"><ele>2045.15</ele><time>2025-09-18T21:43:43.000Z</time></trkpt>
        <trkpt lat="29.5572995" lon="103.3436656"><ele>2044.41</ele><time>2025-09-18T21:44:27.000Z</time></trkpt>
        <trkpt lat="29.5572101" lon="103.3436364"><ele>2043.8</ele><time>2025-09-18T21:45:13.000Z</time></trkpt>
        <trkpt lat="29.5571156" lon="103.3436901"><ele>2047.9</ele><time>2025-09-18T21:46:26.000Z</time></trkpt>
        <trkpt lat="29.557027" lon="103.3437299"><ele>2051.15</ele><time>2025-09-18T21:46:48.000Z</time></trkpt>
        <trkpt lat="29.55693" lon="103.3437657"><ele>2055.47</ele><time>2025-09-18T21:47:00.000Z</time></trkpt>
        <trkpt lat="29.5568283" lon="103.3437511"><ele>2059.2</ele><time>2025-09-18T21:48:04.000Z</time></trkpt>
        <trkpt lat="29.5567304" lon="103.3437498"><ele>2064.42</ele><time>2025-09-18T21:48:20.000Z</time></trkpt>
        <trkpt lat="29.5566601" lon="103.3438145"><ele>2070.29</ele><time>2025-09-18T21:48:36.000Z</time></trkpt>
        <trkpt lat="29.5565906" lon="103.3438822"><ele>2072.31</ele><time>2025-09-18T21:49:12.000Z</time></trkpt>
        <trkpt lat="29.556595" lon="103.3439771"><ele>2077.15</ele><time>2025-09-18T21:49:40.000Z</time></trkpt>
        <trkpt lat="29.5565675" lon="103.3440729"><ele>2081.39</ele><time>2025-09-18T21:50:20.000Z</time></trkpt>
        <trkpt lat="29.5565239" lon="103.344178"><ele>2086.86</ele><time>2025-09-18T21:50:52.000Z</time></trkpt>
        <trkpt lat="29.5564585" lon="103.3442552"><ele>2091.8</ele><time>2025-09-18T21:51:10.000Z</time></trkpt>
        <trkpt lat="29.5563705" lon="103.3442869"><ele>2094.71</ele><time>2025-09-18T21:51:30.000Z</time></trkpt>
        <trkpt lat="29.5562932" lon="103.344342"><ele>2101.01</ele><time>2025-09-18T21:51:50.000Z</time></trkpt>
        <trkpt lat="29.556233" lon="103.3444324"><ele>2105</ele><time>2025-09-18T21:53:10.000Z</time></trkpt>
        <trkpt lat="29.5561759" lon="103.3445139"><ele>2109.63</ele><time>2025-09-18T21:53:26.000Z</time></trkpt>
        <trkpt lat="29.5561013" lon="103.3445969"><ele>2111.97</ele><time>2025-09-18T21:53:42.000Z</time></trkpt>
        <trkpt lat="29.5560507" lon="103.3446649"><ele>2113.78</ele><time>2025-09-18T21:53:58.000Z</time></trkpt>
        <trkpt lat="29.5560101" lon="103.3447539"><ele>2116.05</ele><time>2025-09-18T21:54:32.000Z</time></trkpt>
        <trkpt lat="29.5559671" lon="103.3448471"><ele>2119</ele><time>2025-09-18T21:55:18.000Z</time></trkpt>
        <trkpt lat="29.5559274" lon="103.3449415"><ele>2123.98</ele><time>2025-09-18T21:55:38.000Z</time></trkpt>
        <trkpt lat="29.5558555" lon="103.3450008"><ele>2127.31</ele><time>2025-09-18T21:55:54.000Z</time></trkpt>
        <trkpt lat="29.555761" lon="103.3450268"><ele>2129.96</ele><time>2025-09-18T21:56:14.000Z</time></trkpt>
        <trkpt lat="29.5556702" lon="103.3449954"><ele>2131.74</ele><time>2025-09-18T21:56:36.000Z</time></trkpt>
        <trkpt lat="29.5555919" lon="103.345032"><ele>2135.87</ele><time>2025-09-18T21:58:24.000Z</time></trkpt>
        <trkpt lat="29.5555444" lon="103.345126"><ele>2140.39</ele><time>2025-09-18T21:59:00.000Z</time></trkpt>
        <trkpt lat="29.5554744" lon="103.3451915"><ele>2147.3</ele><time>2025-09-18T21:59:46.000Z</time></trkpt>
        <trkpt lat="29.5554111" lon="103.3451433"><ele>2154</ele><time>2025-09-18T22:00:02.000Z</time></trkpt>
        <trkpt lat="29.5553502" lon="103.3450602"><ele>2157.09</ele><time>2025-09-18T22:00:20.000Z</time></trkpt>
        <trkpt lat="29.555277" lon="103.3450743"><ele>2161.13</ele><time>2025-09-18T22:00:36.000Z</time></trkpt>
        <trkpt lat="29.5552019" lon="103.3451306"><ele>2165.11</ele><time>2025-09-18T22:00:50.000Z</time></trkpt>
        <trkpt lat="29.5551082" lon="103.3451825"><ele>2168</ele><time>2025-09-18T22:01:10.000Z</time></trkpt>
        <trkpt lat="29.5550122" lon="103.3452086"><ele>2170.39</ele><time>2025-09-18T22:01:22.000Z</time></trkpt>
        <trkpt lat="29.5549133" lon="103.3452312"><ele>2172.45</ele><time>2025-09-18T22:01:54.000Z</time></trkpt>
        <trkpt lat="29.5548319" lon="103.3452843"><ele>2175.99</ele><time>2025-09-18T22:02:12.000Z</time></trkpt>
        <trkpt lat="29.5547675" lon="103.345367"><ele>2177.79</ele><time>2025-09-18T22:03:12.000Z</time></trkpt>
        <trkpt lat="29.5546909" lon="103.3454415"><ele>2178.35</ele><time>2025-09-18T22:06:10.000Z</time></trkpt>
        <trkpt lat="29.554598" lon="103.3454621"><ele>2182.49</ele><time>2025-09-18T22:06:32.000Z</time></trkpt>
        <trkpt lat="29.5545031" lon="103.3454687"><ele>2186.34</ele><time>2025-09-18T22:07:00.000Z</time></trkpt>
        <trkpt lat="29.5544095" lon="103.3454679"><ele>2191.12</ele><time>2025-09-18T22:07:26.000Z</time></trkpt>
        <trkpt lat="29.5543262" lon="103.3455037"><ele>2196.2</ele><time>2025-09-18T22:07:50.000Z</time></trkpt>
        <trkpt lat="29.5542395" lon="103.3455307"><ele>2198.57</ele><time>2025-09-18T22:08:20.000Z</time></trkpt>
        <trkpt lat="29.5541462" lon="103.3455594"><ele>2203.41</ele><time>2025-09-18T22:08:56.000Z</time></trkpt>
        <trkpt lat="29.5540543" lon="103.3455553"><ele>2210.33</ele><time>2025-09-18T22:09:12.000Z</time></trkpt>
        <trkpt lat="29.5539671" lon="103.34552"><ele>2214.77</ele><time>2025-09-18T22:09:30.000Z</time></trkpt>
        <trkpt lat="29.5539004" lon="103.3454461"><ele>2220.21</ele><time>2025-09-18T22:10:02.000Z</time></trkpt>
        <trkpt lat="29.5538158" lon="103.3453883"><ele>2221.93</ele><time>2025-09-18T22:10:18.000Z</time></trkpt>
        <trkpt lat="29.5537234" lon="103.3453556"><ele>2225.44</ele><time>2025-09-18T22:10:34.000Z</time></trkpt>
        <trkpt lat="29.553625" lon="103.3453629"><ele>2228.67</ele><time>2025-09-18T22:10:52.000Z</time></trkpt>
        <trkpt lat="29.5535238" lon="103.3453657"><ele>2232.19</ele><time>2025-09-18T22:11:06.000Z</time></trkpt>
        <trkpt lat="29.553423" lon="103.3453796"><ele>2234.7</ele><time>2025-09-18T22:11:18.000Z</time></trkpt>
        <trkpt lat="29.5533271" lon="103.3454165"><ele>2238.18</ele><time>2025-09-18T22:11:34.000Z</time></trkpt>
        <trkpt lat="29.5532267" lon="103.3454291"><ele>2240.61</ele><time>2025-09-18T22:11:46.000Z</time></trkpt>
        <trkpt lat="29.5531196" lon="103.3454286"><ele>2240.97</ele><time>2025-09-18T22:11:56.000Z</time></trkpt>
        <trkpt lat="29.553016" lon="103.3454426"><ele>2241.64</ele><time>2025-09-18T22:12:06.000Z</time></trkpt>
        <trkpt lat="29.5529204" lon="103.3454628"><ele>2242.38</ele><time>2025-09-18T22:12:16.000Z</time></trkpt>
        <trkpt lat="29.5528233" lon="103.3454845"><ele>2243.65</ele><time>2025-09-18T22:12:26.000Z</time></trkpt>
        <trkpt lat="29.5527272" lon="103.3454691"><ele>2244.41</ele><time>2025-09-18T22:12:36.000Z</time></trkpt>
        <trkpt lat="29.5526292" lon="103.3454722"><ele>2244.44</ele><time>2025-09-18T22:12:46.000Z</time></trkpt>
        <trkpt lat="29.5525214" lon="103.3454767"><ele>2243.75</ele><time>2025-09-18T22:12:56.000Z</time></trkpt>
        <trkpt lat="29.5524716" lon="103.3454937"><ele>2244.38</ele><time>2025-09-18T22:13:04.000Z</time></trkpt>
        <trkpt lat="29.5524578" lon="103.3454033"><ele>2243.84</ele><time>2025-09-18T22:13:20.000Z</time></trkpt>
        <trkpt lat="29.5524136" lon="103.3453086"><ele>2243.52</ele><time>2025-09-18T22:13:28.000Z</time></trkpt>
        <trkpt lat="29.5523349" lon="103.3452298"><ele>2243.87</ele><time>2025-09-18T22:13:38.000Z</time></trkpt>
        <trkpt lat="29.5522461" lon="103.3451767"><ele>2244.6</ele><time>2025-09-18T22:13:46.000Z</time></trkpt>
        <trkpt lat="29.5521405" lon="103.3451506"><ele>2245.13</ele><time>2025-09-18T22:13:54.000Z</time></trkpt>
        <trkpt lat="29.5520447" lon="103.3451129"><ele>2246.27</ele><time>2025-09-18T22:14:02.000Z</time></trkpt>
        <trkpt lat="29.5519844" lon="103.345037"><ele>2247.31</ele><time>2025-09-18T22:14:10.000Z</time></trkpt>
        <trkpt lat="29.5519734" lon="103.3449337"><ele>2246.76</ele><time>2025-09-18T22:14:18.000Z</time></trkpt>
        <trkpt lat="29.551911" lon="103.3448494"><ele>2246.27</ele><time>2025-09-18T22:14:28.000Z</time></trkpt>
        <trkpt lat="29.5518446" lon="103.3447683"><ele>2247.29</ele><time>2025-09-18T22:14:38.000Z</time></trkpt>
        <trkpt lat="29.5517948" lon="103.3446996"><ele>2246.01</ele><time>2025-09-18T22:14:48.000Z</time></trkpt>
        <trkpt lat="29.5517488" lon="103.3446097"><ele>2244.66</ele><time>2025-09-18T22:15:06.000Z</time></trkpt>
        <trkpt lat="29.55169" lon="103.3445278"><ele>2243.49</ele><time>2025-09-18T22:15:14.000Z</time></trkpt>
        <trkpt lat="29.5516302" lon="103.3444302"><ele>2242.38</ele><time>2025-09-18T22:15:24.000Z</time></trkpt>
        <trkpt lat="29.5515594" lon="103.3443476"><ele>2242.12</ele><time>2025-09-18T22:15:34.000Z</time></trkpt>
        <trkpt lat="29.551466" lon="103.3442981"><ele>2241.34</ele><time>2025-09-18T22:15:44.000Z</time></trkpt>
        <trkpt lat="29.5513679" lon="103.3442731"><ele>2239.55</ele><time>2025-09-18T22:15:52.000Z</time></trkpt>
        <trkpt lat="29.5512722" lon="103.3442588"><ele>2239.72</ele><time>2025-09-18T22:16:02.000Z</time></trkpt>
        <trkpt lat="29.5511789" lon="103.3442591"><ele>2240.09</ele><time>2025-09-18T22:16:14.000Z</time></trkpt>
        <trkpt lat="29.5510801" lon="103.3442644"><ele>2239.49</ele><time>2025-09-18T22:16:22.000Z</time></trkpt>
        <trkpt lat="29.5509788" lon="103.3442653"><ele>2238.23</ele><time>2025-09-18T22:16:34.000Z</time></trkpt>
        <trkpt lat="29.5508775" lon="103.344258"><ele>2236.25</ele><time>2025-09-18T22:16:46.000Z</time></trkpt>
        <trkpt lat="29.5508089" lon="103.344194"><ele>2232.66</ele><time>2025-09-18T22:16:52.000Z</time></trkpt>
        <trkpt lat="29.5507436" lon="103.3441189"><ele>2229.35</ele><time>2025-09-18T22:16:58.000Z</time></trkpt>
        <trkpt lat="29.5506614" lon="103.3440486"><ele>2229.52</ele><time>2025-09-18T22:17:14.000Z</time></trkpt>
        <trkpt lat="29.5505867" lon="103.3439622"><ele>2232.4</ele><time>2025-09-18T22:17:22.000Z</time></trkpt>
        <trkpt lat="29.5505202" lon="103.3438543"><ele>2235.06</ele><time>2025-09-18T22:17:30.000Z</time></trkpt>
        <trkpt lat="29.550447" lon="103.343758"><ele>2234.11</ele><time>2025-09-18T22:17:38.000Z</time></trkpt>
        <trkpt lat="29.5503747" lon="103.3436837"><ele>2234.55</ele><time>2025-09-18T22:17:46.000Z</time></trkpt>
        <trkpt lat="29.5503177" lon="103.3435947"><ele>2236.76</ele><time>2025-09-18T22:17:54.000Z</time></trkpt>
        <trkpt lat="29.5502832" lon="103.343492"><ele>2237.19</ele><time>2025-09-18T22:18:02.000Z</time></trkpt>
        <trkpt lat="29.5502478" lon="103.3433927"><ele>2237.01</ele><time>2025-09-18T22:18:10.000Z</time></trkpt>
        <trkpt lat="29.5501929" lon="103.3433112"><ele>2236.34</ele><time>2025-09-18T22:18:18.000Z</time></trkpt>
        <trkpt lat="29.5501176" lon="103.3432469"><ele>2235.46</ele><time>2025-09-18T22:18:26.000Z</time></trkpt>
        <trkpt lat="29.5500274" lon="103.3432052"><ele>2235.77</ele><time>2025-09-18T22:18:34.000Z</time></trkpt>
        <trkpt lat="29.5499659" lon="103.3431315"><ele>2236.11</ele><time>2025-09-18T22:18:42.000Z</time></trkpt>
        <trkpt lat="29.549924" lon="103.3430347"><ele>2235.23</ele><time>2025-09-18T22:18:50.000Z</time></trkpt>
        <trkpt lat="29.5498828" lon="103.3429305"><ele>2235.81</ele><time>2025-09-18T22:18:58.000Z</time></trkpt>
        <trkpt lat="29.5498447" lon="103.3428152"><ele>2236.75</ele><time>2025-09-18T22:19:08.000Z</time></trkpt>
        <trkpt lat="29.549789" lon="103.342708"><ele>2237.22</ele><time>2025-09-18T22:19:18.000Z</time></trkpt>
        <trkpt lat="29.5497291" lon="103.3426196"><ele>2238.66</ele><time>2025-09-18T22:19:26.000Z</time></trkpt>
        <trkpt lat="29.5496636" lon="103.342541"><ele>2238.82</ele><time>2025-09-18T22:19:34.000Z</time></trkpt>
        <trkpt lat="29.5495987" lon="103.342468"><ele>2239.21</ele><time>2025-09-18T22:19:42.000Z</time></trkpt>
        <trkpt lat="29.5495237" lon="103.3423998"><ele>2240.9</ele><time>2025-09-18T22:19:50.000Z</time></trkpt>
        <trkpt lat="29.5494545" lon="103.3423269"><ele>2243.49</ele><time>2025-09-18T22:19:58.000Z</time></trkpt>
        <trkpt lat="29.5494006" lon="103.3422358"><ele>2244.9</ele><time>2025-09-18T22:20:06.000Z</time></trkpt>
        <trkpt lat="29.5493679" lon="103.3421219"><ele>2244.62</ele><time>2025-09-18T22:20:16.000Z</time></trkpt>
        <trkpt lat="29.5493574" lon="103.3419984"><ele>2245.94</ele><time>2025-09-18T22:20:28.000Z</time></trkpt>
        <trkpt lat="29.5493319" lon="103.3418739"><ele>2245.89</ele><time>2025-09-18T22:20:38.000Z</time></trkpt>
        <trkpt lat="29.5493429" lon="103.3417721"><ele>2245.09</ele><time>2025-09-18T22:20:48.000Z</time></trkpt>
        <trkpt lat="29.5493106" lon="103.3416648"><ele>2245.86</ele><time>2025-09-18T22:21:22.000Z</time></trkpt>
        <trkpt lat="29.5492738" lon="103.3415582"><ele>2244.55</ele><time>2025-09-18T22:21:34.000Z</time></trkpt>
        <trkpt lat="29.5492523" lon="103.3414454"><ele>2243.81</ele><time>2025-09-18T22:21:48.000Z</time></trkpt>
        <trkpt lat="29.5492508" lon="103.3414187"><ele>2244.73</ele><time>2025-09-18T22:21:50.000Z</time></trkpt>
        <trkpt lat="29.5491928" lon="103.3413802"><ele>2245.53</ele><time>2025-09-18T22:22:24.000Z</time></trkpt>
        <trkpt lat="29.5491529" lon="103.3413417"><ele>2246.56</ele><time>2025-09-18T22:22:44.000Z</time></trkpt>
        <trkpt lat="29.5491131" lon="103.3412554"><ele>2248.04</ele><time>2025-09-18T22:23:22.000Z</time></trkpt>
        <trkpt lat="29.5490281" lon="103.3412086"><ele>2249.1</ele><time>2025-09-18T22:23:34.000Z</time></trkpt>
        <trkpt lat="29.5489325" lon="103.3411785"><ele>2249.85</ele><time>2025-09-18T22:23:48.000Z</time></trkpt>
        <trkpt lat="29.5488647" lon="103.3412755"><ele>2252.54</ele><time>2025-09-18T22:25:06.000Z</time></trkpt>
        <trkpt lat="29.5487689" lon="103.341269"><ele>2257.23</ele><time>2025-09-18T22:25:30.000Z</time></trkpt>
        <trkpt lat="29.5486678" lon="103.3412569"><ele>2259.55</ele><time>2025-09-18T22:25:50.000Z</time></trkpt>
        <trkpt lat="29.5485821" lon="103.3412913"><ele>2261.94</ele><time>2025-09-18T22:26:22.000Z</time></trkpt>
        <trkpt lat="29.5484939" lon="103.3413069"><ele>2265.96</ele><time>2025-09-18T22:27:02.000Z</time></trkpt>
        <trkpt lat="29.5484033" lon="103.3413206"><ele>2269.51</ele><time>2025-09-18T22:27:22.000Z</time></trkpt>
        <trkpt lat="29.5483037" lon="103.3413022"><ele>2272.05</ele><time>2025-09-18T22:27:58.000Z</time></trkpt>
        <trkpt lat="29.5482123" lon="103.3412734"><ele>2276.36</ele><time>2025-09-18T22:28:16.000Z</time></trkpt>
        <trkpt lat="29.5481199" lon="103.3412595"><ele>2280.01</ele><time>2025-09-18T22:28:34.000Z</time></trkpt>
        <trkpt lat="29.5480252" lon="103.3412529"><ele>2283.28</ele><time>2025-09-18T22:28:48.000Z</time></trkpt>
        <trkpt lat="29.5479337" lon="103.3412459"><ele>2287.38</ele><time>2025-09-18T22:28:58.000Z</time></trkpt>
        <trkpt lat="29.5478414" lon="103.3412036"><ele>2289.09</ele><time>2025-09-18T22:29:10.000Z</time></trkpt>
        <trkpt lat="29.5477448" lon="103.3411621"><ele>2291.29</ele><time>2025-09-18T22:29:48.000Z</time></trkpt>
        <trkpt lat="29.5476556" lon="103.3411183"><ele>2294.58</ele><time>2025-09-18T22:30:02.000Z</time></trkpt>
        <trkpt lat="29.547562" lon="103.3411285"><ele>2294.96</ele><time>2025-09-18T22:30:18.000Z</time></trkpt>
        <trkpt lat="29.5475185" lon="103.3411316"><ele>2298</ele><time>2025-09-18T22:30:24.000Z</time></trkpt>
        <trkpt lat="29.5474488" lon="103.3411002"><ele>2300.34</ele><time>2025-09-18T22:30:48.000Z</time></trkpt>
        <trkpt lat="29.547373" lon="103.3410454"><ele>2302.53</ele><time>2025-09-18T22:31:08.000Z</time></trkpt>
        <trkpt lat="29.5473857" lon="103.3409464"><ele>2301.97</ele><time>2025-09-18T22:31:32.000Z</time></trkpt>
        <trkpt lat="29.5473423" lon="103.3408589"><ele>2301.73</ele><time>2025-09-18T22:31:42.000Z</time></trkpt>
        <trkpt lat="29.5472898" lon="103.3407665"><ele>2300.13</ele><time>2025-09-18T22:31:52.000Z</time></trkpt>
        <trkpt lat="29.5472233" lon="103.3406778"><ele>2299.04</ele><time>2025-09-18T22:32:04.000Z</time></trkpt>
        <trkpt lat="29.5471608" lon="103.3405935"><ele>2298.77</ele><time>2025-09-18T22:32:14.000Z</time></trkpt>
        <trkpt lat="29.5471042" lon="103.340509"><ele>2298.67</ele><time>2025-09-18T22:32:30.000Z</time></trkpt>
        <trkpt lat="29.5471004" lon="103.3404496"><ele>2300.22</ele><time>2025-09-18T22:32:42.000Z</time></trkpt>
        <trkpt lat="29.5471255" lon="103.3403599"><ele>2301.19</ele><time>2025-09-18T22:33:20.000Z</time></trkpt>
        <trkpt lat="29.5470848" lon="103.340283"><ele>2307.77</ele><time>2025-09-18T22:33:44.000Z</time></trkpt>
        <trkpt lat="29.547127" lon="103.3402078"><ele>2309.43</ele><time>2025-09-18T22:34:30.000Z</time></trkpt>
        <trkpt lat="29.5471078" lon="103.340107"><ele>2314.88</ele><time>2025-09-18T22:35:48.000Z</time></trkpt>
        <trkpt lat="29.5470852" lon="103.3400028"><ele>2321.13</ele><time>2025-09-18T22:36:08.000Z</time></trkpt>
        <trkpt lat="29.5470666" lon="103.3398924"><ele>2325.94</ele><time>2025-09-18T22:37:16.000Z</time></trkpt>
        <trkpt lat="29.5470966" lon="103.3397867"><ele>2331.81</ele><time>2025-09-18T22:37:34.000Z</time></trkpt>
        <trkpt lat="29.5470608" lon="103.3396905"><ele>2337.24</ele><time>2025-09-18T22:37:56.000Z</time></trkpt>
        <trkpt lat="29.5469822" lon="103.3396449"><ele>2341.05</ele><time>2025-09-18T22:38:34.000Z</time></trkpt>
        <trkpt lat="29.5469158" lon="103.3395659"><ele>2345.3</ele><time>2025-09-18T22:38:58.000Z</time></trkpt>
        <trkpt lat="29.5468829" lon="103.3394662"><ele>2349.62</ele><time>2025-09-18T22:39:28.000Z</time></trkpt>
        <trkpt lat="29.5468351" lon="103.3393776"><ele>2354.98</ele><time>2025-09-18T22:40:10.000Z</time></trkpt>
        <trkpt lat="29.5467659" lon="103.3393015"><ele>2359.71</ele><time>2025-09-18T22:41:12.000Z</time></trkpt>
        <trkpt lat="29.5466895" lon="103.3392301"><ele>2363.29</ele><time>2025-09-18T22:41:34.000Z</time></trkpt>
        <trkpt lat="29.5466649" lon="103.3391266"><ele>2368.87</ele><time>2025-09-18T22:42:10.000Z</time></trkpt>
        <trkpt lat="29.5466194" lon="103.3390328"><ele>2374.34</ele><time>2025-09-18T22:42:38.000Z</time></trkpt>
        <trkpt lat="29.5465453" lon="103.3389688"><ele>2378.29</ele><time>2025-09-18T22:42:56.000Z</time></trkpt>
        <trkpt lat="29.5465316" lon="103.3388645"><ele>2381.51</ele><time>2025-09-18T22:44:48.000Z</time></trkpt>
        <trkpt lat="29.5464429" lon="103.3388185"><ele>2385.06</ele><time>2025-09-18T22:45:06.000Z</time></trkpt>
        <trkpt lat="29.5463549" lon="103.3387858"><ele>2388.27</ele><time>2025-09-18T22:45:38.000Z</time></trkpt>
        <trkpt lat="29.5462977" lon="103.3387078"><ele>2390.31</ele><time>2025-09-18T22:46:08.000Z</time></trkpt>
        <trkpt lat="29.5462886" lon="103.3385986"><ele>2393.47</ele><time>2025-09-18T22:46:24.000Z</time></trkpt>
        <trkpt lat="29.5462422" lon="103.3385055"><ele>2398.29</ele><time>2025-09-18T22:46:38.000Z</time></trkpt>
        <trkpt lat="29.546207" lon="103.3383994"><ele>2401.05</ele><time>2025-09-18T22:47:06.000Z</time></trkpt>
        <trkpt lat="29.5461977" lon="103.3382901"><ele>2403.16</ele><time>2025-09-18T22:47:22.000Z</time></trkpt>
        <trkpt lat="29.5461959" lon="103.3381825"><ele>2405.27</ele><time>2025-09-18T22:47:42.000Z</time></trkpt>
        <trkpt lat="29.5462351" lon="103.3380833"><ele>2408.92</ele><time>2025-09-18T22:48:14.000Z</time></trkpt>
        <trkpt lat="29.546285" lon="103.3379782"><ele>2412.4</ele><time>2025-09-18T22:48:30.000Z</time></trkpt>
        <trkpt lat="29.5463486" lon="103.3378945"><ele>2415.27</ele><time>2025-09-18T22:48:44.000Z</time></trkpt>
        <trkpt lat="29.5464018" lon="103.3378041"><ele>2416.1</ele><time>2025-09-18T22:49:04.000Z</time></trkpt>
        <trkpt lat="29.5464444" lon="103.3377019"><ele>2416.55</ele><time>2025-09-18T22:49:16.000Z</time></trkpt>
        <trkpt lat="29.5464599" lon="103.3375789"><ele>2417.54</ele><time>2025-09-18T22:49:26.000Z</time></trkpt>
        <trkpt lat="29.5465195" lon="103.3375031"><ele>2418.44</ele><time>2025-09-18T22:49:34.000Z</time></trkpt>
        <trkpt lat="29.5465842" lon="103.3374264"><ele>2419.64</ele><time>2025-09-18T22:49:42.000Z</time></trkpt>
        <trkpt lat="29.5466177" lon="103.3373263"><ele>2419.25</ele><time>2025-09-18T22:49:52.000Z</time></trkpt>
        <trkpt lat="29.5466404" lon="103.3372088"><ele>2420.4</ele><time>2025-09-18T22:50:04.000Z</time></trkpt>
        <trkpt lat="29.5466309" lon="103.3370942"><ele>2421.83</ele><time>2025-09-18T22:50:16.000Z</time></trkpt>
        <trkpt lat="29.5465568" lon="103.337032"><ele>2423.21</ele><time>2025-09-18T22:50:26.000Z</time></trkpt>
        <trkpt lat="29.5464863" lon="103.3369503"><ele>2424.4</ele><time>2025-09-18T22:50:38.000Z</time></trkpt>
        <trkpt lat="29.5464569" lon="103.3368535"><ele>2426.12</ele><time>2025-09-18T22:50:48.000Z</time></trkpt>
        <trkpt lat="29.5464559" lon="103.3367503"><ele>2426.61</ele><time>2025-09-18T22:50:56.000Z</time></trkpt>
        <trkpt lat="29.5464596" lon="103.336633"><ele>2425.46</ele><time>2025-09-18T22:51:06.000Z</time></trkpt>
        <trkpt lat="29.5464835" lon="103.3365267"><ele>2424.74</ele><time>2025-09-18T22:51:16.000Z</time></trkpt>
        <trkpt lat="29.5465261" lon="103.3364238"><ele>2422.98</ele><time>2025-09-18T22:51:32.000Z</time></trkpt>
        <trkpt lat="29.5465249" lon="103.3363112"><ele>2418.36</ele><time>2025-09-18T22:51:42.000Z</time></trkpt>
        <trkpt lat="29.5465442" lon="103.3362091"><ele>2414.05</ele><time>2025-09-18T22:51:50.000Z</time></trkpt>
        <trkpt lat="29.5465746" lon="103.3361063"><ele>2410.88</ele><time>2025-09-18T22:52:04.000Z</time></trkpt>
        <trkpt lat="29.5466102" lon="103.3360015"><ele>2408.23</ele><time>2025-09-18T22:52:46.000Z</time></trkpt>
        <trkpt lat="29.5466464" lon="103.3358944"><ele>2405.75</ele><time>2025-09-18T22:52:56.000Z</time></trkpt>
        <trkpt lat="29.5466526" lon="103.3358171"><ele>2404.1</ele><time>2025-09-18T22:53:04.000Z</time></trkpt>
        <trkpt lat="29.5466549" lon="103.3357135"><ele>2401.67</ele><time>2025-09-18T22:53:14.000Z</time></trkpt>
        <trkpt lat="29.5466969" lon="103.3356084"><ele>2401.36</ele><time>2025-09-18T22:53:22.000Z</time></trkpt>
        <trkpt lat="29.5467336" lon="103.3354927"><ele>2400.73</ele><time>2025-09-18T22:53:30.000Z</time></trkpt>
        <trkpt lat="29.5467586" lon="103.3353771"><ele>2399.74</ele><time>2025-09-18T22:53:38.000Z</time></trkpt>
        <trkpt lat="29.5467873" lon="103.3352696"><ele>2401.1</ele><time>2025-09-18T22:53:46.000Z</time></trkpt>
        <trkpt lat="29.5467964" lon="103.3351553"><ele>2401.94</ele><time>2025-09-18T22:53:58.000Z</time></trkpt>
        <trkpt lat="29.5467753" lon="103.3350516"><ele>2402.7</ele><time>2025-09-18T22:54:10.000Z</time></trkpt>
        <trkpt lat="29.5466959" lon="103.3349974"><ele>2401.07</ele><time>2025-09-18T22:54:18.000Z</time></trkpt>
        <trkpt lat="29.5466026" lon="103.3349407"><ele>2400.98</ele><time>2025-09-18T22:54:26.000Z</time></trkpt>
        <trkpt lat="29.5465178" lon="103.3348829"><ele>2401.24</ele><time>2025-09-18T22:54:36.000Z</time></trkpt>
        <trkpt lat="29.5464661" lon="103.3348474"><ele>2400.86</ele><time>2025-09-18T22:54:44.000Z</time></trkpt>
        <trkpt lat="29.546381" lon="103.3348155"><ele>2400.45</ele><time>2025-09-18T22:55:02.000Z</time></trkpt>
        <trkpt lat="29.5462892" lon="103.3347994"><ele>2401.1</ele><time>2025-09-18T22:55:22.000Z</time></trkpt>
        <trkpt lat="29.5461884" lon="103.334807"><ele>2404.75</ele><time>2025-09-18T22:55:46.000Z</time></trkpt>
        <trkpt lat="29.5461591" lon="103.3348099"><ele>2408.09</ele><time>2025-09-18T22:55:48.000Z</time></trkpt>
        <trkpt lat="29.5460902" lon="103.3348014"><ele>2409.45</ele><time>2025-09-18T22:56:10.000Z</time></trkpt>
        <trkpt lat="29.5460002" lon="103.3347874"><ele>2409.57</ele><time>2025-09-18T22:56:22.000Z</time></trkpt>
        <trkpt lat="29.5459168" lon="103.3347409"><ele>2410.51</ele><time>2025-09-18T22:56:34.000Z</time></trkpt>
        <trkpt lat="29.5458802" lon="103.334642"><ele>2409.14</ele><time>2025-09-18T22:56:48.000Z</time></trkpt>
        <trkpt lat="29.5458195" lon="103.3345648"><ele>2407.07</ele><time>2025-09-18T22:57:00.000Z</time></trkpt>
        <trkpt lat="29.5457331" lon="103.3344888"><ele>2405</ele><time>2025-09-18T22:57:10.000Z</time></trkpt>
        <trkpt lat="29.545636" lon="103.3344432"><ele>2403.98</ele><time>2025-09-18T22:57:24.000Z</time></trkpt>
        <trkpt lat="29.545541" lon="103.3343984"><ele>2403.25</ele><time>2025-09-18T22:57:34.000Z</time></trkpt>
        <trkpt lat="29.5454465" lon="103.33437"><ele>2400.81</ele><time>2025-09-18T22:57:50.000Z</time></trkpt>
        <trkpt lat="29.5453632" lon="103.3343173"><ele>2400.78</ele><time>2025-09-18T22:58:10.000Z</time></trkpt>
        <trkpt lat="29.5452949" lon="103.3342328"><ele>2402.72</ele><time>2025-09-18T22:58:20.000Z</time></trkpt>
        <trkpt lat="29.5452238" lon="103.3341464"><ele>2404.05</ele><time>2025-09-18T22:58:34.000Z</time></trkpt>
        <trkpt lat="29.5451263" lon="103.3340924"><ele>2404.4</ele><time>2025-09-18T22:58:46.000Z</time></trkpt>
        <trkpt lat="29.5450217" lon="103.3340913"><ele>2404.91</ele><time>2025-09-18T22:58:58.000Z</time></trkpt>
        <trkpt lat="29.5449217" lon="103.3340926"><ele>2405.26</ele><time>2025-09-18T22:59:08.000Z</time></trkpt>
        <trkpt lat="29.5448266" lon="103.3341432"><ele>2404.12</ele><time>2025-09-18T22:59:20.000Z</time></trkpt>
        <trkpt lat="29.5447423" lon="103.3342083"><ele>2400.8</ele><time>2025-09-18T22:59:30.000Z</time></trkpt>
        <trkpt lat="29.5446605" lon="103.3342631"><ele>2397.71</ele><time>2025-09-18T22:59:42.000Z</time></trkpt>
        <trkpt lat="29.5445622" lon="103.3342619"><ele>2396.79</ele><time>2025-09-18T22:59:52.000Z</time></trkpt>
        <trkpt lat="29.5444678" lon="103.3342334"><ele>2397.91</ele><time>2025-09-18T23:00:00.000Z</time></trkpt>
        <trkpt lat="29.5443656" lon="103.3342264"><ele>2400.04</ele><time>2025-09-18T23:00:10.000Z</time></trkpt>
        <trkpt lat="29.5442613" lon="103.3342175"><ele>2401.1</ele><time>2025-09-18T23:00:20.000Z</time></trkpt>
        <trkpt lat="29.5441605" lon="103.3341833"><ele>2401.38</ele><time>2025-09-18T23:00:30.000Z</time></trkpt>
        <trkpt lat="29.5440797" lon="103.3341269"><ele>2403.86</ele><time>2025-09-18T23:00:38.000Z</time></trkpt>
        <trkpt lat="29.543997" lon="103.3340681"><ele>2406.46</ele><time>2025-09-18T23:00:48.000Z</time></trkpt>
        <trkpt lat="29.5439257" lon="103.3339858"><ele>2406.24</ele><time>2025-09-18T23:00:58.000Z</time></trkpt>
        <trkpt lat="29.5438432" lon="103.333944"><ele>2404.48</ele><time>2025-09-18T23:01:08.000Z</time></trkpt>
        <trkpt lat="29.5437544" lon="103.3339683"><ele>2403.3</ele><time>2025-09-18T23:01:16.000Z</time></trkpt>
        <trkpt lat="29.5436661" lon="103.3339516"><ele>2403.17</ele><time>2025-09-18T23:01:26.000Z</time></trkpt>
        <trkpt lat="29.5436045" lon="103.3338812"><ele>2401.97</ele><time>2025-09-18T23:01:34.000Z</time></trkpt>
        <trkpt lat="29.5435415" lon="103.3337913"><ele>2401.1</ele><time>2025-09-18T23:01:44.000Z</time></trkpt>
        <trkpt lat="29.5434508" lon="103.3337306"><ele>2401.98</ele><time>2025-09-18T23:01:56.000Z</time></trkpt>
        <trkpt lat="29.5434055" lon="103.3336384"><ele>2405.24</ele><time>2025-09-18T23:02:10.000Z</time></trkpt>
        <trkpt lat="29.5433856" lon="103.3335298"><ele>2404.5</ele><time>2025-09-18T23:02:22.000Z</time></trkpt>
        <trkpt lat="29.5433619" lon="103.3334096"><ele>2400.83</ele><time>2025-09-18T23:02:32.000Z</time></trkpt>
        <trkpt lat="29.5433426" lon="103.3332863"><ele>2398.22</ele><time>2025-09-18T23:02:42.000Z</time></trkpt>
        <trkpt lat="29.5433028" lon="103.3331883"><ele>2395.23</ele><time>2025-09-18T23:02:52.000Z</time></trkpt>
        <trkpt lat="29.5432412" lon="103.3331033"><ele>2392.91</ele><time>2025-09-18T23:03:06.000Z</time></trkpt>
        <trkpt lat="29.5431835" lon="103.3330148"><ele>2393.22</ele><time>2025-09-18T23:03:18.000Z</time></trkpt>
        <trkpt lat="29.5430873" lon="103.3329918"><ele>2393.73</ele><time>2025-09-18T23:03:26.000Z</time></trkpt>
        <trkpt lat="29.5429899" lon="103.3330014"><ele>2396.79</ele><time>2025-09-18T23:03:34.000Z</time></trkpt>
        <trkpt lat="29.5429018" lon="103.3329687"><ele>2397.98</ele><time>2025-09-18T23:03:44.000Z</time></trkpt>
        <trkpt lat="29.5428348" lon="103.3328757"><ele>2400.33</ele><time>2025-09-18T23:03:56.000Z</time></trkpt>
        <trkpt lat="29.5427893" lon="103.3327719"><ele>2401.71</ele><time>2025-09-18T23:04:04.000Z</time></trkpt>
        <trkpt lat="29.5427247" lon="103.3326793"><ele>2402.25</ele><time>2025-09-18T23:04:14.000Z</time></trkpt>
        <trkpt lat="29.5426365" lon="103.3326371"><ele>2402.51</ele><time>2025-09-18T23:04:22.000Z</time></trkpt>
        <trkpt lat="29.5425779" lon="103.332554"><ele>2401.48</ele><time>2025-09-18T23:04:30.000Z</time></trkpt>
        <trkpt lat="29.5425576" lon="103.3324522"><ele>2399.16</ele><time>2025-09-18T23:04:38.000Z</time></trkpt>
        <trkpt lat="29.5425039" lon="103.3323639"><ele>2396.93</ele><time>2025-09-18T23:04:48.000Z</time></trkpt>
        <trkpt lat="29.5424534" lon="103.3322655"><ele>2397.18</ele><time>2025-09-18T23:04:58.000Z</time></trkpt>
        <trkpt lat="29.5423895" lon="103.3321687"><ele>2396.43</ele><time>2025-09-18T23:05:08.000Z</time></trkpt>
        <trkpt lat="29.542319" lon="103.3320934"><ele>2395.73</ele><time>2025-09-18T23:05:16.000Z</time></trkpt>
        <trkpt lat="29.5422392" lon="103.3320256"><ele>2395.55</ele><time>2025-09-18T23:05:26.000Z</time></trkpt>
        <trkpt lat="29.542138" lon="103.3320085"><ele>2394.87</ele><time>2025-09-18T23:05:38.000Z</time></trkpt>
        <trkpt lat="29.5420391" lon="103.3320246"><ele>2393.16</ele><time>2025-09-18T23:05:50.000Z</time></trkpt>
        <trkpt lat="29.5419421" lon="103.3320542"><ele>2391.18</ele><time>2025-09-18T23:05:58.000Z</time></trkpt>
        <trkpt lat="29.5418429" lon="103.3320637"><ele>2390.11</ele><time>2025-09-18T23:06:06.000Z</time></trkpt>
        <trkpt lat="29.5417711" lon="103.3319915"><ele>2389.41</ele><time>2025-09-18T23:06:16.000Z</time></trkpt>
        <trkpt lat="29.5417871" lon="103.3318879"><ele>2388.24</ele><time>2025-09-18T23:06:22.000Z</time></trkpt>
        <trkpt lat="29.5418242" lon="103.3317701"><ele>2385.82</ele><time>2025-09-18T23:06:30.000Z</time></trkpt>
        <trkpt lat="29.5418499" lon="103.3316454"><ele>2384.75</ele><time>2025-09-18T23:06:40.000Z</time></trkpt>
        <trkpt lat="29.5419101" lon="103.3315499"><ele>2384.97</ele><time>2025-09-18T23:06:54.000Z</time></trkpt>
        <trkpt lat="29.5420071" lon="103.3315143"><ele>2385.18</ele><time>2025-09-18T23:07:04.000Z</time></trkpt>
        <trkpt lat="29.5420036" lon="103.3314376"><ele>2385.47</ele><time>2025-09-18T23:07:16.000Z</time></trkpt>
        <trkpt lat="29.5419862" lon="103.3314214"><ele>2383.65</ele><time>2025-09-18T23:07:18.000Z</time></trkpt>
        <trkpt lat="29.5420561" lon="103.3314706"><ele>2382.58</ele><time>2025-09-18T23:07:52.000Z</time></trkpt>
        <trkpt lat="29.5421134" lon="103.3314991"><ele>2382.01</ele><time>2025-09-18T23:07:58.000Z</time></trkpt>
        <trkpt lat="29.5420595" lon="103.3315254"><ele>2382.18</ele><time>2025-09-18T23:08:23.000Z</time></trkpt>
        <trkpt lat="29.5419743" lon="103.3315798"><ele>2381.71</ele><time>2025-09-18T23:08:33.000Z</time></trkpt>
        <trkpt lat="29.5418621" lon="103.3316246"><ele>2382.05</ele><time>2025-09-18T23:08:45.000Z</time></trkpt>
        <trkpt lat="29.5418022" lon="103.3316434"><ele>2383.6</ele><time>2025-09-18T23:08:51.000Z</time></trkpt>
        <trkpt lat="29.541707" lon="103.3316075"><ele>2384.36</ele><time>2025-09-18T23:11:57.000Z</time></trkpt>
        <trkpt lat="29.541617" lon="103.3316204"><ele>2384.37</ele><time>2025-09-18T23:12:07.000Z</time></trkpt>
        <trkpt lat="29.5415183" lon="103.3316609"><ele>2384.57</ele><time>2025-09-18T23:12:19.000Z</time></trkpt>
        <trkpt lat="29.5414117" lon="103.3316937"><ele>2385.25</ele><time>2025-09-18T23:12:29.000Z</time></trkpt>
        <trkpt lat="29.5413105" lon="103.3317276"><ele>2385.9</ele><time>2025-09-18T23:12:37.000Z</time></trkpt>
        <trkpt lat="29.5412163" lon="103.3317614"><ele>2387.78</ele><time>2025-09-18T23:12:45.000Z</time></trkpt>
        <trkpt lat="29.5411264" lon="103.3318"><ele>2389.28</ele><time>2025-09-18T23:13:01.000Z</time></trkpt>
        <trkpt lat="29.5411017" lon="103.3318264"><ele>2389.41</ele><time>2025-09-18T23:13:07.000Z</time></trkpt>
        <trkpt lat="29.5410345" lon="103.3318449"><ele>2388.28</ele><time>2025-09-18T23:13:37.000Z</time></trkpt>
        <trkpt lat="29.540965" lon="103.3317913"><ele>2389.56</ele><time>2025-09-18T23:13:51.000Z</time></trkpt>
        <trkpt lat="29.540866" lon="103.3317474"><ele>2391.8</ele><time>2025-09-18T23:13:59.000Z</time></trkpt>
        <trkpt lat="29.540766" lon="103.3317401"><ele>2393.13</ele><time>2025-09-18T23:14:07.000Z</time></trkpt>
        <trkpt lat="29.5406741" lon="103.3317754"><ele>2394.38</ele><time>2025-09-18T23:14:15.000Z</time></trkpt>
        <trkpt lat="29.5405932" lon="103.3318384"><ele>2394.75</ele><time>2025-09-18T23:14:23.000Z</time></trkpt>
        <trkpt lat="29.5405064" lon="103.3318981"><ele>2393.89</ele><time>2025-09-18T23:14:33.000Z</time></trkpt>
        <trkpt lat="29.5404212" lon="103.3319491"><ele>2393.02</ele><time>2025-09-18T23:14:41.000Z</time></trkpt>
        <trkpt lat="29.540329" lon="103.3320016"><ele>2392.51</ele><time>2025-09-18T23:14:49.000Z</time></trkpt>
        <trkpt lat="29.5402906" lon="103.3320992"><ele>2392.73</ele><time>2025-09-18T23:15:01.000Z</time></trkpt>
        <trkpt lat="29.5402253" lon="103.3321635"><ele>2393.07</ele><time>2025-09-18T23:15:09.000Z</time></trkpt>
        <trkpt lat="29.5401358" lon="103.3322056"><ele>2394.96</ele><time>2025-09-18T23:15:17.000Z</time></trkpt>
        <trkpt lat="29.5400568" lon="103.3322604"><ele>2395.79</ele><time>2025-09-18T23:15:25.000Z</time></trkpt>
        <trkpt lat="29.5399619" lon="103.3322969"><ele>2396.26</ele><time>2025-09-18T23:15:33.000Z</time></trkpt>
        <trkpt lat="29.5398677" lon="103.3323325"><ele>2396.57</ele><time>2025-09-18T23:15:41.000Z</time></trkpt>
        <trkpt lat="29.5397795" lon="103.3323812"><ele>2397.17</ele><time>2025-09-18T23:15:51.000Z</time></trkpt>
        <trkpt lat="29.539696" lon="103.3324263"><ele>2395.71</ele><time>2025-09-18T23:16:01.000Z</time></trkpt>
        <trkpt lat="29.5396221" lon="103.3324909"><ele>2395.88</ele><time>2025-09-18T23:16:13.000Z</time></trkpt>
        <trkpt lat="29.5395526" lon="103.3325581"><ele>2397.23</ele><time>2025-09-18T23:16:29.000Z</time></trkpt>
        <trkpt lat="29.5394799" lon="103.3326191"><ele>2399.46</ele><time>2025-09-18T23:16:47.000Z</time></trkpt>
        <trkpt lat="29.5394122" lon="103.3326957"><ele>2401.77</ele><time>2025-09-18T23:17:03.000Z</time></trkpt>
        <trkpt lat="29.5393396" lon="103.3327806"><ele>2403.5</ele><time>2025-09-18T23:17:17.000Z</time></trkpt>
        <trkpt lat="29.5392589" lon="103.3328549"><ele>2405.22</ele><time>2025-09-18T23:17:31.000Z</time></trkpt>
        <trkpt lat="29.5391645" lon="103.3328943"><ele>2407.39</ele><time>2025-09-18T23:17:41.000Z</time></trkpt>
        <trkpt lat="29.5390749" lon="103.3329466"><ele>2407.56</ele><time>2025-09-18T23:17:51.000Z</time></trkpt>
        <trkpt lat="29.5389984" lon="103.333024"><ele>2408.65</ele><time>2025-09-18T23:18:01.000Z</time></trkpt>
        <trkpt lat="29.5389133" lon="103.3330806"><ele>2409.67</ele><time>2025-09-18T23:18:11.000Z</time></trkpt>
        <trkpt lat="29.5388167" lon="103.3331258"><ele>2409.34</ele><time>2025-09-18T23:18:21.000Z</time></trkpt>
        <trkpt lat="29.5387221" lon="103.3331665"><ele>2410.4</ele><time>2025-09-18T23:18:31.000Z</time></trkpt>
        <trkpt lat="29.538621" lon="103.3331973"><ele>2411.43</ele><time>2025-09-18T23:18:43.000Z</time></trkpt>
        <trkpt lat="29.5385208" lon="103.3332215"><ele>2413.17</ele><time>2025-09-18T23:18:55.000Z</time></trkpt>
        <trkpt lat="29.53842" lon="103.3332349"><ele>2414.76</ele><time>2025-09-18T23:19:07.000Z</time></trkpt>
        <trkpt lat="29.5383289" lon="103.3332636"><ele>2416.6</ele><time>2025-09-18T23:19:19.000Z</time></trkpt>
        <trkpt lat="29.5382476" lon="103.3333184"><ele>2417.06</ele><time>2025-09-18T23:19:29.000Z</time></trkpt>
        <trkpt lat="29.5381588" lon="103.3333825"><ele>2417.9</ele><time>2025-09-18T23:19:39.000Z</time></trkpt>
        <trkpt lat="29.5380663" lon="103.3334395"><ele>2418.28</ele><time>2025-09-18T23:19:47.000Z</time></trkpt>
        <trkpt lat="29.5379837" lon="103.3334937"><ele>2417.87</ele><time>2025-09-18T23:19:55.000Z</time></trkpt>
        <trkpt lat="29.53794" lon="103.3335173"><ele>2418.75</ele><time>2025-09-18T23:20:03.000Z</time></trkpt>
        <trkpt lat="29.5378514" lon="103.3335013"><ele>2418.72</ele><time>2025-09-18T23:27:00.000Z</time></trkpt>
        <trkpt lat="29.5377909" lon="103.3335876"><ele>2419.29</ele><time>2025-09-18T23:27:08.000Z</time></trkpt>
        <trkpt lat="29.5377497" lon="103.3336975"><ele>2418.92</ele><time>2025-09-18T23:27:18.000Z</time></trkpt>
        <trkpt lat="29.5376759" lon="103.3337638"><ele>2418.61</ele><time>2025-09-18T23:27:28.000Z</time></trkpt>
        <trkpt lat="29.537588" lon="103.3337925"><ele>2418.72</ele><time>2025-09-18T23:27:40.000Z</time></trkpt>
        <trkpt lat="29.537498" lon="103.3338156"><ele>2420.71</ele><time>2025-09-18T23:27:50.000Z</time></trkpt>
        <trkpt lat="29.5373956" lon="103.333807"><ele>2423.06</ele><time>2025-09-18T23:28:02.000Z</time></trkpt>
        <trkpt lat="29.5373223" lon="103.3338649"><ele>2425.69</ele><time>2025-09-18T23:28:18.000Z</time></trkpt>
        <trkpt lat="29.537262" lon="103.3339477"><ele>2426.64</ele><time>2025-09-18T23:28:32.000Z</time></trkpt>
        <trkpt lat="29.5372387" lon="103.3340521"><ele>2428.79</ele><time>2025-09-18T23:28:48.000Z</time></trkpt>
        <trkpt lat="29.537185" lon="103.3341313"><ele>2430.59</ele><time>2025-09-18T23:29:04.000Z</time></trkpt>
        <trkpt lat="29.5371083" lon="103.3341904"><ele>2432.34</ele><time>2025-09-18T23:29:20.000Z</time></trkpt>
        <trkpt lat="29.5370299" lon="103.334255"><ele>2434.53</ele><time>2025-09-18T23:29:34.000Z</time></trkpt>
        <trkpt lat="29.5369404" lon="103.3342733"><ele>2436.72</ele><time>2025-09-18T23:29:56.000Z</time></trkpt>
        <trkpt lat="29.5368597" lon="103.3343213"><ele>2439.94</ele><time>2025-09-18T23:30:20.000Z</time></trkpt>
        <trkpt lat="29.5367612" lon="103.3343467"><ele>2443.26</ele><time>2025-09-18T23:30:36.000Z</time></trkpt>
        <trkpt lat="29.5366711" lon="103.3343801"><ele>2444.93</ele><time>2025-09-18T23:30:44.000Z</time></trkpt>
        <trkpt lat="29.5365798" lon="103.3343946"><ele>2446.43</ele><time>2025-09-18T23:30:54.000Z</time></trkpt>
        <trkpt lat="29.5364932" lon="103.334364"><ele>2448.13</ele><time>2025-09-18T23:31:08.000Z</time></trkpt>
        <trkpt lat="29.5364011" lon="103.3343619"><ele>2447.94</ele><time>2025-09-18T23:31:24.000Z</time></trkpt>
        <trkpt lat="29.5363067" lon="103.3343699"><ele>2447.1</ele><time>2025-09-18T23:31:42.000Z</time></trkpt>
        <trkpt lat="29.5362182" lon="103.3343204"><ele>2447.84</ele><time>2025-09-18T23:32:04.000Z</time></trkpt>
        <trkpt lat="29.536117" lon="103.3342798"><ele>2448.52</ele><time>2025-09-18T23:32:20.000Z</time></trkpt>
        <trkpt lat="29.5360342" lon="103.3342229"><ele>2452.24</ele><time>2025-09-18T23:32:38.000Z</time></trkpt>
        <trkpt lat="29.5359472" lon="103.3341694"><ele>2456.32</ele><time>2025-09-18T23:32:54.000Z</time></trkpt>
        <trkpt lat="29.535859" lon="103.3341191"><ele>2457.53</ele><time>2025-09-18T23:33:10.000Z</time></trkpt>
        <trkpt lat="29.5357638" lon="103.334081"><ele>2459.91</ele><time>2025-09-18T23:34:24.000Z</time></trkpt>
        <trkpt lat="29.5356784" lon="103.3340358"><ele>2464.14</ele><time>2025-09-18T23:34:36.000Z</time></trkpt>
        <trkpt lat="29.5356267" lon="103.3339358"><ele>2466.49</ele><time>2025-09-18T23:34:52.000Z</time></trkpt>
        <trkpt lat="29.5355758" lon="103.3338437"><ele>2466.65</ele><time>2025-09-18T23:35:12.000Z</time></trkpt>
        <trkpt lat="29.535507" lon="103.3337712"><ele>2469.38</ele><time>2025-09-18T23:35:26.000Z</time></trkpt>
        <trkpt lat="29.5354375" lon="103.3337027"><ele>2471.29</ele><time>2025-09-18T23:35:36.000Z</time></trkpt>
        <trkpt lat="29.5353953" lon="103.3336094"><ele>2472.27</ele><time>2025-09-18T23:35:44.000Z</time></trkpt>
        <trkpt lat="29.535341" lon="103.3335179"><ele>2471.58</ele><time>2025-09-18T23:35:58.000Z</time></trkpt>
        <trkpt lat="29.5353038" lon="103.333421"><ele>2472.62</ele><time>2025-09-18T23:36:14.000Z</time></trkpt>
        <trkpt lat="29.5352618" lon="103.3333272"><ele>2473.82</ele><time>2025-09-18T23:36:30.000Z</time></trkpt>
        <trkpt lat="29.5352314" lon="103.3332283"><ele>2476.19</ele><time>2025-09-18T23:36:42.000Z</time></trkpt>
        <trkpt lat="29.5351896" lon="103.3331372"><ele>2479.89</ele><time>2025-09-18T23:37:06.000Z</time></trkpt>
        <trkpt lat="29.5351447" lon="103.3330459"><ele>2481.47</ele><time>2025-09-18T23:37:28.000Z</time></trkpt>
        <trkpt lat="29.5350968" lon="103.3329564"><ele>2485.64</ele><time>2025-09-18T23:37:46.000Z</time></trkpt>
        <trkpt lat="29.5350346" lon="103.3328694"><ele>2489.2</ele><time>2025-09-18T23:38:20.000Z</time></trkpt>
        <trkpt lat="29.5349475" lon="103.3328635"><ele>2490.32</ele><time>2025-09-18T23:38:32.000Z</time></trkpt>
        <trkpt lat="29.5348979" lon="103.3329525"><ele>2491.36</ele><time>2025-09-18T23:38:44.000Z</time></trkpt>
        <trkpt lat="29.5349537" lon="103.3330099"><ele>2491.1</ele><time>2025-09-18T23:38:56.000Z</time></trkpt>
        <trkpt lat="29.5349537" lon="103.3330099"><ele>2491.1</ele><time>2025-09-18T23:40:58.000Z</time></trkpt>
      </trkseg>
  </trk>
</gpx>